[[{"header":{"parameterUnit":"m.s-1","parameterCategory":1,"la1":30.6,"la2":28.766,"lo1":-90.7593,"lo2":-88.6598,"dy":0.0162,"dx":0.0183,"nx":116,"ny":114,"refTime":"2023-10-01T18:00:00:Z","depth":0,"parameterNumber":2,"parameterNumberName":"U-component_of_WINDS"},"data":[0.0,0.0,0.0,0.0,0.0,0.0,0.0,0.0,0.0,0.0,0.0,0.0,0.0,0.0,0.0,0.0,0.0,0.0,0.0,0.0,0.0,0.0,0.0,0.0,0.0,0.0,0.0,0.0,0.0,0.0,0.0,0.0,0.0,0.0,0.0,0.0,0.0,0.0,0.0,0.0,0.0,0.0,0.0,0.0,0.0,0.0,0.0,0.0,0.0,0.0,0.0,0.0,0.0,0.0,0.0,0.0,0.0,0.0,0.0,0.0,0.0,0.0,0.0,0.0,0.0,0.0,0.0,0.0,0.0,0.0,0.0,0.0,0.0,0.0,0.0,0.0,0.0,0.0,0.0,0.0,0.0,0.0,0.0,0.0,0.0,0.0,0.0,0.0,0.0,0.0,0.0,0.0,0.0,0.0,0.0,0.0,0.0,0.0,0.0,0.0,0.0,0.0,0.0,0.0,0.0,0.0,0.0,0.0,0.0,0.0,0.0,0.0,0.0,0.0,0.0,0.0,0.0,0.0,0.0,0.0,0.0,0.0,0.0,0.0,0.0,0.0,0.0,0.0,0.0,0.0,0.0,0.0,0.0,0.0,0.0,0.0,0.0,0.0,0.0,0.0,0.0,0.0,0.0,0.0,0.0,0.0,0.0,0.0,0.0,0.0,0.0,0.0,0.0,0.0,0.0,0.0,0.0,0.0,0.0,0.0,0.0,0.0,0.0,0.0,0.0,0.0,0.0,0.0,0.0,0.0,0.0,0.0,0.0,0.0,0.0,0.0,0.0,0.0,0.0,0.0,0.0,0.0,0.0,0.0,0.0,0.0,0.0,0.0,0.0,0.0,0.0,0.0,0.0,0.0,0.0,0.0,0.0,0.0,0.0,0.0,0.0,0.0,0.0,0.0,0.0,0.0,0.0,0.0,0.0,0.0,0.0,0.0,0.0,0.0,0.0,0.0,0.0,0.0,0.0,0.0,0.0,0.0,0.0,0.0,0.0,0.0,0.0,0.0,0.0,0.0,0.0,0.0,0.0,0.0,0.0,0.0,0.0,0.0,0.0,0.0,0.0,0.0,0.0,0.0,0.0,0.0,0.0,0.0,0.0,0.0,0.0,0.0,0.0,0.0,0.0,0.0,0.0,0.0,0.0,0.0,0.0,0.0,0.0,0.0,0.0,0.0,0.0,0.0,0.0,0.0,0.0,0.0,0.0,0.0,0.0,0.0,0.0,0.0,0.0,0.0,0.0,0.0,0.0,0.0,0.0,0.0,0.0,0.0,0.0,0.0,0.0,0.0,0.0,0.0,0.0,0.0,0.0,0.0,0.0,0.0,0.0,0.0,0.0,0.0,0.0,0.0,0.0,0.0,0.0,0.0,0.0,0.0,0.0,0.0,0.0,0.0,0.0,0.0,0.0,0.0,0.0,0.0,0.0,0.0,0.0,0.0,0.0,0.0,0.0,0.0,0.0,0.0,0.0,0.0,0.0,0.0,0.0,0.0,0.0,0.0,0.0,0.0,0.0,0.0,0.0,0.0,0.0,0.0,0.0,0.0,0.0,0.0,0.0,0.0,0.0,0.0,0.0,0.0,0.0,0.0,0.0,0.0,0.0,0.0,0.0,0.0,0.0,0.0,0.0,0.0,0.0,0.0,0.0,0.0,0.0,0.0,0.0,0.0,0.0,0.0,0.0,0.0,0.0,0.0,0.0,0.0,0.0,0.0,0.0,0.0,0.0,0.0,0.0,0.0,0.0,0.0,0.0,0.0,0.0,0.0,0.0,0.0,0.0,0.0,0.0,0.0,0.0,0.0,0.0,0.0,0.0,0.0,0.0,0.0,0.0,0.0,0.0,0.0,0.0,0.0,0.0,0.0,0.0,0.0,0.0,0.0,0.0,0.0,0.0,0.0,0.0,0.0,0.0,0.0,0.0,0.0,0.0,0.0,0.0,0.0,0.0,0.0,0.0,0.0,0.0,0.0,0.0,0.0,0.0,0.0,0.0,0.0,0.0,0.0,0.0,0.0,0.0,0.0,0.0,0.0,0.0,0.0,0.0,0.0,0.0,0.0,0.0,0.0,0.0,0.0,0.0,0.0,0.0,0.0,0.0,0.0,0.0,0.0,0.0,0.0,0.0,0.0,0.0,0.0,0.0,0.0,0.0,0.0,0.0,0.0,0.0,0.0,0.0,0.0,0.0,0.0,0.0,0.0,0.0,0.0,0.0,0.0,0.0,0.0,0.0,0.0,0.0,0.0,0.0,0.0,0.0,0.0,0.0,0.0,0.0,0.0,0.0,0.0,0.0,0.0,0.0,0.0,0.0,0.0,0.0,0.0,0.0,0.0,0.0,0.0,0.0,0.0,0.0,0.0,0.0,0.0,0.0,0.0,0.0,0.0,0.0,0.0,0.0,0.0,0.0,0.0,0.0,0.0,0.0,0.0,0.0,0.0,0.0,0.0,0.0,0.0,0.0,0.0,0.0,0.0,0.0,0.0,0.0,0.0,0.0,0.0,0.0,0.0,0.0,0.0,0.0,0.0,0.0,0.0,0.0,0.0,0.0,0.0,0.0,0.0,0.0,0.0,0.0,0.0,0.0,0.0,0.0,0.0,0.0,0.0,0.0,0.0,0.0,0.0,0.0,0.0,0.0,0.0,0.0,0.0,0.0,0.0,0.0,0.0,0.0,0.0,0.0,0.0,0.0,0.0,0.0,0.0,0.0,0.0,0.0,0.0,0.0,0.0,0.0,0.0,0.0,0.0,0.0,0.0,0.0,0.0,0.0,0.0,0.0,0.0,0.0,0.0,0.0,0.0,0.0,0.0,0.0,0.0,0.0,0.0,0.0,0.0,0.0,0.0,0.0,0.0,0.0,0.0,0.0,0.0,0.0,0.0,0.0,0.0,0.0,0.0,0.0,0.0,0.0,0.0,0.0,0.0,0.0,0.0,0.0,0.0,0.0,0.0,0.0,0.0,0.0,0.0,0.0,0.0,0.0,0.0,0.0,0.0,0.0,0.0,0.0,0.0,0.0,0.0,0.0,0.0,0.0,0.0,0.0,0.0,0.0,0.0,0.0,0.0,0.0,0.0,0.0,0.0,0.0,0.0,0.0,0.0,0.0,0.0,0.0,0.0,0.0,0.0,0.0,0.0,0.0,0.0,0.0,0.0,0.0,0.0,0.0,0.0,0.0,0.0,0.0,0.0,0.0,0.0,0.0,0.0,0.0,0.0,0.0,0.0,0.0,0.0,0.0,0.0,0.0,0.0,0.0,0.0,0.0,0.0,0.0,0.0,0.0,0.0,0.0,0.0,0.0,0.0,0.0,0.0,0.0,0.0,0.0,0.0,0.0,0.0,0.0,0.0,0.0,0.0,0.0,0.0,0.0,0.0,0.0,0.0,0.0,0.0,0.0,0.0,0.0,0.0,0.0,0.0,0.0,0.0,0.0,0.0,0.0,0.0,0.0,0.0,0.0,0.0,0.0,0.0,0.0,0.0,0.0,0.0,0.0,0.0,0.0,0.0,0.0,0.0,0.0,0.0,0.0,0.0,0.0,0.0,0.0,0.0,0.0,0.0,0.0,0.0,0.0,0.0,0.0,0.0,0.0,0.0,0.0,0.0,0.0,0.0,0.0,0.0,0.0,0.0,0.0,0.0,0.0,0.0,0.0,0.0,0.0,0.0,0.0,0.0,0.0,0.0,0.0,0.0,0.0,0.0,0.0,0.0,0.0,0.0,0.0,0.0,0.0,0.0,0.0,0.0,0.0,0.0,0.0,0.0,0.0,0.0,0.0,0.0,0.0,0.0,0.0,0.0,0.0,0.0,0.0,0.0,0.0,0.0,0.0,0.0,0.0,0.0,0.0,0.0,0.0,0.0,0.0,0.0,0.0,0.0,0.0,0.0,0.0,0.0,0.0,0.0,0.0,0.0,0.0,0.0,0.0,0.0,0.0,0.0,0.0,0.0,0.0,0.0,0.0,0.0,0.0,0.0,0.0,0.0,0.0,0.0,0.0,0.0,0.0,0.0,0.0,0.0,0.0,0.0,0.0,0.0,0.0,0.0,0.0,0.0,0.0,0.0,0.0,0.0,0.0,0.0,0.0,0.0,0.0,0.0,0.0,0.0,0.0,0.0,0.0,0.0,0.0,0.0,0.0,0.0,0.0,0.0,0.0,0.0,0.0,0.0,0.0,0.0,0.0,0.0,0.0,0.0,0.0,0.0,0.0,0.0,0.0,0.0,0.0,0.0,0.0,0.0,0.0,0.0,0.0,0.0,0.0,0.0,0.0,0.0,0.0,0.0,0.0,0.0,0.0,0.0,0.0,0.0,0.0,0.0,0.0,0.0,0.0,0.0,0.0,0.0,0.0,0.0,0.0,0.0,0.0,0.0,0.0,0.0,0.0,0.0,0.0,0.0,0.0,0.0,0.0,0.0,0.0,0.0,0.0,0.0,0.0,0.0,0.0,0.0,0.0,0.0,0.0,0.0,0.0,0.0,0.0,0.0,0.0,0.0,0.0,0.0,0.0,0.0,0.0,0.0,0.0,0.0,0.0,0.0,0.0,0.0,0.0,0.0,0.0,0.0,0.0,0.0,0.0,0.0,0.0,0.0,0.0,0.0,0.0,0.0,0.0,0.0,0.0,0.0,0.0,0.0,0.0,0.0,0.0,0.0,0.0,0.0,0.0,0.0,0.0,0.0,0.0,0.0,0.0,0.0,0.0,0.0,0.0,0.0,0.0,0.0,0.0,0.0,0.0,0.0,0.0,0.0,0.0,0.0,0.0,0.0,0.0,0.0,0.0,0.0,0.0,0.0,0.0,0.0,0.0,0.0,0.0,0.0,0.0,0.0,0.0,0.0,0.0,0.0,0.0,0.0,0.0,0.0,0.0,0.0,0.0,0.0,0.0,0.0,0.0,0.0,0.0,0.0,0.0,0.0,0.0,0.0,0.0,0.0,0.0,0.0,0.0,0.0,0.0,0.0,0.0,0.0,0.0,0.0,0.0,0.0,0.0,0.0,0.0,0.0,0.0,0.0,0.0,0.0,0.0,0.0,0.0,0.0,0.0,0.0,0.0,0.0,0.0,0.0,0.0,0.0,0.0,0.0,0.0,0.0,0.0,0.0,0.0,0.0,0.0,0.0,0.0,0.0,0.0,0.0,0.0,0.0,0.0,0.0,0.0,0.0,0.0,0.0,0.0,0.0,0.0,0.0,0.0,0.0,0.0,0.0,0.0,0.0,0.0,0.0,0.0,0.0,0.0,0.0,0.0,0.0,0.0,0.0,0.0,0.0,0.0,0.0,0.0,0.0,0.0,0.0,0.0,0.0,0.0,0.0,0.0,0.0,0.0,0.0,0.0,0.0,0.0,0.0,0.0,0.0,0.0,0.0,0.0,0.0,0.0,0.0,0.0,0.0,0.0,0.0,0.0,0.0,0.0,0.0,0.0,0.0,0.0,0.0,0.0,0.0,0.0,0.0,0.0,0.0,0.0,0.0,0.0,0.0,0.0,0.0,0.0,0.0,0.0,0.0,0.0,0.0,0.0,0.0,0.0,0.0,0.0,0.0,0.0,0.0,0.0,0.0,0.0,0.0,0.0,0.0,0.0,0.0,0.0,0.0,0.0,0.0,0.0,0.0,0.0,0.0,0.0,0.0,0.0,0.0,0.0,0.0,0.0,0.0,0.0,0.0,0.0,0.0,0.0,0.0,0.0,0.0,0.0,0.0,0.0,0.0,0.0,0.0,0.0,0.0,0.0,0.0,0.0,0.0,0.0,0.0,0.0,0.0,0.0,0.0,0.0,0.0,0.0,0.0,0.0,0.0,0.0,0.0,0.0,0.0,0.0,0.0,0.0,0.0,0.0,0.0,0.0,0.0,0.0,0.0,0.0,0.0,0.0,0.0,0.0,0.0,0.0,0.0,0.0,0.0,0.0,0.0,0.0,0.0,0.0,0.0,0.0,0.0,0.0,0.0,0.0,0.0,0.0,0.0,0.0,0.0,0.0,0.0,0.0,0.0,0.0,0.0,0.0,0.0,0.0,0.0,0.0,0.0,0.0,0.0,0.0,0.0,0.0,0.0,0.0,0.0,0.0,0.0,0.0,0.0,0.0,0.0,0.7054,0.6766,0.0,0.0,0.0,0.0,0.0,0.0,0.0,0.0,0.0,0.0,0.0,0.0,0.0,0.0,0.0,0.0,0.0,0.0,0.0,0.0,0.0,0.0,0.0,0.0,0.0,0.0,0.0,0.0,0.0,0.0,0.0,0.0,0.0,0.0,0.0,0.0,0.0,-0.2731,-0.2963,-0.3187,-0.3418,-0.3103,-0.2673,-0.2172,0.0,0.0,0.0,0.0,0.0,0.0,0.0,0.0,0.0,0.0,0.0,0.0,0.0,0.0,0.0,0.0,0.0,0.0,0.0,0.0,0.0,0.0,0.0,0.0,0.0,0.0,0.0,0.0,0.0,0.0,0.0,0.0,0.0,0.0,0.0,0.0,0.0,0.0,0.0,0.0,0.0,0.0,0.0,0.0,0.0,0.0,0.0,0.0,0.0,0.0,0.0,0.0,0.0,0.0,0.0,0.0,0.0,0.0,0.0,0.0,0.0,0.0,0.0,0.0,0.0,0.0,0.0,0.0,0.0,0.0,0.7596,0.7433,0.0,0.0,0.0,0.0,0.0,0.0,0.0,0.0,0.0,0.0,0.0,0.0,0.0,0.0,0.0,0.0,0.0,0.0,0.0,0.0,0.0,0.0,0.0,-0.3864,-0.3752,-0.3656,-0.3553,-0.3422,-0.3257,0.0,0.0,0.0,0.0,0.0,-0.2546,-0.2879,-0.3199,-0.3475,-0.3924,-0.4272,-0.451,-0.4581,-0.415,-0.3321,-0.2863,0.0,0.0,0.0,0.0,0.0,0.0,0.0,0.0,0.0,0.0,0.0,0.0,0.0,0.0,0.0,0.0,0.0,0.0,0.0,0.0,0.0,0.0,0.0,0.0,0.0,0.0,0.0,0.0,0.0,0.0,0.0,0.0,0.0,0.0,0.0,0.0,0.0,0.0,0.0,0.0,0.0,0.0,0.0,0.0,0.0,0.0,0.0,0.0,0.0,0.0,0.0,0.0,0.0,0.0,0.0,0.0,0.0,0.0,0.0,0.0,0.0,0.0,0.0,0.6636,0.7047,0.7233,0.7869,0.823,0.8396,0.8115,0.8142,0.8341,0.7509,0.0,0.0,0.0,0.0,0.0,0.0,0.0,0.0,0.0,0.0,0.0,0.0,0.0,0.0,0.0,0.0,0.0,0.0,0.0,-0.4056,-0.422,-0.4181,-0.4266,-0.4587,-0.4394,-0.4243,-0.4224,0.0,0.0,0.0,0.0,0.0,-0.3096,-0.348,-0.3842,-0.4166,-0.5093,-0.5616,-0.5766,-0.606,-0.5953,-0.5433,-0.3941,-0.3203,-0.3021,0.0,0.0,0.0,0.0,0.0,0.0,0.0,0.0,0.0,0.0,0.0,0.0,0.0,0.0,0.0,0.0,0.0,0.0,0.0,0.0,0.0,0.0,0.0,0.0,0.0,0.0,0.0,0.0,0.0,0.0,0.0,0.0,0.0,0.0,0.0,0.0,0.0,0.0,0.0,0.0,0.0,0.292,0.2907,0.0,0.0,0.0,0.0,0.0,0.0,0.0,0.0,0.0,0.0,0.0,0.0,0.0,0.4481,0.4908,0.5485,0.5918,0.6193,0.6779,0.7152,0.7306,0.8038,0.8376,0.8408,0.8655,0.0,0.8375,0.8006,0.0,0.0,0.0,0.0,0.0,0.0,0.0,0.0,0.0,0.0,0.0,0.0,0.0,0.0,0.0,0.0,0.0,0.0,0.0,0.0,0.0,-0.476,-0.5004,-0.5327,-0.5255,-0.5124,-0.4973,-0.4587,0.0,0.0,0.0,-0.3733,-0.3598,-0.42,-0.4947,-0.5819,-0.6449,-0.6842,-0.7014,-0.7172,-0.7068,-0.6759,-0.5839,-0.4969,-0.4171,-0.3512,0.0,0.0,0.0,0.0,0.0,0.0,0.0,0.0,0.0,0.0,0.0,0.0,0.0,0.0,0.0,0.0,0.0,0.0,0.0,0.0,0.0,0.0,0.0,0.0,0.0,0.0,0.0,0.0,0.0,0.0,0.0,0.0,0.0,0.0,0.0,0.0,0.0,0.0,0.0,0.2343,0.2477,0.2399,0.2413,0.2359,0.0,0.0,0.0,0.0,0.0,0.0,0.0,0.0,0.0,0.408,0.4158,0.4423,0.489,0.5322,0.5704,0.6037,0.6537,0.6874,0.7087,0.7692,0.8035,0.8213,0.8639,0.8714,0.8501,0.8226,0.8043,0.7888,0.0,0.0,0.0,0.0,0.8216,0.8679,0.0,0.0,0.0,0.0,0.0,0.0,0.0,0.0,0.0,0.0,0.0,0.0,-0.5071,-0.5459,-0.5863,-0.6228,-0.6183,-0.6043,-0.5843,-0.5449,-0.4924,-0.4313,-0.4499,-0.4519,-0.4318,-0.5185,-0.6208,-0.736,-0.771,-0.8009,-0.8259,-0.8232,-0.8122,-0.7893,-0.7543,-0.6638,-0.5315,-0.4553,-0.4061,-0.3745,0.0,0.0,0.0,0.0,0.0,0.0,0.0,0.0,0.0,0.0,0.0,0.0,0.0,0.0,0.0,0.0,0.0,0.0,0.0,0.0,0.0,0.0,0.0,0.0,0.0,0.0,0.0,0.0,0.0,0.0,0.0,0.0,0.0,0.0,0.0,0.0,0.0,0.1799,0.1877,0.179,0.1788,0.177,0.0,0.0,0.0,0.0,0.0,0.0,0.3251,0.3422,0.3575,0.3768,0.3918,0.4204,0.4644,0.5002,0.5328,0.5685,0.6128,0.6447,0.6696,0.7206,0.7603,0.79,0.8308,0.8454,0.8434,0.8322,0.826,0.8201,0.7964,0.7954,0.8092,0.8399,0.8825,0.9308,0.0,0.0,0.0,0.0,0.0,0.0,0.0,0.0,0.0,0.0,0.0,-0.522,-0.5867,-0.63,-0.6797,-0.7451,-0.7215,-0.7024,-0.7014,-0.6401,-0.5826,-0.5341,-0.5213,-0.5246,-0.5418,-0.6523,-0.7505,-0.8325,-0.8722,-0.9125,-0.9504,-0.944,-0.9263,-0.8992,-0.8602,-0.7651,-0.6287,-0.5672,-0.5016,-0.4306,-0.3757,0.0,0.0,0.0,0.0,0.0,0.0,0.0,0.0,0.0,0.0,0.0,0.0,0.0,0.0,0.0,0.0,0.0,0.0,0.0,0.0,0.0,0.0,0.0,0.0,0.0,0.0,0.0,0.0,0.0,0.0,0.0,0.0,0.0,0.0,0.0,0.0,0.0,0.0,0.115,0.1196,0.0,0.0,0.0,0.0,0.2099,0.2233,0.2422,0.2635,0.2835,0.2999,0.314,0.3511,0.3793,0.3953,0.4536,0.4914,0.5053,0.5654,0.5959,0.608,0.672,0.7214,0.7528,0.755,0.7747,0.8044,0.8346,0.8524,0.8513,0.8012,0.8183,0.8736,0.856,0.8987,0.9674,0.0,0.0,0.0,0.0,0.0,0.0,-0.4144,-0.4272,-0.4479,-0.482,-0.5318,-0.5911,-0.6622,-0.738,-0.8035,-0.8574,-0.852,-0.8323,-0.8011,-0.7291,-0.6665,-0.6192,-0.6038,-0.6272,-0.69,-0.7865,-0.8628,-0.9166,-0.9584,-0.9908,-1.0178,-1.0123,-1.0033,-0.9928,-0.9503,-0.8959,-0.8234,-0.6898,-0.6044,-0.5492,-0.4734,-0.4021,0.0,0.0,0.0,0.0,0.0,0.0,0.0,0.0,0.0,0.0,0.0,0.0,0.0,0.0,0.0,0.0,0.0,0.0,0.0,0.0,0.0,0.0,0.0,0.0,0.0,0.0,0.0,0.0,0.0,0.0,0.0,0.0,0.0,0.0,0.0,0.0,0.0,0.0262,0.0432,0.0,0.0628,0.0843,0.1092,0.1375,0.1525,0.1672,0.1883,0.2032,0.2246,0.2525,0.2707,0.3,0.3443,0.3876,0.4235,0.449,0.4929,0.5235,0.5442,0.5877,0.6257,0.655,0.6994,0.7239,0.739,0.7807,0.7994,0.8015,0.8098,0.8264,0.853,0.8933,0.9276,0.9543,0.0,0.0,0.0,0.0,0.0,0.0,-0.4302,-0.4475,-0.4718,-0.5058,-0.5771,-0.6555,-0.7382,-0.8317,-0.9034,-0.9393,-0.9443,-0.9217,-0.8667,-0.8046,-0.7458,-0.6892,-0.6956,-0.74,-0.825,-0.9052,-0.9663,-1.0069,-1.0485,-1.0729,-1.0846,-1.0767,-1.0731,-1.0722,-1.0375,-1.0,-0.9549,-0.8314,-0.7302,-0.6509,-0.5714,-0.4985,-0.4291,0.0,0.0,0.0,0.0,0.0,0.0,0.0,0.0,0.0,0.0,0.0,0.0,0.0,0.0,0.0,0.0,0.0,0.0,0.0,0.0,0.0,0.0,0.0,0.0,0.0,0.0,0.0,0.0,0.0,0.0,0.0,0.0,0.0,0.0,-0.0392,-0.0444,-0.0432,-0.0273,-0.0151,-0.0075,0.0126,0.036,0.0607,0.081,0.0992,0.1121,0.1318,0.154,0.1754,0.1919,0.226,0.2781,0.3141,0.3468,0.3796,0.4127,0.4425,0.4694,0.5048,0.5409,0.5826,0.635,0.6631,0.6769,0.7154,0.7287,0.7354,0.7911,0.8185,0.832,0.8779,0.9035,0.9231,0.0,0.0,0.0,0.0,0.0,0.0,-0.4302,-0.4485,-0.4782,-0.5265,-0.6135,-0.7103,-0.8121,-0.9068,-0.9709,-0.9908,-0.9919,-0.9647,-0.8971,-0.8667,-0.8195,-0.748,-0.797,-0.8631,-0.9418,-1.009,-1.0633,-1.1033,-1.1442,-1.1593,-1.1529,-1.1471,-1.1425,-1.1408,-1.1123,-1.068,-1.0118,-0.9846,-0.8808,-0.7325,-0.6677,-0.6028,-0.5325,0.0,0.0,0.0,0.0,0.0,0.0,0.0,0.0,0.0,0.0,0.0,0.0,0.0,0.0,0.0,0.0,0.0,0.0,0.0,0.0,0.0,0.0,0.0,0.0,0.0,0.0,0.0,0.0,0.0,0.0,0.0,0.0,0.0,-0.0962,-0.0915,-0.095,-0.096,-0.0953,-0.0862,-0.0684,-0.063,-0.05,-0.0172,0.0173,0.0348,0.0354,0.0679,0.0862,0.0875,0.1177,0.155,0.1973,0.2313,0.2623,0.2962,0.3306,0.3614,0.3887,0.4225,0.4718,0.536,0.5581,0.5842,0.6163,0.6396,0.6471,0.656,0.7437,0.794,0.815,0.8037,0.8288,0.873,0.0,0.0,0.0,0.0,0.0,-0.4188,-0.4285,-0.4633,-0.5103,-0.5728,-0.6616,-0.7648,-0.8797,-0.9644,-1.0186,-1.0403,-1.0413,-1.0123,-0.945,-0.9152,-0.8909,-0.8715,-0.9357,-0.9886,-1.0254,-1.0979,-1.1466,-1.1726,-1.1983,-1.2093,-1.207,-1.2051,-1.1925,-1.1683,-1.1408,-1.1189,-1.1014,-1.0553,-0.9846,-0.8918,-0.7702,-0.6859,-0.6276,0.0,0.0,0.0,0.0,0.0,0.0,0.0,0.0,0.0,0.0,0.0,0.0,0.0,0.0,0.0,0.0,0.0,0.0,0.0,0.0,0.0,0.0,0.0,0.0,0.0,0.0,0.0,0.0,0.0,0.0,0.0,-0.2839,-0.278,-0.2113,-0.2133,-0.2234,-0.2283,-0.2099,-0.1952,-0.1902,-0.1501,-0.1223,-0.1129,-0.0804,-0.0629,-0.0609,-0.0518,-0.0244,0.0245,0.0337,0.0676,0.1266,0.1622,0.1943,0.2289,0.2599,0.2963,0.3345,0.3621,0.3977,0.4412,0.4653,0.496,0.5296,0.5851,0.6055,0.6155,0.6918,0.7275,0.739,0.7783,0.8164,0.8486,0.0,0.0,0.0,0.0,0.0,-0.414,-0.4285,-0.4696,-0.5242,-0.5921,-0.6918,-0.798,-0.9087,-0.9852,-1.0347,-1.0456,-1.037,-1.0102,-0.9633,-0.9461,-0.9453,-0.9647,-1.025,-1.0791,-1.1218,-1.1844,-1.2188,-1.2284,-1.2613,-1.2709,-1.2581,-1.2565,-1.2456,-1.2236,-1.1945,-1.1714,-1.1509,-1.1194,-1.0681,-0.9995,-0.901,-0.8049,-0.7105,-0.6634,-0.5983,-0.5274,-0.5111,-0.4603,-0.3972,-0.3671,0.0,0.0,0.0,0.0,0.0,0.0,0.0,0.0,0.0,0.0,0.0,0.0,0.0,0.0,0.0,0.0,0.0,0.0,0.0,0.0,0.0,0.0,0.0,0.0,-0.3647,-0.373,-0.3495,-0.3283,-0.3139,-0.3068,-0.2926,-0.2771,-0.2669,-0.2356,-0.2163,-0.2182,-0.1732,-0.1464,-0.1446,-0.1195,-0.0849,-0.0472,-0.0472,-0.0126,0.0566,0.0761,0.1114,0.1591,0.1767,0.2128,0.2644,0.2811,0.315,0.3626,0.391,0.4241,0.4618,0.5115,0.5381,0.5613,0.0,0.0,0.0,0.0,0.7513,0.781,0.0,0.0,0.0,0.0,0.0,-0.4132,-0.4261,-0.4687,-0.5242,-0.5921,-0.7018,-0.8118,-0.9066,-0.9798,-1.0218,-1.0218,-1.0013,-0.9809,-0.9644,-0.9652,-0.9908,-1.0449,-1.0873,-1.1467,-1.2205,-1.2613,-1.2833,-1.2828,-1.3247,-1.3325,-1.3091,-1.3035,-1.2962,-1.2935,-1.2609,-1.2234,-1.1825,-1.1745,-1.1336,-1.0715,-1.0402,-0.9366,-0.794,-0.7481,-0.6982,-0.6505,-0.6137,-0.5621,-0.5075,-0.4769,0.0,0.0,0.0,0.0,0.0,0.0,0.0,0.0,0.0,0.0,0.0,0.0,0.0,0.0,0.0,0.0,0.0,0.0,0.0,0.0,0.0,0.0,0.0,0.0,-0.4488,-0.475,-0.4998,-0.4545,-0.4059,-0.3655,-0.361,-0.3511,-0.3282,-0.3233,-0.3228,-0.3228,-0.2593,-0.2225,-0.2225,-0.1645,0.0,0.0,0.0,-0.087,-0.0129,-0.0129,0.0226,0.0873,0.0874,0.1231,0.1912,0.1877,0.2296,0.3006,0.3226,0.3576,0.3991,0.4282,0.4599,0.5046,0.6098,0.6545,0.6596,0.6473,0.6671,0.6994,0.0,0.0,0.0,0.0,0.0,-0.4042,-0.4123,-0.4636,-0.5242,-0.5921,-0.6865,-0.7851,-0.8846,-0.9418,-0.973,-0.973,-0.9687,-0.9701,-0.9822,-1.0039,-1.0551,-1.1385,-1.1662,-1.2146,-1.2896,-1.2997,-1.3218,-1.3581,-1.3666,-1.3683,-1.3551,-1.3538,-1.3423,-1.3207,-1.2935,-1.2753,-1.2633,-1.2136,-1.1783,-1.1442,-1.0964,-1.0129,-0.9136,-0.8717,-0.8101,-0.7416,-0.724,-0.6627,-0.5868,-0.5683,-0.5153,-0.4484,-0.4082,-0.365,0.0,0.0,0.0,0.0,0.0,0.0,0.0,0.0,0.0,0.0,0.0,0.0,0.0,0.0,0.0,0.0,0.0,0.0,0.0,-0.5725,-0.6092,-0.6373,-0.6484,-0.6562,-0.616,-0.4908,-0.4832,-0.4839,-0.4792,-0.4293,-0.3981,-0.3981,-0.3316,-0.2904,-0.2904,-0.2775,-0.2451,-0.1935,-0.1903,-0.1579,-0.0903,-0.0881,-0.0525,0.0197,0.0199,0.0,0.1268,0.122,0.1608,0.2296,0.2302,0.2676,0.3318,0.3585,0.4006,0.458,0.5046,0.5586,0.6041,0.6024,0.6411,0.6927,0.0,0.0,0.0,0.0,0.0,-0.3985,-0.4093,-0.4468,-0.501,-0.575,-0.6554,-0.738,-0.8252,-0.877,-0.9044,-0.9044,-0.926,-0.9497,-0.9733,-1.0448,-1.1167,-1.1881,-1.2226,-1.268,-1.3289,-1.3293,-1.347,-1.3788,-1.3917,-1.3992,-1.3948,-1.3775,-1.364,-1.3478,-1.3071,-1.2908,-1.2881,-1.2391,-1.2054,-1.1837,-1.1567,-1.1095,-1.0468,-0.9664,-0.8919,-0.8283,-0.8067,-0.7467,-0.6723,-0.643,-0.595,-0.5381,-0.4966,-0.4557,-0.4105,0.0,0.0,0.0,0.0,0.0,0.0,0.0,0.0,0.0,0.0,0.0,0.0,0.0,0.0,-0.5122,-0.5528,0.0,-0.6078,-0.6454,-0.671,-0.6905,-0.7063,-0.7252,-0.6924,-0.5775,-0.5674,-0.5572,-0.5219,-0.493,-0.4757,-0.4757,-0.4101,-0.3692,-0.3692,-0.336,-0.2998,-0.2667,-0.2634,-0.234,-0.1648,-0.1659,-0.1265,-0.0566,-0.0537,-0.0168,0.0538,0.0501,0.0899,0.1598,0.1554,0.1977,0.2698,0.3121,0.3447,0.374,0.4083,0.4687,0.5394,0.5394,0.5609,0.5886,0.0,0.0,0.0,0.0,0.0,-0.3945,-0.4042,-0.4313,-0.4752,-0.5438,-0.6135,-0.6811,-0.7462,-0.7946,-0.8243,-0.8286,-0.8758,-0.9217,-0.9579,-1.0724,-1.1645,-1.2215,-1.2605,-1.306,-1.3618,-1.3551,-1.362,-1.389,-1.4094,-1.4191,-1.4191,-1.3921,-1.3802,-1.3786,-1.3288,-1.3071,-1.3017,-1.2663,-1.2355,-1.2164,-1.2055,-1.1864,-1.1556,-1.0498,-0.9705,-0.9114,-0.8718,-0.8153,-0.7524,-0.7121,-0.6645,-0.6155,-0.5784,-0.5359,-0.4908,-0.4403,-0.4064,0.0,0.0,0.0,0.0,0.0,0.0,0.0,0.0,-0.4852,-0.5074,-0.5508,-0.5694,-0.5881,-0.6287,-0.6506,-0.6776,-0.7154,-0.7307,-0.7432,-0.7596,-0.7689,-0.743,-0.6664,-0.6494,-0.6203,-0.5616,-0.5548,-0.5485,-0.5419,-0.4845,-0.451,-0.451,-0.3869,-0.3497,-0.343,-0.3362,-0.3028,-0.2389,-0.2322,-0.1952,-0.1313,-0.1245,-0.0842,-0.0202,-0.0202,0.0202,0.0909,0.1043,0.1445,0.2008,0.265,0.2855,0.2837,0.3238,0.3867,0.4564,0.4749,0.4841,0.4902,0.0,0.0,0.0,0.0,0.0,0.0,-0.3918,-0.4243,-0.4589,-0.4872,-0.5588,-0.6201,-0.6514,-0.698,-0.7332,-0.7505,-0.8163,-0.8872,-0.9558,-1.0673,-1.1734,-1.2689,-1.2764,-1.321,-1.4092,-1.3715,-1.3722,-1.4148,-1.418,-1.4191,-1.4191,-1.4164,-1.4137,-1.4137,-1.3786,-1.3613,-1.3586,-1.3071,-1.2827,-1.2745,-1.2219,-1.1973,-1.1901,-1.1335,-1.0677,-0.9961,-0.9215,-0.8625,-0.815,-0.7797,-0.7225,-0.6579,-0.6302,-0.5847,-0.5347,-0.4941,-0.4779,-0.4719,-0.4579,-0.4713,-0.494,-0.5219,-0.5486,-0.5803,0.0,-0.6498,-0.6755,-0.7222,-0.7386,-0.7551,-0.7945,-0.8137,-0.833,-0.863,-0.8857,-0.8971,-0.8762,-0.8821,-0.8662,-0.7954,-0.7588,-0.7222,-0.6818,-0.6531,-0.6205,-0.5867,-0.5476,-0.5279,-0.5279,-0.4876,-0.4473,-0.4174,-0.3902,-0.3533,-0.3094,-0.2793,-0.2458,-0.2087,-0.1717,-0.1346,-0.0976,-0.0976,-0.0572,0.0168,0.0808,0.1103,0.1189,0.1909,0.2168,0.2175,0.2803,0.3122,0.3299,0.4161,0.4656,0.4902,0.0,0.0,0.0,0.0,0.0,0.0,0.0,-0.4039,-0.424,-0.4482,-0.494,-0.5366,-0.5673,-0.6145,-0.6609,-0.6959,-0.7673,-0.8463,-0.9303,-1.0465,-1.1501,-1.235,-1.265,-1.3184,-1.4021,-1.3685,-1.3743,-1.4191,-1.4191,-1.4191,-1.4191,-1.4191,-1.4191,-1.4191,-1.3867,-1.3694,-1.3667,-1.3288,-1.3044,-1.2881,-1.2636,-1.2343,-1.1987,-1.1412,-1.0866,-1.0259,-0.951,-0.88,0.0,-0.776,-0.736,-0.7011,-0.6822,-0.6489,-0.6089,-0.5842,-0.5641,-0.5498,-0.556,-0.5733,-0.597,-0.6156,-0.6329,-0.6575,-0.6926,-0.7186,-0.7477,-0.781,-0.7983,-0.8152,-0.8479,-0.8583,-0.8683,-0.8928,-0.9161,-0.9268,-0.9207,-0.9077,-0.8881,-0.8585,-0.8261,-0.7824,-0.735,-0.6987,-0.6719,-0.6548,-0.6012,-0.5681,-0.5681,-0.5346,-0.5077,-0.4946,-0.4574,-0.4205,-0.3835,-0.3499,-0.3163,-0.2793,-0.2423,-0.2053,-0.1717,-0.1515,-0.0976,-0.0269,0.0236,0.057,0.0734,0.1256,0.144,0.1488,0.2148,0.242,0.2527,0.3291,0.3669,0.3794,0.0,0.0,0.0,0.0,0.0,0.0,0.0,0.0,0.0,0.0,-0.4428,-0.4707,-0.5032,-0.5408,-0.5843,-0.6323,-0.7041,-0.7905,-0.893,-1.0141,-1.1153,-1.1959,-1.2446,-1.2997,-1.3654,-1.3493,-1.3577,-1.3997,-1.3997,-1.4029,-1.4094,-1.4094,-1.4126,-1.4191,-1.3948,-1.384,-1.3829,-1.347,-1.3224,-1.3026,-1.2805,-1.2445,-1.1978,-1.1309,-1.0708,-1.0166,-0.9429,-0.8779,-0.815,-0.7603,-0.7313,-0.7173,-0.7001,-0.6753,-0.6504,-0.6423,-0.6284,-0.6216,-0.6423,-0.6713,-0.7011,-0.721,-0.7382,-0.7601,-0.7928,-0.8157,-0.8393,-0.866,-0.8776,-0.8897,-0.9018,-0.9063,-0.9099,-0.9262,-0.9387,-0.95,-0.9477,-0.9269,-0.9074,-0.8977,-0.8719,-0.835,-0.7939,-0.7541,-0.7221,-0.702,-0.6514,-0.6146,-0.6083,-0.5714,-0.5547,-0.5547,-0.5178,-0.4842,-0.461,-0.4171,-0.3801,-0.3499,-0.3062,-0.2726,-0.2457,-0.1986,-0.1414,-0.0774,-0.0438,-0.0168,0.0101,0.0532,0.0727,0.079,0.1466,0.1715,0.1769,0.2267,0.2678,0.301,0.0,0.0,0.0,0.0,0.0,0.0,0.0,0.0,0.0,0.0,0.0,-0.4418,-0.4688,-0.4739,-0.4952,-0.5491,-0.622,-0.7171,-0.8436,-0.9647,-1.0737,-1.167,-1.2164,-1.2652,-1.312,-1.313,-1.3243,-1.3528,-1.3528,-1.362,-1.3809,-1.3809,-1.3965,-1.4191,-1.4191,-1.4191,-1.4153,-1.3614,-1.3377,-1.3304,-1.2541,-1.2102,-1.1843,-1.1172,-1.0366,-0.9537,-0.8875,-0.8489,-0.8184,-0.745,-0.7085,-0.6878,-0.6672,-0.6467,-0.6326,-0.638,-0.6622,-0.6918,-0.711,-0.7636,-0.8215,-0.8553,-0.8835,-0.9183,-0.9702,-0.9821,-0.9898,-1.019,-1.0235,-1.0171,-0.9992,-0.9961,-0.997,-0.9967,-0.9959,-0.9919,-0.971,-0.9697,-0.9538,-0.922,-0.9019,-0.8873,-0.8846,-0.8392,-0.7755,-0.7054,-0.6982,-0.6819,-0.6489,-0.6116,-0.5878,-0.5878,-0.5547,-0.5379,-0.5379,-0.4644,-0.4274,-0.4274,-0.3533,-0.3194,-0.3161,-0.249,-0.1952,-0.1548,-0.1212,-0.1077,-0.101,-0.0269,0.0033,0.0099,0.0758,0.1044,0.1031,0.1063,0.1883,0.299,0.0,0.0,0.0,0.0,0.0,0.0,0.0,0.0,0.0,0.0,0.0,0.0,0.0,0.0,0.0,0.0,-0.5795,-0.6623,-0.7649,-0.8625,-0.9566,-1.0456,-1.0949,-1.1586,-1.2414,-1.2431,-1.2621,-1.3031,-1.3182,-1.3276,-1.3351,-1.3513,-1.3642,-1.3743,-1.3743,-1.3743,-1.3706,-1.3346,-1.3097,-1.2862,-1.2167,-1.1608,-1.1161,-1.034,-0.9613,-0.8904,0.0,-0.78,-0.7643,-0.7163,-0.7043,-0.7092,-0.7016,-0.6956,-0.6954,-0.7248,-0.7796,-0.8321,-0.8489,-0.8825,-0.9171,-0.9324,-0.9398,-0.95,-0.9776,-0.9906,-0.9982,-1.0065,-1.0087,-1.011,-1.0179,-1.0098,-0.999,-1.0007,-1.0109,-1.0135,-0.9913,-0.9745,-0.9626,-0.9589,-0.9352,-0.9194,-0.9284,-0.8585,-0.7989,-0.7755,-0.7488,-0.7187,-0.6853,-0.6715,-0.6514,-0.6317,-0.5915,-0.5744,-0.5744,-0.5279,-0.491,-0.4607,-0.3936,-0.3463,-0.3194,-0.2959,-0.2558,-0.1986,-0.1885,-0.1548,-0.1077,-0.0842,-0.0738,-0.0668,0.0067,0.0333,0.0398,0.0821,0.1272,0.1715,0.0,0.0,0.0,0.0,0.0,0.0,0.0,0.0,0.0,0.0,0.0,0.0,0.0,0.0,0.0,0.0,0.0,-0.5963,-0.682,-0.7684,-0.8529,-0.9326,-0.9944,-1.0601,-1.1337,-1.1499,-1.1758,-1.2147,-1.2298,-1.2436,-1.2608,-1.2794,-1.2913,-1.2999,-1.306,-1.3074,-1.2977,-1.2816,-1.2587,-1.2289,-1.1595,-1.0967,-1.0386,-0.9597,-0.8818,0.0,-0.7383,-0.7064,-0.6938,-0.6743,-0.6814,-0.6996,-0.7066,-0.7294,-0.7583,-0.7936,-0.8599,-0.9275,-0.9503,-0.9815,-1.0146,-1.0237,-1.0201,-1.0186,-1.0339,-1.0305,-1.0237,-1.0148,-1.0095,-1.0079,-1.0075,-1.0032,-0.9989,-1.0084,-1.0152,-1.0179,-1.0174,-0.9928,-0.9794,-0.997,-0.971,-0.9581,-0.9675,-0.9081,-0.8556,-0.8289,-0.7927,-0.7574,-0.7271,-0.7237,-0.7121,-0.6787,-0.6545,-0.6341,-0.6172,-0.584,-0.5373,-0.4806,-0.437,-0.3902,-0.343,-0.343,-0.3094,-0.2558,-0.2423,-0.212,-0.1649,-0.138,-0.1279,-0.1212,-0.064,-0.0404,-0.0336,0.0266,0.0465,0.0562,0.0,0.0,0.0,0.0,0.0,0.0,0.0,0.0,0.0,0.0,0.0,0.0,0.0,0.0,0.0,0.0,0.0,0.0,-0.6,-0.6832,-0.7604,-0.8283,-0.9119,-0.9692,-0.9904,-1.0284,-1.0619,-1.0896,-1.0907,-1.1155,-1.1607,-1.1618,-1.178,-1.2029,-1.2221,-1.2188,-1.2019,-1.2008,-1.1845,-1.1542,-1.0805,-1.0161,-0.9552,-0.8866,-0.802,-0.7106,-0.6643,-0.6365,-0.6206,-0.6271,-0.6463,-0.6698,-0.6917,-0.7522,-0.8211,-0.8502,-0.9108,-0.9748,-1.0147,-1.0646,-1.108,-1.1283,-1.1216,-1.116,-1.1318,-1.1015,-1.0634,-1.0401,-1.0241,-1.0059,-0.973,-0.9791,-0.9961,-1.0239,-1.012,-1.0105,-1.0424,-1.0201,-1.0076,-1.0301,-1.0154,-1.0045,-1.0026,-0.9858,-0.944,-0.8739,-0.8367,-0.8045,-0.7747,-0.7752,-0.7628,-0.7348,-0.7313,-0.7144,-0.6725,-0.6325,-0.5699,-0.4885,-0.4852,-0.4515,-0.3876,-0.3876,-0.364,-0.3232,-0.2898,-0.2763,-0.266,-0.1952,-0.1649,-0.1616,-0.1279,-0.1111,-0.1077,-0.0673,-0.0539,-0.0402,0.0,0.0,0.0,0.0,0.0,0.0,0.0,0.0,0.0,0.0,0.0,0.0,0.0,0.0,0.0,0.0,0.0,0.0,-0.5305,-0.5844,-0.6431,-0.7104,-0.7685,-0.818,-0.8572,-0.8834,-0.9091,-0.9366,-0.9654,-0.9944,-1.0232,-1.0533,-1.0778,-1.0972,-1.1037,-1.1037,-1.0962,-1.081,-1.0595,-1.0297,-0.9608,-0.9021,-0.8507,-0.7787,-0.7189,-0.6703,-0.6333,-0.6237,-0.6266,-0.6234,-0.6785,-0.7576,-0.8078,-0.8598,-0.9108,-0.9671,-1.0184,-1.0644,-1.1,-1.1295,-1.1522,-1.1531,-1.1405,-1.1209,-1.1045,-1.0701,-1.0287,-0.9893,-0.9583,-0.9405,-0.9461,-0.9501,-0.9624,-0.9958,-1.0003,-1.0084,-1.0308,-1.0163,-1.0116,-1.0405,-1.0408,-1.0451,-1.0645,-1.0389,-1.0183,-1.0113,-0.9415,-0.8774,-0.8233,-0.8203,-0.808,-0.7766,-0.7731,-0.7557,-0.7144,-0.6488,-0.6052,-0.5822,-0.5543,-0.5162,-0.4785,-0.4785,-0.438,-0.3725,-0.3623,-0.3397,-0.3028,-0.2591,-0.2425,-0.2357,-0.1717,-0.1481,-0.1414,-0.1077,-0.0943,-0.0906,0.0,0.0,0.0,0.0,0.0,0.0,0.0,0.0,0.0,0.0,0.0,0.0,0.0,0.0,0.0,0.0,0.0,0.0,0.0,-0.4898,-0.5412,-0.6011,-0.6435,-0.6889,-0.7386,-0.7568,-0.7782,-0.8049,-0.8277,-0.8514,-0.8744,-0.8967,-0.9129,-0.9239,-0.9432,-0.9482,-0.946,-0.9428,-0.9314,0.0,0.0,-0.7965,-0.749,-0.6945,-0.645,-0.6018,-0.5888,-0.616,-0.6652,-0.7003,-0.7606,-0.8278,-0.8807,-0.9384,-0.996,-1.0437,-1.0905,-1.1372,-1.1634,-1.185,-1.1998,-1.1946,-1.1693,-1.1398,-1.1177,-1.0638,-1.0058,-0.9534,-0.9059,-0.8791,-0.889,-0.9035,-0.9308,-0.982,-1.0085,-1.0321,-1.0579,-1.0457,-1.0422,-1.0555,-1.0649,-1.0725,-1.0901,-1.0798,-1.0719,-1.0696,-0.9883,-0.9279,-0.8984,-0.8814,-0.856,-0.8252,-0.8257,-0.795,-0.7345,-0.6923,-0.6551,-0.6197,-0.5988,-0.567,-0.5324,-0.5324,-0.4988,-0.4401,-0.4226,-0.392,-0.3462,-0.3125,-0.2944,-0.286,-0.2289,-0.2087,-0.2019,-0.1515,-0.1313,-0.1311,0.0,0.0,0.0,0.0,0.0,0.0,0.0,0.0,0.0,0.0,-0.2466,0.0,0.0,0.0,0.0,0.0,0.0,0.0,0.0,0.0,-0.4503,-0.5017,-0.5358,-0.574,-0.6207,-0.6411,-0.6612,-0.6852,-0.6896,-0.7061,-0.733,-0.7345,-0.737,-0.7411,-0.7768,-0.7876,-0.7849,-0.8007,-0.8032,-0.7925,-0.7458,-0.6987,-0.653,0.0,-0.5817,-0.5323,-0.5506,-0.6192,-0.7128,-0.8007,-0.8563,-0.8951,-0.9418,-1.0136,-1.0824,-1.1053,-1.1494,-1.1943,-1.2126,-1.2305,-1.2409,-1.2409,-1.2033,-1.1598,-1.1335,-1.0609,-0.9815,-0.9183,-0.8584,-0.8182,-0.8182,-0.8464,-0.8958,-0.9722,-1.0152,-1.0549,-1.0973,-1.0922,-1.0849,-1.081,-1.09,-1.0962,-1.0968,-1.1118,-1.1155,-1.0915,-1.0145,-0.9707,-0.9717,-0.9404,-0.9061,-0.8796,-0.8729,-0.8323,-0.7589,-0.7518,-0.7119,-0.6372,-0.6372,-0.6157,-0.5701,-0.5701,-0.5519,-0.5162,-0.4777,-0.4391,-0.403,-0.3581,-0.3352,-0.3246,-0.2905,-0.2768,-0.2701,-0.1987,-0.175,-0.1683,0.0,0.0,0.0,0.0,0.0,0.0,0.0,0.0,0.0,0.0,-0.2292,-0.2319,0.0,0.0,0.0,0.0,0.0,0.0,0.0,0.0,0.0,-0.42,-0.4477,-0.4675,-0.4769,-0.5227,-0.5486,-0.5536,-0.5866,-0.6163,-0.6425,-0.654,-0.6682,-0.6843,-0.6914,-0.6924,-0.6922,-0.6963,-0.6877,-0.6698,-0.6602,-0.6298,-0.5859,-0.5699,0.0,0.0,-0.5766,-0.6387,-0.7128,-0.8011,-0.8963,-0.9917,-1.0762,-1.1375,-1.1834,-1.2202,-1.2369,-1.2491,-1.2632,-1.255,-1.2409,-1.2409,-1.1951,-1.1378,-1.08,-1.0031,-0.9198,-0.8378,-0.7908,-0.7622,-0.7566,-0.7868,-0.8438,-0.9331,-0.977,-1.027,-1.1064,-1.1199,-1.1238,-1.1363,-1.1374,-1.1384,-1.1329,-1.1335,-1.1381,-1.1465,-1.1015,-1.0472,-0.988,-0.9814,-0.9604,-0.9193,-0.8874,-0.861,-0.8482,-0.8158,-0.7751,-0.7373,-0.7373,-0.6977,-0.626,-0.626,-0.6005,-0.5586,-0.5234,-0.502,-0.482,-0.4085,-0.3802,-0.3755,-0.3334,-0.3183,-0.3145,-0.267,-0.2526,-0.2458,0.0,0.0,0.0,0.0,0.0,0.0,0.0,-0.203,-0.2113,-0.2276,-0.2271,-0.2303,-0.2432,-0.2569,-0.2658,0.0,0.0,0.0,0.0,0.0,0.0,-0.3671,-0.3848,-0.4018,-0.4182,-0.4481,-0.4623,-0.4623,0.0,-0.5137,-0.5264,-0.5471,-0.5625,-0.5722,-0.589,-0.6012,-0.6074,-0.6074,-0.6064,-0.6026,-0.5889,-0.5682,-0.5424,-0.5367,0.0,0.0,-0.5738,-0.631,-0.6998,-0.7973,-0.8995,-1.0007,-1.0916,-1.163,-1.2193,-1.2342,-1.2558,-1.2719,-1.2622,-1.2494,-1.2363,-1.2286,-1.1872,-1.13,-1.0552,-0.9749,-0.892,-0.807,-0.7469,-0.7104,-0.7129,-0.7385,-0.7902,-0.8818,-0.9501,-1.0138,-1.0837,-1.1203,-1.1441,-1.1487,-1.1562,-1.1599,-1.1573,-1.1522,-1.1538,-1.1613,-1.1404,-1.1002,-1.0239,-0.9807,-0.9482,-0.9302,-0.9121,-0.891,-0.8693,-0.8512,-0.8222,-0.786,-0.7675,-0.7385,-0.7027,-0.6809,-0.646,-0.6062,-0.5886,-0.5662,-0.5379,-0.4814,-0.455,-0.4447,-0.3862,-0.3629,-0.3572,-0.3197,-0.3046,-0.2963,0.0,0.0,0.0,0.0,0.0,0.0,0.0,-0.1967,-0.2064,-0.2195,-0.2258,-0.2291,-0.2329,-0.2453,-0.2519,0.0,0.0,0.0,0.0,0.0,0.0,0.0,0.0,0.0,-0.3761,0.0,0.0,-0.4033,-0.4254,0.0,0.0,0.0,0.0,0.0,-0.5028,-0.5205,-0.5306,-0.534,-0.5409,0.0,0.0,-0.5209,-0.5154,0.0,0.0,0.0,0.0,-0.6071,-0.6744,-0.7715,-0.8677,-0.9612,-1.0438,-1.1413,-1.2233,-1.2216,-1.2496,-1.2768,-1.2481,-1.2409,-1.2335,-1.2164,-1.173,-1.117,-1.0329,-0.946,-0.86,-0.7823,-0.7143,-0.6715,-0.6813,-0.6999,-0.7434,-0.8378,-0.9209,-0.9961,-1.0614,-1.1157,-1.1518,-1.1607,-1.1766,-1.1826,-1.176,-1.174,-1.1691,-1.1619,-1.1512,-1.1217,-1.0635,-0.9843,-0.941,-0.941,-0.9338,-0.9163,-0.8837,-0.8837,-0.862,-0.8222,-0.7969,-0.7747,-0.7602,-0.7276,-0.6918,-0.6522,-0.645,-0.6192,-0.5808,-0.5382,-0.5172,-0.5052,-0.4334,-0.4058,-0.4023,-0.3634,-0.3482,-0.3385,0.0,0.0,0.0,0.0,0.0,0.0,0.0,-0.1689,-0.179,-0.1923,-0.2101,-0.2191,-0.2135,-0.2253,-0.2348,0.0,0.0,0.0,0.0,0.0,0.0,0.0,0.0,0.0,0.0,0.0,0.0,-0.383,-0.4094,0.0,0.0,0.0,0.0,0.0,0.0,-0.467,-0.4692,-0.4813,0.0,0.0,0.0,0.0,0.0,0.0,0.0,0.0,0.0,-0.5734,-0.6341,-0.6996,-0.7871,-0.8821,-0.9514,-1.0782,-1.2062,-1.2248,-1.2436,-1.2583,-1.2443,-1.2409,-1.2335,-1.2164,-1.1513,-1.0735,-0.9873,-0.8902,-0.8003,-0.7375,-0.6908,-0.6617,-0.6627,-0.6797,-0.7227,-0.8188,-0.8796,-0.9535,-1.0563,-1.115,-1.1619,-1.193,-1.2234,-1.2266,-1.1902,-1.2059,-1.1979,-1.1619,-1.126,-1.1044,-1.0972,-1.0245,-0.9843,-0.9843,-0.9482,-0.9266,-0.923,-0.923,-0.9049,-0.8657,-0.862,-0.8254,-0.7602,-0.7566,-0.7312,-0.6918,-0.6555,-0.637,-0.6293,-0.5531,-0.5198,-0.515,-0.4696,-0.4526,-0.448,-0.4012,-0.3853,-0.3781,0.0,0.0,0.0,0.0,0.0,0.0,-0.1578,-0.1695,-0.1804,-0.1949,-0.2061,-0.2119,-0.2049,-0.202,-0.204,-0.2147,0.0,0.0,0.0,0.0,0.0,0.0,0.0,0.0,0.0,0.0,-0.3328,-0.3434,-0.3747,0.0,0.0,0.0,0.0,0.0,0.0,-0.4591,-0.4602,-0.4655,0.0,0.0,0.0,0.0,0.0,0.0,0.0,0.0,0.0,0.0,-0.5741,-0.6361,-0.6982,-0.7649,-0.8446,-0.9295,-1.0229,-1.1368,-1.1944,-1.2148,-1.2064,-1.2041,-1.1956,-1.1626,-1.1132,-1.0452,-0.9467,-0.8562,-0.7738,-0.7091,-0.6568,-0.6273,-0.6407,-0.6516,-0.6848,-0.7639,-0.825,-0.895,-0.9916,-1.0607,-1.1183,-1.1636,-1.1979,-1.2224,-1.2262,-1.2322,-1.2265,-1.1972,-1.1584,-1.1368,-1.1368,-1.0671,-1.0167,-0.9915,-0.9735,-0.9554,-0.9302,-0.9302,-0.923,-0.9054,-0.8801,-0.8403,-0.7897,-0.7675,-0.7385,-0.699,-0.6845,-0.6773,-0.67,-0.6155,-0.5792,-0.5535,-0.5108,-0.4823,-0.4575,-0.4445,-0.4356,-0.4261,0.0,0.0,0.0,0.0,0.0,-0.1228,-0.1375,-0.1505,-0.1632,-0.1747,-0.1819,-0.186,-0.1858,-0.1734,-0.1709,-0.1866,-0.1896,0.0,0.0,0.0,0.0,0.0,0.0,0.0,0.0,0.0,-0.3077,-0.3193,-0.3461,-0.3642,0.0,0.0,-0.4195,-0.4247,0.0,0.0,0.0,0.0,0.0,0.0,0.0,0.0,0.0,0.0,0.0,0.0,0.0,0.0,0.0,0.0,0.0,-0.682,-0.7507,-0.8082,-0.8802,-1.037,-1.1103,-1.1443,-1.1447,-1.1539,-1.1529,-1.1113,-1.065,-1.0045,-0.9043,-0.8193,-0.7453,-0.684,-0.636,-0.6115,-0.6274,-0.6338,-0.6585,-0.7241,-0.7798,-0.8446,-0.9324,-1.0087,-1.078,-1.1346,-1.1797,-1.2191,-1.2463,-1.2539,-1.2499,-1.2223,-1.1943,-1.1727,-1.1619,-1.1109,-1.0635,-1.0245,-1.0023,-0.9771,-0.9482,-0.9374,-0.9302,-0.9302,-0.9018,-0.8657,-0.8259,-0.7897,-0.7534,-0.7172,-0.7063,-0.699,-0.6954,-0.6555,-0.6228,-0.5938,-0.5538,-0.5147,-0.4785,-0.483,-0.4746,-0.4605,0.0,0.0,0.0,0.0,0.0,0.0,-0.0907,-0.1018,-0.1137,-0.1196,-0.127,-0.1355,-0.1496,-0.1384,-0.1391,-0.1592,-0.1666,0.0,0.0,0.0,0.0,0.0,0.0,0.0,0.0,0.0,-0.2796,-0.3197,-0.3276,-0.351,-0.3899,-0.3906,-0.3972,-0.4101,0.0,0.0,0.0,0.0,0.0,0.0,0.0,0.0,-0.4817,0.0,0.0,0.0,0.0,0.0,0.0,0.0,0.0,0.0,0.0,-0.737,-0.823,-0.939,-1.0004,-1.0352,-1.055,-1.091,-1.1104,-1.0702,-1.0089,-0.9399,-0.86,-0.7775,-0.7081,-0.661,-0.6341,-0.6211,-0.6288,-0.6298,-0.65,-0.711,-0.7548,-0.8122,-0.8974,-0.9738,-1.0455,-1.1114,-1.1835,-1.2363,-1.2489,-1.268,-1.261,-1.223,-1.2194,-1.2015,-1.1619,-1.1584,-1.1404,-1.1008,-1.0281,-0.9915,-0.9879,-0.9482,-0.9302,-0.9302,-0.9302,-0.909,-0.8693,-0.8295,-0.7897,-0.7566,-0.7172,-0.699,-0.6954,-0.6555,-0.6413,-0.6341,-0.5938,-0.5538,-0.5211,-0.5214,-0.4992,-0.4699,0.0,0.0,0.0,0.0,0.0,0.0,0.0,-0.0976,-0.1054,-0.1119,-0.1189,-0.1228,-0.1223,-0.1145,-0.1102,-0.1115,-0.1306,0.0,0.0,0.0,0.0,0.0,0.0,0.0,0.0,-0.2553,-0.284,-0.3203,-0.3315,-0.3523,-0.3837,-0.383,-0.3908,-0.4035,-0.4081,-0.4123,0.0,0.0,0.0,0.0,0.0,-0.4622,-0.4677,0.0,0.0,0.0,0.0,0.0,0.0,0.0,0.0,0.0,0.0,0.0,0.0,-0.776,-0.8761,-0.9646,-0.9863,-1.0014,-1.0042,-0.979,-0.9335,-0.8798,-0.8136,-0.7584,-0.7071,-0.6601,-0.6341,-0.6205,-0.6239,-0.6267,-0.646,-0.6914,-0.7322,-0.7906,-0.8779,-0.9527,-1.0282,-1.109,-1.2182,-1.2929,-1.3092,-1.3134,-1.3075,-1.2975,-1.2474,-1.2122,-1.2015,-1.1763,-1.1404,-1.1008,-1.075,-1.0426,-0.9915,-0.9771,-0.9554,-0.9302,-0.9302,-0.909,-0.8693,-0.8584,-0.8186,-0.7602,-0.7457,-0.724,-0.699,-0.6845,-0.6664,-0.6377,-0.6264,-0.5974,-0.561,-0.561,-0.5356,-0.5029,0.0,0.0,0.0,0.0,0.0,0.0,0.0,-0.0825,-0.0864,-0.091,-0.095,-0.0982,-0.0982,-0.0931,-0.0887,-0.0895,-0.1051,0.0,0.0,0.0,0.0,0.0,0.0,0.0,-0.2255,-0.2475,-0.2763,-0.3126,-0.331,-0.3538,-0.3805,-0.3853,-0.391,-0.3969,-0.4035,-0.4077,0.0,0.0,0.0,0.0,-0.4478,-0.4532,-0.4578,0.0,0.0,0.0,0.0,0.0,0.0,0.0,0.0,0.0,0.0,0.0,0.0,0.0,-0.7673,-0.859,-0.8939,-0.9033,-0.9005,-0.8892,-0.8543,-0.8107,-0.7551,-0.7163,-0.6823,-0.6464,-0.6294,-0.6229,-0.6304,-0.6369,-0.6551,-0.6944,-0.7388,-0.7951,-0.8706,-0.9494,-1.0396,-1.15,-1.2499,-1.3197,-1.3449,-1.3522,-1.3468,-1.3325,-1.276,-1.2373,-1.2194,-1.1835,-1.1476,-1.1224,-1.108,-1.0714,-1.0131,-0.9987,-0.9699,-0.9302,-0.9302,-0.9157,-0.891,-0.8765,-0.844,-0.8,-0.7711,-0.7457,0.0,-0.7063,-0.6845,-0.6627,-0.6627,-0.6373,-0.601,-0.601,-0.5756,-0.5392,0.0,0.0,0.0,0.0,0.0,0.0,0.0,-0.0579,-0.0581,-0.0583,-0.0584,-0.0631,-0.0769,-0.0726,-0.0739,-0.0852,0.0,0.0,0.0,0.0,0.0,0.0,0.0,0.0,-0.2192,-0.2323,-0.2595,-0.3015,-0.3278,-0.3543,-0.3817,-0.3943,-0.3978,-0.393,-0.3981,-0.4039,-0.4112,0.0,0.0,0.0,-0.4434,-0.4488,0.0,0.0,0.0,0.0,0.0,0.0,0.0,0.0,0.0,0.0,0.0,0.0,0.0,0.0,0.0,0.0,0.0,-0.8012,-0.8031,-0.8031,-0.7745,-0.733,-0.6872,-0.6628,0.0,-0.6247,-0.6219,-0.6285,-0.6464,-0.6581,-0.6777,-0.717,-0.7694,-0.825,-0.8839,-0.9747,-1.0857,-1.2214,-1.2832,-1.3254,-1.3577,-1.3763,-1.3761,-1.3361,-1.3039,-1.2653,-1.2266,-1.1871,-1.1619,-1.1584,-1.1224,-1.0894,-1.0527,-1.0131,-0.9735,-0.9338,-0.9302,-0.9302,-0.9302,-0.891,-0.8729,-0.8657,-0.7928,-0.7638,-0.7566,-0.7167,-0.699,-0.699,-0.699,-0.6773,-0.645,-0.645,-0.6192,-0.5792,0.0,0.0,0.0,0.0,0.0,0.0,0.0,0.0,0.0,0.0,-0.0448,-0.048,-0.0559,-0.0557,-0.0536,0.0,0.0,0.0,0.0,0.0,0.0,0.0,0.0,0.0,-0.2185,-0.2234,-0.2544,-0.3156,-0.3322,-0.359,-0.3954,-0.3979,-0.4042,-0.4133,-0.4042,-0.4039,-0.4112,-0.4247,0.0,0.0,-0.4327,-0.4349,0.0,0.0,0.0,0.0,-0.4806,-0.5017,0.0,0.0,0.0,0.0,0.0,0.0,0.0,0.0,-0.6341,-0.6497,-0.6799,0.0,-0.7403,-0.7403,-0.7182,-0.6897,0.0,-0.6539,-0.6445,-0.6247,-0.6323,-0.6445,-0.6492,-0.6812,-0.7197,-0.759,-0.8159,-0.8904,-0.9942,-1.1173,-1.2239,-1.305,-1.3235,-1.3392,-1.3585,-1.3763,-1.3868,-1.3753,-1.3396,-1.3039,-1.2681,-1.2266,-1.1907,-1.1619,-1.1512,-1.126,-1.0894,-1.0527,-1.0167,-0.9771,-0.9446,-0.9302,-0.9302,-0.9199,-0.8982,-0.8657,-0.8186,-0.7824,-0.7566,-0.7167,-0.699,-0.699,-0.699,-0.6954,-0.6845,-0.6845,-0.6591,-0.6228,0.0,0.0,0.0,0.0,0.0,0.0,0.0,0.0,0.0,0.0,0.0,-0.0415,-0.0452,-0.0452,0.0,0.0,0.0,0.0,0.0,0.0,0.0,0.0,0.0,-0.1655,-0.2195,-0.2262,-0.2624,-0.3287,-0.3493,-0.3786,-0.4184,-0.4243,-0.4278,-0.4291,-0.4116,-0.4027,-0.4016,-0.4225,-0.4294,-0.4294,-0.4294,0.0,0.0,0.0,0.0,0.0,-0.4753,-0.5012,0.0,-0.5417,-0.5576,-0.5771,0.0,0.0,0.0,0.0,-0.62,-0.6247,-0.6445,-0.6685,-0.6899,-0.6993,-0.6906,-0.675,-0.6548,-0.6501,-0.6473,-0.636,-0.6426,-0.6596,-0.6902,-0.7234,-0.7635,-0.8125,-0.8799,-0.9714,-1.1088,-1.2113,-1.2924,-1.3451,-1.3578,-1.3646,-1.3734,-1.3847,-1.3904,-1.3904,-1.3539,-1.3218,-1.3039,-1.251,-1.2086,-1.1871,-1.1691,-1.1404,-1.1008,-1.0822,-1.0534,-1.0167,-0.9951,-0.9771,-0.959,-0.959,-0.9338,-0.8946,-0.8548,-0.8259,-0.8073,-0.7679,-0.7425,-0.7276,-0.7276,-0.7167,-0.699,-0.699,-0.6845,-0.6664,0.0,0.0,0.0,0.0,0.0,0.0,0.0,0.0,0.0,0.0,0.0,0.0,0.0,0.0,0.0,0.0,0.0,0.0,0.0,0.0,0.0,0.0,-0.1331,-0.1608,-0.2185,-0.2355,-0.2753,-0.3403,-0.3665,-0.4002,-0.4398,-0.453,-0.4516,-0.4365,-0.4221,-0.4061,-0.3917,-0.4184,-0.4294,-0.4294,-0.4294,0.0,0.0,0.0,0.0,0.0,0.0,0.0,0.0,-0.5547,-0.5752,-0.5978,-0.6144,0.0,0.0,0.0,0.0,0.0,-0.6445,-0.6548,-0.6633,-0.6769,-0.6791,-0.6759,-0.6581,-0.6548,-0.6558,-0.6596,-0.6652,-0.6893,-0.7529,-0.788,-0.8261,-0.8852,-0.9741,-1.0827,-1.2239,-1.2862,-1.332,-1.3754,-1.3857,-1.393,-1.3978,-1.394,-1.3904,-1.3904,-1.3575,-1.3361,-1.3289,-1.2725,-1.2338,-1.2194,-1.1871,-1.1512,-1.1116,-1.1044,-1.0858,-1.0563,-1.0527,-1.0311,-0.9987,-0.9915,-0.9699,-0.9374,-0.891,-0.8693,-0.8657,-0.8259,-0.7933,-0.7675,-0.7675,-0.7421,-0.7099,-0.7099,-0.7063,-0.6954,0.0,0.0,0.0,0.0,0.0,0.0,0.0,0.0,0.0,0.0,0.0,0.0,0.0,0.0,0.0,0.0,0.0,0.0,0.0,0.0,0.0,-0.1451,-0.1471,-0.1697,-0.2185,-0.2449,-0.2841,-0.3403,-0.3665,-0.4002,-0.4398,-0.453,-0.4462,-0.4241,-0.4323,-0.418,-0.3917,-0.4184,-0.4294,-0.4294,-0.4294,0.0,0.0,0.0,0.0,0.0,0.0,0.0,0.0,-0.5582,-0.5846,-0.6163,-0.6191,0.0,0.0,0.0,0.0,0.0,-0.6445,-0.6795,-0.7046,-0.6844,-0.6791,-0.6797,-0.6769,-0.6759,-0.6821,-0.7046,-0.7359,-0.7747,-0.8174,-0.8845,-0.9475,-0.9986,-1.1353,-1.2617,-1.3358,-1.3735,-1.4123,-1.4713,-1.4275,-1.4034,-1.4369,-1.4118,-1.3904,-1.3904,-1.3833,-1.3646,-1.3325,-1.3182,-1.2868,-1.223,-1.2122,-1.1907,-1.1512,-1.1188,-1.0972,-1.0936,-1.0635,-1.0455,-1.0383,-1.0059,-0.9879,-0.9771,-0.9018,-0.8693,-0.8657,-0.8259,-0.8078,-0.8005,-0.8005,-0.7824,-0.7494,-0.7494,-0.7276,-0.699,0.0,0.0,0.0,0.0,0.0,0.0,0.0,0.0,0.0,0.0,0.0,0.0,0.0,0.0,0.0,0.0,0.0,0.0,0.0,0.0,-0.1184,-0.149,-0.1644,-0.1935,-0.2403,-0.2639,-0.3064,-0.3677,-0.3946,-0.4303,-0.4729,-0.4753,-0.4619,-0.4355,-0.4315,-0.415,-0.3917,-0.4104,-0.4236,-0.4294,0.0,0.0,0.0,0.0,0.0,0.0,0.0,0.0,0.0,0.0,-0.5799,-0.605,-0.6163,0.0,0.0,0.0,0.0,0.0,-0.6572,-0.6927,-0.7223,-0.7324,-0.7421,-0.7496,-0.7496,-0.7496,-0.7562,-0.7804,-0.8088,-0.8439,-0.8958,-0.9552,-1.0301,-1.1283,-1.238,-1.3315,-1.3939,-1.431,-1.465,-1.4946,-1.4586,-1.4388,-1.4485,-1.4154,-1.3904,-1.3904,-1.3904,-1.3825,-1.3611,-1.3432,-1.3075,-1.2545,-1.2302,-1.2015,-1.1584,-1.1404,-1.1332,-1.1332,-1.1181,-1.0966,-1.075,-1.0383,-1.0137,-0.9983,-0.9405,-0.9186,-0.9245,-0.9023,-0.8803,-0.8528,-0.8528,-0.8275,-0.786,-0.7675,-0.7349,-0.699,0.0,0.0,0.0,0.0,0.0,0.0,0.0,0.0,0.0,0.0,0.0,0.0,0.0,0.0,0.0,0.0,0.0,0.0,0.0,-0.1087,-0.1286,-0.1536,-0.182,-0.2177,-0.261,-0.2886,-0.3321,-0.3943,-0.4219,-0.4557,-0.4946,-0.4925,-0.4735,-0.4429,-0.4304,-0.4115,-0.3917,-0.4071,-0.4203,-0.4294,0.0,0.0,0.0,0.0,0.0,0.0,0.0,0.0,0.0,0.0,0.0,0.0,0.0,0.0,0.0,-0.6191,-0.62,-0.6281,-0.6694,-0.704,-0.7391,-0.7891,-0.813,-0.8254,-0.832,-0.8431,-0.8593,-0.8894,-0.9067,-0.9342,-0.9959,-1.0516,-1.1264,-1.2503,-1.3221,-1.3807,-1.4374,-1.4738,-1.5025,-1.5199,-1.5003,-1.4798,-1.4635,-1.4261,-1.4011,-1.3904,-1.3904,-1.3904,-1.3904,-1.3611,-1.3289,-1.2932,-1.2545,-1.2158,-1.1727,-1.1655,-1.1584,-1.1584,-1.1584,-1.144,-1.1116,-1.0786,-1.0456,-1.0186,-0.9818,-0.9669,-0.9709,-0.9709,-0.9468,-0.9086,-0.906,-0.8721,-0.8186,-0.7856,-0.7457,-0.7135,0.0,0.0,0.0,0.0,0.0,0.0,0.0,0.0,0.0,0.0,0.0,0.0,0.0,0.0,0.0,0.0,0.0,0.0,0.0,-0.1273,-0.1467,-0.1678,-0.2003,-0.2343,-0.2687,-0.3133,-0.361,-0.4089,-0.4361,-0.4597,-0.4823,-0.4872,-0.4658,-0.4227,-0.4343,-0.421,-0.3917,-0.4173,-0.4294,-0.4294,-0.4294,0.0,0.0,0.0,0.0,0.0,0.0,0.0,0.0,0.0,0.0,0.0,0.0,0.0,-0.5959,-0.6144,-0.62,-0.6281,-0.6694,-0.7135,-0.7671,-0.8454,-0.8637,-0.8714,-0.8976,-0.9365,-0.9866,-1.0509,-1.0586,-1.0732,-1.1331,-1.2089,-1.2842,-1.3485,-1.3958,-1.4392,-1.4795,-1.504,-1.5332,-1.5791,-1.5475,-1.5183,-1.4999,-1.4661,-1.4296,-1.394,-1.3904,-1.3904,-1.3904,-1.386,-1.3682,-1.3289,-1.2932,-1.2545,-1.2158,-1.1799,-1.1584,-1.1584,-1.1584,-1.1584,-1.1548,-1.1152,-1.0825,-1.0547,-1.0186,-0.9928,-0.9709,-0.9709,-0.9666,-0.9644,-0.9493,-0.9123,-0.862,-0.8222,-0.786,-0.7566,0.0,0.0,0.0,0.0,0.0,0.0,0.0,0.0,0.0,0.0,0.0,0.0,0.0,0.0,0.0,0.0,0.0,0.0,0.0,-0.1323,-0.1537,-0.1689,-0.2063,-0.2496,-0.3004,-0.3314,-0.3757,-0.4355,-0.4746,-0.4931,-0.4915,-0.4913,-0.4651,-0.42,-0.4255,-0.4138,-0.3917,-0.4093,-0.4225,-0.4294,-0.4294,-0.4294,0.0,0.0,0.0,0.0,0.0,0.0,0.0,0.0,-0.5351,-0.5472,-0.579,-0.5893,-0.5941,-0.6144,-0.6294,-0.6454,-0.6731,-0.7407,-0.8164,-0.8597,-0.9426,-1.0152,-1.026,-1.0546,-1.0989,-1.1663,-1.1738,-1.1825,-1.2269,-1.2898,-1.3496,-1.3835,-1.421,-1.4625,-1.503,-1.53,-1.5579,-1.5863,-1.5665,-1.5459,-1.539,-1.483,-1.4439,-1.4261,-1.4047,-1.3904,-1.3904,-1.3904,-1.3718,-1.3325,-1.3182,-1.2832,-1.2194,-1.2051,-1.1835,-1.1584,-1.1584,-1.1584,-1.1584,-1.1188,-1.1057,-1.1045,-1.0414,-1.0199,-1.0234,-1.0004,-0.9845,-0.9753,-0.9563,-0.9155,-0.8693,-0.8512,-0.8222,-0.7897,0.0,0.0,0.0,0.0,0.0,0.0,0.0,0.0,0.0,0.0,0.0,0.0,0.0,0.0,0.0,0.0,0.0,0.0,-0.1156,-0.1409,-0.1619,-0.1761,-0.2151,-0.2604,-0.313,-0.3377,-0.3824,-0.4503,-0.4886,-0.5038,-0.4934,-0.4878,-0.4647,-0.4292,-0.4317,-0.4248,-0.413,-0.4268,-0.4331,-0.4361,-0.4361,-0.434,0.0,0.0,0.0,0.0,0.0,0.0,0.0,0.0,-0.5199,-0.5275,-0.5679,-0.5799,-0.5856,-0.6125,-0.6341,-0.6572,-0.693,-0.7693,-0.8533,-0.9107,-1.0244,-1.1326,-1.1693,-1.1882,-1.2131,-1.2816,-1.2886,-1.293,-1.3183,-1.3545,-1.3882,-1.4166,-1.4465,-1.4842,-1.5281,-1.546,-1.5693,-1.5968,-1.5873,-1.5753,-1.5603,-1.5044,-1.4625,-1.451,-1.4118,-1.3904,-1.3904,-1.3904,-1.3753,-1.3503,-1.3361,-1.3011,-1.2409,-1.2266,-1.2015,-1.1584,-1.1584,-1.1584,-1.1584,-1.1378,-1.1311,-1.1351,-1.087,-1.0712,-1.0796,-1.0525,-1.0235,-0.9921,-0.9681,-0.9302,-0.8874,-0.8874,-0.862,-0.8259,0.0,0.0,0.0,0.0,0.0,0.0,0.0,0.0,0.0,0.0,0.0,0.0,0.0,0.0,0.0,0.0,0.0,0.0,-0.1291,-0.1549,-0.1761,-0.1892,-0.2284,-0.2658,-0.2992,-0.334,-0.3841,-0.4503,-0.4703,-0.4809,-0.4795,-0.4725,-0.4629,-0.4501,-0.4574,-0.4602,-0.4606,-0.4746,-0.4686,-0.4501,-0.4501,-0.442,-0.4294,0.0,0.0,0.0,0.0,0.0,0.0,0.0,-0.5001,-0.5067,-0.5481,-0.5601,-0.5676,-0.6087,-0.6351,-0.6653,-0.7327,-0.7959,-0.8742,-1.0075,-1.1078,-1.2026,-1.324,-1.3287,-1.3319,-1.4062,-1.4107,-1.4048,-1.4193,-1.4085,-1.4156,-1.4531,-1.4776,-1.5082,-1.5532,-1.5598,-1.575,-1.6131,-1.6178,-1.6037,-1.5638,-1.5221,-1.4874,-1.451,-1.4118,-1.3904,-1.3904,-1.3904,-1.3904,-1.3904,-1.3503,-1.3146,-1.2824,-1.2402,-1.2015,-1.1619,-1.1584,-1.1584,-1.1626,-1.1732,-1.166,-1.1432,-1.1618,-1.1568,-1.1301,-1.1301,-1.0912,-1.0266,-0.9854,-0.9556,-0.9302,-0.9302,-0.9049,-0.8693,0.0,0.0,0.0,0.0,0.0,0.0,0.0,0.0,0.0,0.0,0.0,0.0,0.0,0.0,0.0,0.0,0.0,0.0,-0.1429,-0.1605,-0.1804,-0.2029,-0.2339,-0.27,-0.3129,-0.3704,-0.4182,-0.4562,-0.4721,-0.4775,-0.4733,-0.4956,-0.4904,-0.4647,-0.5006,-0.5029,-0.4815,-0.4956,-0.4889,-0.4715,-0.4715,-0.4597,-0.4444,0.0,0.0,0.0,0.0,0.0,0.0,0.0,0.0,0.0,-0.5481,-0.5601,-0.5705,-0.6247,-0.6691,-0.7121,-0.7753,-0.8746,-0.9805,-1.069,-1.1803,-1.2854,-1.3551,-1.3803,-1.4062,-1.4713,-1.5055,-1.5227,-1.5054,-1.5141,-1.5151,-1.4983,-1.528,-1.5552,-1.5594,-1.5721,-1.5911,-1.6185,-1.6178,-1.6143,-1.6037,-1.5647,-1.5257,-1.4874,-1.451,-1.4189,-1.394,-1.3904,-1.3904,-1.3904,-1.3797,-1.3539,-1.3146,-1.2796,-1.2402,-1.2015,-1.183,-1.1732,-1.1732,-1.1773,-1.1898,-1.2034,-1.1815,-1.1721,-1.1682,-1.128,-1.0796,-1.0297,-1.0056,-0.97,-0.9302,-0.9302,-0.923,-0.909,0.0,0.0,0.0,0.0,0.0,0.0,0.0,0.0,0.0,0.0,-0.0474,-0.0569,0.0,0.0,0.0,0.0,0.0,0.0,-0.1491,-0.1729,-0.1931,-0.2087,-0.2413,-0.2775,-0.3188,-0.3695,-0.4063,-0.4281,-0.4523,-0.4731,-0.49,-0.5047,-0.5108,-0.5106,-0.54,-0.5392,-0.5179,-0.526,-0.5149,-0.4914,-0.4914,-0.4755,-0.4501,0.0,0.0,0.0,0.0,0.0,0.0,0.0,0.0,0.0,-0.5377,-0.5538,-0.5705,-0.6229,-0.6766,-0.7398,-0.8257,-0.9332,-1.047,-1.1514,-1.2579,-1.3588,-1.4352,-1.4643,-1.4909,-1.5451,-1.5709,-1.5774,-1.57,-1.5676,-1.5649,-1.5473,-1.5649,-1.5787,-1.5808,-1.5872,-1.5977,-1.6195,-1.6178,-1.6178,-1.6178,-1.586,-1.5434,-1.5017,-1.4688,-1.4332,-1.394,-1.3904,-1.3904,-1.3904,-1.3904,-1.3758,-1.3426,-1.3066,-1.2706,-1.2379,-1.2068,-1.1952,-1.2013,-1.2013,-1.2115,-1.2291,-1.2085,-1.2074,-1.2101,-1.1504,-1.0993,-1.0516,-1.0195,-0.9776,-0.9302,-0.9302,-0.9302,-0.9266,0.0,0.0,0.0,0.0,0.0,0.0,0.0,0.0,0.0,0.0,-0.0677,-0.0765,0.0,0.0,0.0,0.0,0.0,0.0,0.0,-0.1881,-0.2111,-0.213,-0.2526,-0.2896,-0.3216,-0.3483,-0.3686,-0.3842,-0.4216,-0.4663,-0.5156,-0.5093,-0.5299,-0.5722,-0.5753,-0.5719,-0.5622,-0.5622,-0.5433,-0.5122,-0.5122,-0.4889,-0.4561,-0.4681,0.0,0.0,0.0,0.0,0.0,0.0,0.0,0.0,-0.5237,-0.5434,-0.5686,-0.6106,-0.6715,-0.7532,-0.8814,-0.9814,-1.0862,-1.2461,-1.3405,-1.425,-1.5408,-1.5677,-1.5817,-1.6258,-1.6106,-1.5961,-1.616,-1.5989,-1.587,-1.6009,-1.5979,-1.5974,-1.6113,-1.6063,-1.6031,-1.623,-1.6214,-1.6178,-1.6178,-1.586,-1.5505,-1.5079,-1.4759,-1.4403,-1.3975,-1.394,-1.394,-1.3904,-1.392,-1.383,-1.3663,-1.324,-1.2919,-1.2731,-1.2335,-1.2193,-1.2291,-1.2291,-1.2298,-1.2318,-1.2447,-1.2501,-1.2449,-1.1963,-1.1416,-1.0871,-1.0349,-0.9829,-0.9334,-0.9323,-0.9329,-0.934,0.0,0.0,0.0,0.0,0.0,0.0,0.0,0.0,0.0,0.0,0.0,0.0,0.0,0.0,0.0,0.0,0.0,0.0,0.0,-0.1934,-0.2173,-0.2329,-0.2815,-0.3175,-0.3351,-0.3624,-0.3866,-0.4109,-0.4364,-0.4593,-0.4819,-0.5313,-0.5662,-0.5864,-0.6125,-0.6092,-0.5831,-0.5831,-0.5606,-0.5254,-0.5254,-0.5115,-0.4897,-0.4922,-0.486,0.0,0.0,0.0,0.0,0.0,0.0,0.0,-0.5237,-0.5434,-0.5705,-0.6266,-0.7023,-0.7959,-0.9295,-1.0388,-1.1518,-1.3003,-1.4277,-1.5386,-1.6021,-1.6301,-1.6494,-1.6602,-1.6668,-1.6776,-1.6786,-1.6765,-1.6657,-1.6429,-1.6683,-1.6793,-1.653,-1.6525,-1.6535,-1.6583,-1.6355,-1.6178,-1.6178,-1.6108,-1.5895,-1.5505,-1.5399,-1.5079,-1.4403,-1.4368,-1.4225,-1.3904,-1.4042,-1.4103,-1.4071,-1.3472,-1.3148,-1.3111,-1.2521,-1.2257,-1.2291,-1.2291,-1.2352,-1.2461,-1.2488,-1.2501,-1.2488,-1.2276,-1.1739,-1.1005,-1.0681,-1.0195,-0.9616,-0.9481,-0.9508,-0.9627,0.0,0.0,0.0,0.0,0.0,0.0,0.0,0.0,0.0,0.0,0.0,0.0,0.0,0.0,0.0,0.0,0.0,0.0,0.0,0.0,-0.2311,-0.2671,-0.2948,-0.3192,-0.3393,-0.3532,-0.3768,-0.4095,-0.4377,-0.4684,-0.5053,-0.5492,-0.5856,-0.6157,-0.6326,-0.6221,-0.5903,-0.5903,-0.5721,-0.544,-0.5344,-0.5215,-0.5091,-0.5057,-0.4943,-0.4817,-0.4871,0.0,0.0,0.0,0.0,0.0,0.0,0.0,-0.5676,-0.6101,-0.6972,-0.8089,-0.9428,-1.0658,-1.1975,-1.3745,-1.5052,-1.6011,-1.6227,-1.6581,-1.6829,-1.6829,-1.6926,-1.7001,-1.7001,-1.7001,-1.6936,-1.6785,-1.6885,-1.699,-1.6902,-1.6865,-1.6802,-1.6715,-1.6558,-1.6391,-1.6214,-1.6178,-1.6037,-1.5638,-1.5603,-1.5363,-1.4759,-1.4581,-1.4445,-1.4269,-1.4232,-1.4213,-1.4302,-1.3771,-1.3558,-1.3634,-1.3114,-1.2813,-1.2699,-1.2469,-1.2433,-1.2501,-1.2501,-1.2501,-1.2488,-1.2345,-1.1949,-1.1352,-1.0952,-1.0469,-0.996,-0.9707,-0.9654,-0.9709,0.0,0.0,0.0,0.0,0.0,0.0,0.0,0.0,0.0,0.0,0.0,0.0,0.0,0.0,0.0,0.0,0.0,0.0,0.0,0.0,0.0,-0.2981,-0.302,-0.3148,-0.3398,-0.3431,-0.3649,-0.4033,-0.4385,-0.4882,-0.5494,-0.5651,-0.5981,-0.64,-0.64,-0.6221,-0.5933,-0.5933,-0.5823,-0.5623,-0.5451,-0.5332,-0.523,-0.5178,-0.5027,-0.4849,-0.4968,-0.5001,-0.5001,-0.5001,0.0,0.0,0.0,0.0,-0.5604,-0.5827,-0.6769,-0.8013,-0.9335,-1.0793,-1.241,-1.4357,-1.5537,-1.6269,-1.627,-1.6667,-1.7001,-1.7001,-1.7001,-1.7001,-1.7001,-1.7001,-1.7001,-1.7001,-1.6944,-1.6967,-1.721,-1.7165,-1.7011,-1.6761,-1.6715,-1.6558,-1.6214,-1.6178,-1.6072,-1.5718,-1.5709,-1.5541,-1.5115,-1.4759,-1.4614,-1.4658,-1.4374,-1.4245,-1.4346,-1.3979,-1.3879,-1.4057,-1.3665,-1.3352,-1.3081,-1.2772,-1.2579,-1.2501,-1.2501,-1.2501,-1.2494,-1.2372,-1.2096,-1.1702,-1.1221,-1.0763,-1.0292,-0.9968,-0.9785,-0.9769,0.0,0.0,0.0,0.0,0.0,0.0,0.0,0.0,0.0,0.0,-0.1185,-0.1264,0.0,0.0,0.0,0.0,0.0,0.0,-0.2152,0.0,0.0,-0.2987,-0.3115,-0.3247,-0.3398,-0.3568,-0.3823,-0.417,-0.463,-0.5183,-0.5841,-0.5865,-0.6059,-0.64,-0.64,-0.6285,-0.6076,-0.6076,-0.5953,-0.5777,-0.5737,-0.5588,-0.5374,-0.5359,-0.5204,-0.4979,-0.5001,-0.5001,-0.5001,-0.5001,-0.5001,0.0,0.0,0.0,-0.5417,-0.5793,-0.6639,-0.77,-0.8883,-1.1005,-1.3172,-1.4282,-1.53,-1.6084,-1.6269,-1.6667,-1.7001,-1.7001,-1.7001,-1.7001,-1.7001,-1.7001,-1.7001,-1.7001,-1.7184,-1.7323,-1.7355,-1.7402,-1.733,-1.6991,-1.6802,-1.6558,-1.6214,-1.6178,-1.6178,-1.6108,-1.6108,-1.5931,-1.5532,-1.515,-1.4812,-1.4552,-1.4316,-1.4225,-1.4213,-1.3924,-1.3825,-1.3848,-1.3612,-1.3352,-1.3081,-1.3042,-1.2811,-1.2501,-1.2501,-1.2501,-1.2501,-1.2481,-1.2243,-1.1843,-1.1663,-1.1186,-1.0539,-1.043,-1.0229,-0.9976,0.0,0.0,0.0,0.0,0.0,0.0,0.0,0.0,0.0,0.0,0.0,-0.1399,0.0,0.0,0.0,-0.1692,-0.1888,-0.2128,-0.2402,-0.2703,-0.2937,-0.3103,-0.3236,-0.3376,-0.3508,-0.3634,-0.3922,-0.4369,-0.4717,-0.5276,-0.6019,-0.6124,-0.6327,-0.657,-0.657,-0.6391,-0.6106,-0.6106,-0.6017,-0.5905,-0.5797,-0.5723,-0.5667,-0.5565,-0.5442,-0.532,-0.5209,-0.5162,-0.5152,-0.5038,-0.5001,-0.5001,-0.5001,0.0,0.0,0.0,-0.6352,-0.7629,-0.9443,-1.1283,-1.2917,-1.3874,-1.4848,-1.5655,-1.6052,-1.6474,-1.685,-1.698,-1.7001,-1.7001,-1.7001,-1.7001,-1.7001,-1.7001,-1.7098,-1.7217,-1.739,-1.7417,-1.7415,-1.7289,-1.7031,-1.6782,-1.6513,-1.632,-1.6178,-1.6178,-1.6178,-1.6108,-1.5966,-1.5328,-1.4989,-1.495,-1.4458,-1.4217,-1.4217,-1.407,-1.4048,-1.4144,-1.4168,-1.3923,-1.3428,-1.3428,-1.3081,-1.2501,-1.2501,-1.2501,-1.2501,-1.2501,-1.2385,-1.2224,-1.1933,-1.1483,-1.0946,-1.0655,-1.0319,-0.998,0.0,0.0,0.0,0.0,0.0,0.0,0.0,0.0,0.0,0.0,0.0,0.0,0.0,0.0,0.0,0.0,-0.2079,-0.235,-0.2655,-0.2876,-0.3059,-0.3192,-0.3331,-0.3464,-0.3604,-0.3667,-0.397,-0.4499,-0.4815,-0.5379,-0.6181,-0.6432,-0.6652,-0.683,-0.6733,-0.6523,-0.6226,-0.6179,-0.6151,-0.6137,-0.5973,-0.5998,-0.6106,-0.5956,-0.5875,-0.5799,-0.5604,-0.549,-0.5427,-0.5228,-0.5124,-0.5076,-0.5076,-0.5143,0.0,0.0,0.0,-0.7639,-0.9777,-1.1166,-1.2296,-1.3297,-1.425,-1.5088,-1.5674,-1.6171,-1.6602,-1.6861,-1.6915,-1.6937,-1.699,-1.7001,-1.7001,-1.7001,-1.7001,-1.7066,-1.726,-1.7368,-1.7374,-1.7342,-1.7059,-1.6827,-1.6558,-1.6276,-1.6138,-1.6138,-1.6185,-1.6178,-1.6178,-1.5443,-1.5078,-1.5218,-1.4505,-1.4107,-1.4107,-1.4107,-1.4196,-1.433,-1.4554,-1.4279,-1.3639,-1.3683,-1.3274,-1.2501,-1.2501,-1.2501,-1.2501,-1.2501,-1.2501,-1.2463,-1.2153,-1.1805,-1.1417,-1.0952,-1.0525,-1.0136,0.0,0.0,0.0,0.0,0.0,0.0,0.0,0.0,0.0,0.0,0.0,0.0,-0.1676,-0.1809,-0.1965,-0.2159,-0.2425,-0.2665,-0.2871,-0.2954,-0.3059,-0.3192,-0.3331,0.0,-0.3604,-0.3667,-0.397,-0.4499,-0.4966,-0.5599,-0.64,-0.6783,-0.7043,-0.7161,-0.6846,-0.6646,-0.6555,-0.6366,-0.6398,-0.6571,-0.6491,-0.6581,-0.6759,-0.675,-0.6619,-0.6426,-0.6229,-0.6035,-0.5837,-0.5629,-0.5443,-0.5285,-0.5285,-0.5162,-0.5048,0.0,0.0,0.0,-0.9239,-1.0345,-1.1359,-1.2546,-1.356,-1.4428,-1.5099,-1.5645,-1.618,-1.6613,-1.671,-1.6775,-1.6969,-1.7001,-1.7001,-1.7001,-1.7001,-1.7012,-1.7023,-1.7227,-1.7256,-1.6869,-1.6722,-1.6492,-1.6172,-1.6004,-1.5911,-1.5911,-1.61,-1.6178,-1.6178,-1.5443,-1.4981,-1.5026,-1.4313,-1.3912,-1.3912,-1.3912,-1.401,-1.4196,-1.4367,-1.409,-1.3513,-1.3631,-1.3274,-1.2501,-1.2501,-1.2501,-1.2501,-1.2501,-1.2501,-1.2501,-1.2463,-1.2231,-1.1805,-1.1417,-1.0952,-1.0525,0.0,0.0,0.0,0.0,0.0,0.0,0.0,0.0,0.0,0.0,0.0,0.0,0.0,-0.2142,-0.2246,-0.2327,-0.2538,-0.2756,-0.2954,-0.307,-0.3192,-0.332,-0.3453,-0.3559,-0.3604,-0.3667,-0.3896,-0.4311,-0.4784,-0.5369,-0.6083,-0.644,-0.6783,-0.7059,-0.6955,-0.6778,-0.6588,-0.6526,-0.6537,-0.6626,-0.6848,-0.7059,-0.7267,-0.7399,-0.7399,-0.7305,-0.7113,-0.6804,-0.644,-0.6247,-0.5959,-0.5661,-0.5538,-0.5349,-0.5262,-0.564,-0.6223,-0.7066,-0.8505,-0.9475,-1.0388,-1.1564,-1.2576,-1.3528,-1.4374,-1.5052,-1.5634,-1.6138,-1.6365,-1.6517,-1.6775,-1.6904,-1.7001,-1.7001,-1.7001,-1.7001,-1.7001,-1.7077,-1.7162,-1.7191,-1.6711,-1.6422,-1.6428,-1.5997,-1.5702,-1.5702,-1.5892,-1.6015,-1.6015,-1.5371,-1.5017,-1.5017,-1.4296,-1.3904,-1.3904,-1.3904,-1.3993,-1.4217,-1.3981,-1.3749,-1.3491,-1.3284,-1.2943,-1.2501,-1.2501,-1.2501,-1.2501,-1.2501,-1.2501,-1.2501,-1.2501,-1.2269,-1.1843,-1.1456,-1.099,-1.0525,0.0,0.0,0.0,0.0,0.0,0.0,0.0,0.0,-0.1848,-0.1978,0.0,0.0,0.0,0.0,-0.2497,-0.2559,-0.2707,-0.2859,-0.2998,-0.317,-0.3309,-0.3398,-0.3519,-0.3604,-0.3604,-0.3667,-0.3856,-0.4205,-0.4679,-0.521,-0.5807,-0.6156,-0.6538,-0.6898,-0.6833,-0.6744,-0.6639,-0.6614,-0.6699,-0.6865,-0.7241,-0.7612,-0.7927,-0.8118,-0.8203,-0.8165,-0.7974,-0.7664,-0.7301,-0.7025,-0.6672,-0.6284,-0.5997,-0.5679,-0.5474,-0.5874,-0.6235,-0.6777,-0.8046,-0.8878,-0.9622,-1.0704,-1.165,-1.2544,-1.3517,-1.4266,-1.4916,-1.558,-1.5903,-1.6172,-1.6484,-1.6667,-1.6818,-1.698,-1.7001,-1.7001,-1.7001,-1.7001,-1.7066,-1.7227,-1.6625,-1.6257,-1.6399,-1.5841,-1.5485,-1.5485,-1.574,-1.5892,-1.5892,-1.5326,-1.491,-1.4652,-1.4154,-1.3904,-1.3904,-1.3904,-1.3961,-1.4083,-1.3748,-1.3523,-1.3327,-1.3024,-1.2713,-1.2433,-1.2481,-1.2501,-1.2501,-1.2501,-1.2501,-1.2501,-1.2501,-1.2269,-1.1843,-1.1456,-1.099,-1.0525,0.0,0.0,0.0,0.0,0.0,0.0,0.0,0.0,-0.2219,-0.2223,0.0,0.0,0.0,0.0,0.0,-0.2893,-0.2976,-0.3015,-0.3009,-0.3258,-0.3398,-0.3409,-0.353,-0.3604,-0.3604,-0.3667,-0.3868,-0.4197,-0.4663,-0.5117,-0.5581,-0.5984,-0.6351,-0.6652,-0.6464,-0.6489,-0.6694,-0.6625,-0.688,-0.7334,-0.7677,-0.8183,-0.8741,-0.8948,-0.9033,-0.9014,-0.8826,-0.8618,-0.8373,-0.7984,-0.7574,-0.7147,-0.6657,-0.6101,-0.5662,-0.5934,-0.6334,-0.6918,0.0,0.0,0.0,-1.0043,-1.0768,-1.152,-1.2535,-1.3276,-1.4035,-1.4952,-1.5368,-1.5709,-1.6152,-1.628,-1.6441,-1.6894,-1.698,-1.698,-1.698,-1.699,-1.699,-1.699,-1.6386,-1.6006,-1.6006,-1.5507,-1.5191,-1.5191,-1.5602,-1.5882,-1.5882,-1.5326,-1.4652,-1.394,-1.3904,-1.3904,-1.3904,-1.3904,-1.3904,-1.3904,-1.3685,-1.3363,-1.3014,-1.2922,-1.2657,-1.2298,-1.244,-1.2501,-1.2501,-1.2501,-1.2501,-1.2501,-1.2501,-1.2269,-1.1843,-1.1456,-1.099,-1.0525,0.0,0.0,0.0,0.0,0.0,-0.2137,-0.23,-0.2413,-0.2545,0.0,0.0,0.0,-0.2959,-0.3097,-0.3204,-0.3257,-0.328,-0.3284,-0.3287,-0.3364,-0.3442,-0.3548,-0.363,-0.3667,-0.3667,-0.3788,-0.3939,-0.4126,-0.4404,-0.4709,-0.5035,-0.5387,-0.5679,-0.5912,-0.6002,-0.6147,-0.6367,-0.6692,-0.7003,-0.7361,-0.7984,-0.86,-0.9175,-0.9575,-0.9812,-0.9944,-0.9878,-0.9611,-0.9221,-0.8967,-0.8524,-0.7881,-0.6836,-0.6182,-0.5885,-0.6197,-0.6485,-0.6891,-0.7745,0.0,0.0,0.0,0.0,0.0,-1.1542,-1.2425,-1.3258,-1.3846,-1.4428,-1.4895,-1.5225,-1.5558,-1.5892,-1.6224,-1.6387,-1.6506,-1.6506,-1.6657,-1.6785,-1.6785,-1.6325,-1.6006,-1.6006,-1.5371,-1.4983,-1.4983,-1.5228,-1.5479,-1.5665,-1.5254,-1.4652,-1.394,-1.3904,-1.3904,-1.3904,-1.3904,-1.3904,-1.3904,-1.3308,-1.2995,-1.2977,-1.2517,-1.2296,-1.2298,-1.244,-1.2501,-1.2501,-1.2501,-1.2501,-1.2501,-1.2501,-1.2269,-1.1843,-1.1456,-1.099,-1.0525,0.0,0.0,0.0,-0.2288,-0.2403,-0.2525,-0.264,-0.2813,-0.298,0.0,0.0,0.0,-0.3561,-0.3598,-0.3609,-0.3605,-0.3531,-0.3485,-0.3483,-0.3486,-0.3519,-0.3604,-0.3663,-0.37,-0.37,-0.3884,-0.4016,-0.4101,-0.4333,-0.4526,-0.4678,-0.4961,-0.5236,-0.5478,-0.5606,-0.5863,-0.6235,-0.6733,-0.7187,-0.7619,-0.8449,-0.9167,-0.9762,-1.0209,-1.0503,-1.0683,-1.0683,-1.0499,-1.0221,-0.9941,-0.9261,-0.8354,-0.7345,-0.6823,-0.6601,-0.6769,-0.6963,-0.726,-0.79,-0.8151,-0.8378,-0.8862,0.0,0.0,-1.0501,-1.1462,-1.2363,-1.2819,-1.3547,-1.4169,-1.4396,-1.4751,-1.5085,-1.5351,-1.5483,-1.5711,-1.6217,-1.6431,-1.6485,-1.6328,-1.602,-1.5768,-1.5639,-1.5209,-1.4898,-1.4898,-1.5087,-1.5265,-1.5472,-1.5167,-1.4724,-1.4154,-1.3975,-1.3904,-1.3904,-1.3904,-1.3904,-1.3904,-1.3146,-1.2841,-1.2909,-1.2335,-1.2145,-1.2241,-1.2413,-1.2501,-1.2501,-1.2501,-1.2501,-1.2501,-1.2501,-1.2153,-1.1611,-1.1378,-1.0913,-1.033,0.0,0.0,-0.2474,-0.2619,-0.2831,-0.3017,-0.3071,-0.3324,-0.35,0.0,-0.3787,-0.4017,-0.4155,-0.4055,-0.3981,-0.3963,-0.3805,-0.3674,-0.3629,-0.362,-0.3617,-0.3615,-0.3678,-0.3733,-0.3744,-0.3994,-0.4123,-0.4123,-0.4363,-0.4481,-0.4481,-0.467,-0.4937,-0.5241,-0.5271,-0.5606,-0.621,-0.6757,-0.7362,-0.8021,-0.8922,-0.9715,-1.038,-1.0773,-1.1085,-1.1293,-1.1274,-1.1283,-1.1227,-1.0787,-0.984,-0.8732,-0.8135,-0.7775,-0.7588,-0.7535,-0.7645,-0.79,-0.8249,-0.8183,-0.8112,-0.8581,-0.8842,0.0,-0.9512,-1.044,-1.1338,-1.1777,-1.2586,-1.329,-1.3468,-1.3757,-1.4051,-1.4255,-1.4352,-1.4802,-1.6002,-1.6153,-1.6051,-1.5804,-1.5626,-1.5387,-1.5091,-1.4941,-1.487,-1.487,-1.5068,-1.5211,-1.5256,-1.5088,-1.4813,-1.451,-1.4118,-1.3904,-1.3904,-1.3904,-1.3904,-1.3904,-1.3182,-1.2832,-1.2826,-1.2374,-1.2149,-1.2139,-1.2379,-1.2501,-1.2501,-1.2501,-1.2501,-1.2501,-1.2501,-1.1998,-1.1301,-1.1301,-1.0758,-0.998,0.0,-0.257,-0.2706,-0.2892,-0.3264,-0.3572,-0.3633,-0.3914,-0.4163,-0.4268,-0.4349,-0.4433,-0.4569,-0.4565,-0.4492,-0.4388,-0.4355,-0.4165,-0.3783,-0.3765,-0.3743,-0.3685,-0.3788,-0.3917,-0.4016,-0.4181,-0.4261,-0.4261,-0.4313,-0.434,-0.434,-0.4492,-0.4686,-0.4909,-0.5068,-0.5447,-0.6007,-0.6712,-0.7433,-0.8199,-0.8987,-0.98,-1.0588,-1.0981,-1.1482,-1.1909,-1.173,-1.1777,-1.1815,-1.1085,-1.0352,-0.9643,-0.8978,-0.8524,-0.823,-0.8201,-0.8345,-0.8527,-0.8612,-0.8664,-0.8686,-0.8639,-0.8685,0.0,-0.9085,-0.9601,-1.0131,-1.0439,-1.1069,-1.1587,-1.1628,-1.2124,-1.2588,-1.2854,-1.3329,-1.4092,-1.5263,-1.5375,-1.5385,-1.5553,-1.5215,-1.4939,-1.4845,-1.4722,-1.4663,-1.4663,-1.4993,-1.5179,-1.5055,-1.4874,-1.4674,-1.451,-1.4118,-1.3904,-1.3904,-1.3904,-1.3904,-1.3904,-1.3432,-1.3115,-1.2962,-1.2645,-1.2428,-1.2257,-1.2427,-1.2501,-1.2501,-1.2501,-1.2501,-1.2501,-1.2501,-1.1998,-1.1301,-1.1301,-1.0758,-0.998,-0.2715,-0.2908,-0.3115,-0.3354,-0.3705,-0.4,-0.4126,-0.4357,-0.4541,-0.468,-0.4996,-0.5254,-0.5385,-0.534,-0.5251,-0.5107,-0.4788,-0.4477,-0.417,-0.3993,-0.3893,-0.3854,-0.395,-0.4027,-0.4101,-0.4236,-0.4294,-0.4294,-0.4294,-0.4294,-0.4302,-0.4436,-0.4602,-0.4816,-0.5079,-0.5515,-0.6089,-0.6728,-0.7513,-0.8423,-0.9307,-1.0162,-1.0924,-1.135,-1.1898,-1.2436,-1.2332,-1.2295,-1.2154,-1.1453,-1.0858,-1.0352,-0.9809,-0.9452,-0.9177,-0.9033,-0.9064,-0.9134,-0.9019,-0.8981,-0.8912,-0.8707,-0.8589,0.0,0.0,-0.8884,-0.9238,-0.9376,-0.9948,-1.0459,-1.0459,-1.0887,-1.1329,-1.1602,-1.21,-1.2737,-1.354,-1.4194,-1.4588,-1.4557,-1.4431,-1.4317,-1.4271,-1.4287,-1.4333,-1.4436,-1.4814,-1.503,-1.4933,-1.4783,-1.4658,-1.4613,-1.414,-1.3904,-1.3904,-1.3904,-1.3904,-1.3904,-1.3503,-1.3202,-1.297,-1.2734,-1.248,-1.2298,-1.244,-1.2501,-1.2501,-1.2501,-1.2501,-1.2501,-1.2501,-1.1998,-1.1301,-1.1301,-1.0758,-1.003,-0.2967,-0.3232,-0.353,-0.3794,-0.4098,-0.4346,-0.4512,-0.4723,-0.4943,-0.5104,-0.5637,-0.6054,-0.6201,-0.6158,-0.6037,-0.5858,-0.5323,-0.4908,-0.4706,-0.4377,-0.4192,-0.4168,-0.4195,-0.419,-0.4181,-0.4284,-0.4335,-0.4294,-0.4294,-0.4294,-0.4302,-0.4436,-0.4626,-0.4873,-0.5212,-0.5703,-0.6326,-0.6873,-0.7647,-0.861,-0.9625,-1.0504,-1.1236,-1.1661,-1.2238,-1.2861,-1.2899,-1.2692,-1.2309,-1.1775,-1.1291,-1.0831,-1.0445,-1.0165,-0.9982,-0.9777,-0.9721,-0.9695,-0.9522,-0.9335,-0.9118,-0.8883,-0.8609,-0.8344,0.0,0.0,0.0,-0.8532,-0.903,-0.9482,-0.9482,-0.9777,-1.01,-1.0344,-1.075,-1.1166,-1.1602,-1.2642,-1.3388,-1.3394,-1.3492,-1.3539,-1.3458,-1.3684,-1.3929,-1.4175,-1.4512,-1.4757,-1.4842,-1.4652,-1.457,-1.471,-1.4127,-1.3863,-1.3904,-1.3904,-1.3904,-1.3904,-1.3575,-1.329,-1.3022,-1.2822,-1.2569,-1.2338,-1.2454,-1.2501,-1.2501,-1.2501,-1.2501,-1.2501,-1.2501,-1.1998,-1.1301,-1.1301,-1.0758,-1.0036,-0.3318,-0.3462,-0.3658,-0.3937,-0.4351,-0.4648,-0.4668,-0.5143,-0.5621,-0.5923,-0.6183,-0.6408,-0.6615,-0.6783,-0.6749,-0.6439,-0.6169,-0.5845,-0.5412,-0.5072,-0.4862,-0.48,-0.4637,-0.451,-0.4454,-0.4469,-0.4423,-0.4294,-0.4294,-0.4294,-0.4302,-0.4436,-0.4702,-0.5081,-0.5425,-0.5969,-0.6677,-0.7225,-0.788,-0.867,-0.9759,-1.0594,-1.1236,-1.1661,-1.2323,-1.3089,-1.3278,-1.2888,-1.2265,-1.2046,-1.1477,-1.0843,-1.0513,-1.0256,-1.0085,-1.0112,-1.0127,-1.015,-1.018,-1.0029,-0.9774,-0.9335,-0.8807,-0.8344,-0.8145,0.0,-0.7905,-0.7905,0.0,-0.8291,-0.8291,0.0,0.0,-0.8908,-0.932,-0.9717,-1.0019,-1.0449,-1.1214,-1.2565,-1.2461,-1.2361,-1.2532,-1.2937,-1.3363,-1.3731,-1.3986,-1.4248,-1.4616,-1.4161,-1.4159,-1.4666,-1.4011,-1.3714,-1.3896,-1.3904,-1.3904,-1.3904,-1.3868,-1.3613,-1.3193,-1.3133,-1.2896,-1.2481,-1.2494,-1.2501,-1.2501,-1.2501,-1.2501,-1.2501,-1.2501,-1.1998,-1.1301,-1.1301,-1.0758,-1.0036,-0.3381,-0.3569,-0.3792,-0.4074,-0.4495,-0.4838,-0.4917,-0.5477,-0.6051,-0.6496,-0.6805,-0.7094,-0.7419,-0.7524,-0.749,-0.7262,-0.6969,-0.6583,-0.6109,-0.5724,-0.5483,-0.5362,-0.5054,-0.4875,-0.4844,-0.4618,-0.4473,-0.4423,-0.434,-0.4294,-0.4302,-0.4553,-0.482,-0.5122,-0.5783,-0.6408,-0.7033,-0.7565,-0.8238,-0.9009,-0.9691,-1.0517,-1.1376,-1.1942,-1.2625,-1.3268,-1.3148,-1.2919,-1.2536,-1.1935,-1.1513,-1.1177,-1.0818,-1.0643,-1.0538,-1.0469,-1.0376,-1.0299,-1.022,-0.9962,-0.9596,-0.9169,-0.8738,-0.8328,-0.7995,-0.7773,-0.766,-0.7775,0.0,0.0,0.0,0.0,0.0,0.0,-0.8364,-0.8642,-0.8643,-0.8854,-0.9581,-1.1095,-1.136,-1.1523,-1.1843,-1.2258,-1.2654,-1.2909,-1.3391,-1.3835,-1.422,-1.3954,-1.3984,-1.4402,-1.3877,-1.3642,-1.3714,-1.3855,-1.3904,-1.3904,-1.3904,-1.3657,-1.3215,-1.3215,-1.2941,-1.2501,-1.2501,-1.2501,-1.2501,-1.2501,-1.2501,-1.2463,-1.2231,-1.1805,-1.1301,-1.1301,-1.0758,-1.0047,-0.3503,-0.3696,-0.3932,-0.4159,-0.4629,-0.5083,-0.5401,-0.5891,-0.6437,-0.6964,-0.7376,-0.7754,-0.8127,-0.8307,-0.8299,-0.809,-0.7809,-0.7439,-0.694,-0.6499,-0.6204,-0.6054,-0.5632,-0.538,-0.5317,-0.4929,-0.4706,-0.467,-0.4507,-0.4441,-0.4449,-0.4747,-0.5048,-0.535,-0.614,-0.6829,-0.7461,-0.7987,-0.8632,-0.9351,-0.9899,-1.08,-1.1872,-1.245,-1.2984,-1.3371,-1.3065,-1.2899,-1.2673,-1.1894,-1.1509,-1.1289,-1.0955,-1.0818,-1.0741,-1.0638,-1.0534,-1.0445,-1.033,-1.004,-0.9646,-0.9253,-0.8808,-0.8347,-0.797,-0.7686,-0.7539,-0.7697,-0.7604,0.0,0.0,0.0,-0.7659,-0.7451,0.0,-0.7775,-0.7551,-0.7719,-0.8359,-0.9708,-1.0222,-1.0631,-1.1047,-1.1391,-1.173,-1.2051,-1.2691,-1.32,-1.3601,-1.3591,-1.3689,-1.3961,-1.3685,-1.3561,-1.3609,-1.3815,-1.3904,-1.3904,-1.3904,-1.3657,-1.3215,-1.3215,-1.2941,-1.2501,-1.2501,-1.2501,-1.2501,-1.2501,-1.2501,-1.2463,-1.2076,-1.165,-1.1262,-1.1146,-1.0664,-1.0101,-0.3792,-0.3902,-0.4032,-0.4174,-0.4748,-0.5455,-0.6236,-0.6489,-0.6776,-0.7316,-0.7837,-0.8273,-0.856,-0.9038,-0.9201,-0.8805,-0.8765,-0.8508,-0.7995,-0.745,-0.7088,-0.6963,-0.6449,-0.6081,-0.5879,-0.5486,-0.5212,-0.5081,-0.4881,-0.4784,-0.4792,-0.4999,-0.5366,-0.5903,-0.644,-0.7171,-0.8003,-0.8546,-0.9081,-0.9673,-1.0524,-1.1658,-1.2896,-1.3236,-1.3372,-1.338,-1.3251,-1.2898,-1.2472,-1.2102,-1.1566,-1.0988,-1.0764,-1.0558,-1.0441,-1.0567,-1.0586,-1.0638,-1.0828,-1.0626,-1.0265,-0.988,-0.9183,-0.8498,-0.8172,-0.7785,-0.7504,-0.7513,-0.7513,-0.7504,-0.7516,-0.7514,-0.7453,-0.7239,-0.7229,0.0,0.0,-0.7059,-0.7603,-0.8637,-0.9119,-0.9535,-1.0004,-1.0251,-1.0607,-1.1189,-1.1796,-1.2282,-1.2631,-1.2883,-1.3155,-1.3424,-1.3401,-1.3465,-1.3609,-1.3815,-1.3904,-1.3904,-1.3904,-1.3657,-1.3215,-1.3215,-1.2941,-1.2501,-1.2501,-1.2501,-1.2501,-1.2501,-1.2501,-1.2463,-1.2076,-1.165,-1.1223,-1.0796,-1.0448,-1.0215,-0.407,-0.4284,-0.4444,-0.4403,-0.4912,-0.5657,-0.6641,-0.7022,-0.7442,-0.81,-0.8538,-0.8914,-0.9219,-0.9551,-0.9681,-0.9535,-0.9527,-0.9299,-0.8763,-0.8425,-0.8076,-0.7675,-0.7271,-0.6931,-0.6637,-0.6155,-0.5749,-0.5433,-0.5146,-0.4922,-0.4808,-0.509,-0.5468,-0.5936,-0.67,-0.7545,-0.8435,-0.8973,-0.9559,-1.0209,-1.1075,-1.192,-1.2678,-1.2942,-1.3142,-1.3232,-1.2967,-1.262,-1.2252,-1.1807,-1.1507,-1.1289,-1.1102,-1.0976,-1.0948,-1.0995,-1.0924,-1.0863,-1.0785,-1.0512,-1.0146,-0.9645,-0.9137,-0.8611,-0.8151,-0.7818,-0.7652,-0.7688,-0.7592,-0.7539,-0.7673,-0.7478,-0.7217,-0.6976,-0.6855,-0.6713,0.0,-0.6601,-0.6855,-0.7204,-0.7881,-0.8467,-0.8902,-0.9242,-0.9762,-1.055,-1.1293,-1.1956,-1.2557,-1.2847,-1.3068,-1.3196,-1.3326,-1.3435,-1.3465,-1.3758,-1.3904,-1.3904,-1.3904,-1.3657,-1.3215,-1.3215,-1.2941,-1.2501,-1.2501,-1.2501,-1.2501,-1.2501,-1.2347,-1.2076,-1.165,-1.1223,-1.0835,-1.068,-1.0448,-1.0231,-0.4488,-0.4739,-0.489,-0.4715,-0.5232,-0.5993,-0.6916,-0.7422,-0.7916,-0.8584,-0.908,-0.9494,-0.9786,-1.0087,-1.0268,-1.0176,-1.0168,-0.9999,-0.9527,-0.9242,-0.8903,-0.8511,-0.811,-0.7752,-0.7469,-0.6873,-0.6367,-0.5994,-0.5651,-0.5396,-0.5198,-0.5419,-0.5751,-0.6205,-0.6894,-0.7724,-0.8631,-0.9225,-0.9835,-1.0458,-1.1313,-1.2013,-1.2569,-1.2628,-1.2886,-1.3144,-1.2685,-1.2384,-1.2127,-1.1749,-1.1557,-1.1476,-1.1362,-1.1244,-1.1195,-1.1195,-1.1143,-1.1029,-1.0915,-1.0623,-1.0276,-0.9869,-0.9378,-0.8893,-0.8404,-0.8095,-0.7908,-0.7878,-0.7768,-0.7701,-0.7759,-0.7518,-0.7172,-0.6787,-0.6616,-0.6421,0.0,-0.6174,-0.6271,-0.6318,-0.6985,-0.7588,-0.7946,-0.8401,-0.9006,-0.9771,-1.0669,-1.1455,-1.2062,-1.2478,-1.2738,-1.281,-1.3128,-1.3337,-1.3402,-1.3725,-1.3904,-1.3904,-1.3904,-1.3657,-1.3215,-1.3215,-1.2941,-1.2501,-1.2501,-1.2501,-1.2501,-1.2501,-1.2269,-1.1843,-1.1456,-1.1029,-1.0563,-1.0447,-1.0319,-1.0302,-0.5037,-0.5261,-0.5389,-0.5142,-0.5732,-0.6465,-0.7143,-0.7704,-0.8238,-0.8781,-0.9486,-1.0023,-1.0211,-1.0691,-1.0943,-1.0737,-1.072,-1.0601,-1.0251,-0.9884,-0.9608,-0.9453,-0.8963,-0.8574,-0.8333,-0.7623,-0.709,-0.6717,-0.6384,-0.609,-0.5887,-0.5911,-0.6188,-0.6684,-0.7048,-0.7732,-0.8661,-0.9347,-0.9957,-1.0561,-1.1261,-1.2031,-1.2685,-1.2354,-1.2625,-1.3114,-1.2444,-1.2174,-1.2152,-1.1897,-1.1663,-1.1508,-1.1508,-1.1395,-1.1219,-1.1219,-1.1219,-1.1219,-1.1211,-1.0988,-1.0688,-1.0466,-0.9925,-0.9339,-0.8942,-0.8584,-0.8276,-0.8068,-0.802,-0.7959,-0.7752,-0.7603,-0.7306,-0.6705,-0.6487,-0.6262,-0.5879,-0.5826,-0.5872,-0.5991,-0.6466,-0.6887,-0.7138,-0.7707,-0.8315,-0.893,-0.996,-1.0759,-1.1151,-1.1763,-1.217,-1.2272,-1.2816,-1.3181,-1.3402,-1.3725,-1.3904,-1.3904,-1.3904,-1.3657,-1.3215,-1.3215,-1.2941,-1.2501,-1.2501,-1.2501,-1.2501,-1.2501,-1.2269,-1.1843,-1.1456,-1.099,-1.0525,-1.0147,-1.0188,-1.0416,-0.5521,-0.5982,-0.6399,-0.6471,-0.6736,-0.714,-0.7712,-0.8381,-0.9007,-0.9543,-1.0119,-1.0585,-1.0772,-1.0997,-1.1135,-1.1094,-1.1057,-1.0997,-1.0805,-1.0699,-1.0455,-0.9999,-0.9877,-0.9502,-0.8901,-0.8316,-0.7707,-0.7064,-0.6587,-0.6116,-0.5685,-0.5984,-0.6204,-0.6367,-0.71,-0.7966,-0.8948,-0.9658,-1.0637,-1.1713,-1.2186,-1.265,-1.3054,-1.2694,-1.2844,-1.3114,-1.2444,-1.2062,-1.1889,-1.1806,-1.1774,-1.1703,-1.1703,-1.1701,-1.166,-1.166,-1.166,-1.1606,-1.1468,-1.1362,-1.1183,-1.0737,-1.0387,-1.0004,-0.951,-0.9145,-0.8836,-0.8627,-0.8406,-0.8167,-0.7959,-0.7685,-0.7358,-0.6899,-0.6536,-0.6291,-0.6195,-0.6177,-0.6154,-0.609,-0.6276,-0.6498,-0.6661,-0.7131,-0.7738,-0.8505,-0.9546,-1.0334,-1.0723,-1.1623,-1.2081,-1.2085,-1.2743,-1.3181,-1.3402,-1.3725,-1.3904,-1.3904,-1.3904,-1.3657,-1.3215,-1.3215,-1.2941,-1.2501,-1.2501,-1.2501,-1.2501,-1.2501,-1.2269,-1.1843,-1.1456,-1.0835,-1.0158,-1.0266,-1.0335,-1.0405,-0.6141,-0.6698,-0.723,-0.741,-0.7764,-0.8089,-0.8235,-0.8869,-0.9518,-1.0054,-1.059,-1.0997,-1.1212,-1.1362,-1.1468,-1.1468,-1.1386,-1.1305,-1.1208,-1.1126,-1.094,-1.0639,-1.0504,-1.0162,-0.96,-0.8958,-0.8251,-0.7456,-0.6983,-0.6457,-0.5863,-0.6147,-0.6278,-0.631,-0.7041,-0.7932,-0.8956,-1.0216,-1.1289,-1.215,-1.2536,-1.2904,0.0,-1.2844,-1.2904,-1.3114,-1.2444,-1.2092,-1.1949,-1.1837,-1.1806,-1.1806,-1.1806,-1.1806,-1.1806,-1.1806,-1.1806,-1.1782,-1.1646,-1.1565,-1.1427,-1.1118,-1.0858,-1.055,-1.0061,-0.9762,-0.9486,-0.9202,-0.895,-0.8696,-0.8392,-0.8008,-0.7526,-0.6902,-0.6547,-0.6325,-0.6272,-0.6263,-0.6217,-0.6118,-0.609,-0.6152,-0.6301,-0.6848,-0.7428,-0.7956,-0.8972,-0.9753,-1.0174,-1.1043,-1.1659,-1.1898,-1.2613,-1.3108,-1.3402,-1.3725,-1.3904,-1.3904,-1.3985,-1.3735,-1.3185,-1.3289,-1.3043,-1.2501,-1.2501,-1.2501,-1.2501,-1.2501,-1.2269,-1.1843,-1.1223,-1.0602,-1.0047,-1.0237,-1.0307,-1.0324,-0.6855,-0.7426,-0.7947,-0.8122,-0.8731,-0.912,-0.8908,-0.9348,-0.9899,-1.0442,-1.0952,-1.1333,-1.1549,-1.1736,-1.1833,-1.1839,-1.1663,-1.1557,-1.1541,-1.1386,-1.1281,-1.1228,-1.0964,-1.065,-1.0268,-0.9535,-0.8761,-0.791,-0.7431,-0.6855,-0.6195,-0.6327,-0.6351,-0.6359,-0.6978,-0.79,-0.9108,-1.093,-1.1904,-1.2265,-1.2684,-1.3024,-1.3234,-1.2934,-1.2994,-1.3114,-1.2475,-1.2234,-1.2152,-1.1889,-1.1806,-1.1806,-1.1806,-1.1806,-1.1806,-1.1806,-1.1806,-1.1806,-1.1806,-1.1663,-1.1533,-1.1508,-1.1265,-1.0976,-1.0588,-1.0396,-1.0194,-0.981,-0.9608,-0.9364,-0.8958,-0.8392,-0.7756,-0.696,-0.6676,-0.6505,-0.6392,-0.6351,-0.6293,-0.6195,-0.6011,0.0,-0.6052,-0.6665,-0.7153,-0.7388,-0.8297,-0.9065,-0.9571,-1.0331,-1.1087,-1.1741,-1.245,-1.2977,-1.3402,-1.3725,-1.3912,-1.3937,-1.4063,-1.3809,-1.3252,-1.3356,-1.3085,-1.2501,-1.2501,-1.2501,-1.2501,-1.2501,-1.2269,-1.1805,-1.1029,-1.0447,-1.0069,-1.0139,-1.0177,-1.0199,-0.7679,-0.8151,-0.8549,-0.8852,-0.9372,-0.9901,-1.0257,-1.028,-1.0458,-1.0985,-1.1435,-1.1744,-1.1884,-1.2101,-1.215,-1.1965,-1.1924,-1.1874,-1.1736,-1.1695,-1.1614,-1.1459,-1.1395,-1.1118,-1.0607,-0.99,-0.9169,-0.8465,-0.7618,-0.6855,-0.6211,-0.6228,-0.6147,-0.6033,-0.7065,-0.8649,-1.059,-1.1774,-1.2515,-1.2954,-1.3375,-1.3564,-1.3594,-1.3534,-1.3384,-1.3144,-1.2754,-1.2414,-1.2152,-1.1889,-1.1806,-1.1806,-1.1806,-1.1806,-1.1806,-1.1806,-1.1806,-1.1806,-1.1806,-1.1782,-1.1725,-1.1541,-1.1451,-1.1354,-1.1106,-1.0948,-1.0797,-1.055,-1.0276,-0.9918,-0.938,-0.8576,-0.7918,-0.7638,-0.7434,-0.7304,-0.7271,-0.7131,-0.692,-0.6629,-0.6515,-0.6303,-0.5893,-0.6119,-0.644,-0.6817,-0.7628,-0.8363,-0.9004,-1.0053,-1.0914,-1.1516,-1.2354,-1.2977,-1.3402,-1.3725,-1.3977,-1.4131,-1.3829,-1.3606,-1.3453,-1.3135,-1.2817,-1.2501,-1.2501,-1.2501,-1.2501,-1.2501,-1.2269,-1.1843,-1.1378,-1.0913,-1.0447,-1.0158,-1.0052,-1.0068,-0.8503,-0.8942,-0.9356,-0.9624,-1.0168,-1.0696,-1.1053,-1.1171,-1.1325,-1.1576,-1.1882,-1.2085,-1.2166,-1.2255,-1.2272,-1.2151,-1.2174,-1.207,-1.1922,-1.1906,-1.1825,-1.1654,-1.1549,-1.1289,-1.087,-1.0251,-0.9494,-0.859,-0.7874,-0.71,-0.6302,-0.6302,-0.6261,-0.6229,-0.7723,-0.9254,-1.0827,-1.1934,-1.2682,-1.3136,-1.3553,-1.3594,-1.3444,-1.3444,-1.3234,-1.2904,-1.2565,-1.2324,-1.2152,-1.1889,-1.1806,-1.1806,-1.1806,-1.1806,-1.1806,-1.1806,-1.1806,-1.1806,-1.1806,-1.1806,-1.1782,-1.1663,-1.1676,-1.1598,-1.1411,-1.1305,-1.1191,-1.1005,-1.0789,-1.039,-0.9632,-0.8991,-0.8487,-0.8248,-0.8126,-0.7996,-0.778,-0.7683,-0.7453,-0.7007,-0.6768,-0.6507,-0.6145,-0.5946,-0.6047,-0.65,-0.7155,-0.7846,-0.8545,-0.954,-1.0471,-1.1321,-1.2111,-1.2824,-1.3402,-1.3636,-1.3904,-1.4217,-1.3867,-1.3632,-1.3491,-1.3161,-1.2818,-1.2501,-1.2501,-1.2501,-1.2501,-1.2501,-1.2269,-1.1843,-1.1456,-1.1029,-1.0563,-1.0136,-0.998,-1.003,-0.934,-0.9778,-1.0194,-1.0382,-1.0915,-1.1411,-1.1638,-1.1939,-1.2102,-1.2062,-1.2247,-1.2361,-1.2361,-1.2393,-1.2402,-1.2361,-1.2361,-1.228,-1.207,-1.2054,-1.2012,-1.1841,-1.1687,-1.1443,-1.1122,-1.0577,-0.9812,-0.8818,-0.8191,-0.745,-0.657,-0.6497,-0.6605,-0.6922,-0.8552,-0.9836,-1.0824,-1.1911,-1.2609,-1.2991,-1.3325,-1.3324,-1.3084,-1.3084,-1.2904,-1.2565,-1.2294,-1.2152,-1.2092,-1.1859,-1.1806,-1.1806,-1.1806,-1.1806,-1.1806,-1.1806,-1.1806,-1.1806,-1.1806,-1.1806,-1.1806,-1.1806,-1.1806,-1.1766,-1.1589,-1.1557,-1.1508,-1.1321,-1.1118,-1.0756,-0.9915,-0.9543,-0.9233,-0.8875,-0.8786,-0.8655,-0.8341,-0.8203,-0.7951,-0.7428,-0.7074,-0.675,-0.6432,-0.6019,-0.5933,-0.632,-0.6772,-0.7385,-0.8199,-0.908,-1.0063,-1.1106,-1.1906,-1.2629,-1.3337,-1.3536,-1.3808,-1.4127,-1.386,-1.3612,-1.3391,-1.3101,-1.2811,-1.2501,-1.2501,-1.2501,-1.2501,-1.2424,-1.2192,-1.1843,-1.134,-1.0913,-1.0563,-1.0136,-0.998,-0.998,-1.0215,-1.0607,-1.0951,-1.1094,-1.1459,-1.1841,-1.2182,-1.2425,-1.249,-1.2304,-1.2466,-1.2572,-1.2572,-1.2686,-1.2686,-1.2588,-1.2572,-1.2499,-1.2296,-1.228,-1.2167,-1.1981,-1.1957,-1.1817,-1.1459,-1.0923,-1.0274,-0.9502,-0.8666,-0.787,-0.7121,-0.6806,-0.7252,-0.8345,-0.9435,-1.041,-1.1276,-1.201,-1.2378,-1.2493,-1.2696,-1.2784,-1.2754,-1.2754,-1.2535,-1.2234,-1.2204,-1.2031,-1.1837,-1.1806,-1.1806,-1.1806,-1.1806,-1.1806,-1.1806,-1.1806,-1.1806,-1.1806,-1.1806,-1.1806,-1.1806,-1.1806,-1.1806,-1.1806,-1.1782,-1.1782,-1.1695,-1.1508,-1.1236,-1.087,-1.0409,-1.0193,-0.9966,-0.9559,-0.9413,-0.9314,-0.9282,-0.8843,-0.8395,-0.7963,-0.7626,-0.7147,-0.6464,-0.6359,-0.6302,-0.6219,-0.6375,-0.6928,-0.7963,-0.8916,-0.9901,-1.0984,-1.1849,-1.2572,-1.3116,-1.362,-1.3842,-1.3831,-1.3619,-1.3406,-1.3137,-1.2726,-1.254,-1.2501,-1.2501,-1.2501,-1.2463,-1.2114,-1.1921,-1.1805,-1.099,-1.0641,-1.0563,-1.0136,-0.998,-0.998,-1.1045,-1.1451,-1.1792,-1.1857,-1.2255,-1.2613,-1.2759,-1.2963,-1.302,-1.28,-1.2751,-1.2726,-1.2726,-1.2759,-1.2775,-1.2735,-1.2726,-1.2653,-1.2507,-1.249,-1.2385,-1.2207,-1.2054,-1.1914,-1.1671,-1.1163,-1.0585,-0.9949,-0.9161,-0.8519,-0.8024,-0.765,-0.8043,-0.9068,-0.9829,-1.065,-1.1442,-1.1976,-1.2274,-1.2431,-1.2615,-1.2565,-1.2384,-1.2384,-1.2212,-1.1949,-1.1949,-1.1889,-1.1806,-1.1806,-1.1806,-1.1806,-1.1806,-1.1806,-1.1806,-1.1806,-1.1806,-1.1806,-1.1806,-1.1806,-1.1806,-1.1806,-1.1806,-1.1806,-1.1806,-1.1806,-1.1782,-1.1709,-1.1497,-1.1208,-1.0928,-1.0761,-1.0553,-1.0142,-1.0054,-0.9892,-0.9567,-0.9266,-0.8891,-0.8419,-0.7955,-0.7515,-0.7098,-0.6765,-0.6603,-0.6678,-0.6612,-0.6993,-0.7939,-0.8771,-0.9771,-1.096,-1.166,-1.225,-1.273,-1.3072,-1.3302,-1.3438,-1.3095,-1.2991,-1.3081,-1.2695,-1.2501,-1.2501,-1.2231,-1.2153,-1.2114,-1.1727,-1.1533,-1.1495,-1.0835,-1.0602,-1.0563,-1.0136,-0.998,-0.998,-1.1882,-1.2239,-1.254,-1.254,-1.2889,-1.3173,-1.3173,-1.3321,-1.3362,-1.3223,-1.3086,-1.2996,-1.2807,-1.2807,-1.2807,-1.2807,-1.2807,-1.275,-1.2686,-1.2678,-1.2564,-1.2393,-1.2255,-1.2085,-1.1857,-1.1456,-1.0968,-1.043,-0.9763,-0.925,-0.89,-0.8675,-0.8993,-0.9792,-1.0459,-1.1067,-1.1649,-1.2058,-1.2242,-1.229,-1.2449,-1.2323,-1.2092,-1.2092,-1.1949,-1.1806,-1.1806,-1.1806,-1.1806,-1.1806,-1.1806,-1.1806,-1.1806,-1.1806,-1.1806,-1.1806,-1.1806,-1.1806,-1.1806,-1.1806,-1.1806,-1.1806,-1.1806,-1.1806,-1.1806,-1.1806,-1.1806,-1.1806,-1.1701,-1.1524,-1.1338,-1.1208,-1.1013,-1.0647,-1.0523,-1.0312,-0.9851,-0.9559,-0.9224,-0.872,-0.8232,-0.7841,-0.7605,-0.7239,-0.7061,-0.7143,-0.71,-0.7391,-0.8138,-0.8861,-0.9752,-1.0892,-1.1417,-1.1909,-1.236,-1.2582,-1.2826,-1.3029,-1.2812,-1.2788,-1.2926,-1.2617,-1.2424,-1.2308,-1.2037,-1.1843,-1.1688,-1.1262,-1.1107,-1.1068,-1.0602,-1.0408,-1.0408,-1.0097,-0.998,-0.998,-1.275,-1.2962,-1.3084,-1.3084,-1.3272,-1.3402,-1.3402,-1.3402,-1.3402,-1.3402,-1.351,-1.3394,-1.2856,-1.2807,-1.2807,-1.2807,-1.2807,-1.2807,-1.2799,-1.2799,-1.2751,-1.2596,-1.2588,-1.2425,-1.2005,-1.1857,-1.153,-1.0984,-1.0439,-0.9991,-0.9591,-0.9854,-1.0196,-1.0611,-1.1426,-1.1808,-1.1921,-1.2322,-1.2297,-1.202,-1.1997,-1.1931,-1.1806,-1.1806,-1.1806,-1.1806,-1.1806,-1.1806,-1.1806,-1.1806,-1.1806,-1.1806,-1.1806,-1.1806,-1.1806,-1.1806,-1.1806,-1.1806,-1.1806,-1.1806,-1.1806,-1.1806,-1.1806,-1.1806,-1.1806,-1.1806,-1.1806,-1.1806,-1.1806,-1.1719,-1.1533,-1.1492,-1.1378,-1.1049,-1.0837,-1.0593,-1.0235,-0.9739,-0.9242,-0.8838,-0.8503,-0.8167,-0.7829,-0.7788,-0.7714,-0.7507,-0.7797,-0.8162,-0.8558,-0.9234,-0.993,-1.0666,-1.1231,-1.1678,-1.1989,-1.235,-1.2545,-1.262,-1.2806,-1.2772,-1.2501,-1.2501,-1.2269,-1.1921,-1.1882,-1.1688,-1.1262,-1.0796,-1.0602,-1.0563,-1.0175,-1.0019,-1.0019,-0.998,-0.998,-0.998,-1.3189,-1.3549,-1.3837,-1.3837,-1.4205,-1.4481,-1.4481,-1.4481,-1.4465,-1.4371,-1.4397,-1.4285,-1.3993,-1.371,-1.3555,-1.3555,-1.3555,-1.3555,-1.3555,-1.3555,-1.3521,-1.3494,-1.3341,-1.3221,-1.3101,-1.2597,-1.2202,-1.1892,-1.12,-1.0704,-1.0355,-1.068,-1.0954,-1.1236,-1.1715,-1.2037,-1.2176,-1.2299,-1.2317,-1.2175,-1.2046,-1.1965,-1.1939,-1.1817,-1.1806,-1.1806,-1.1806,-1.1806,-1.1806,-1.1806,-1.1806,-1.1806,-1.1806,-1.1806,-1.1806,-1.1806,-1.1806,-1.1806,-1.1806,-1.1806,-1.1806,-1.1806,-1.1866,-1.1947,-1.1947,-1.2044,-1.2101,-1.1971,-1.1947,-1.1898,-1.1719,-1.1687,-1.1565,-1.12,-1.1094,-1.0787,-1.0039,-0.9654,-0.9337,-0.8965,-0.8595,-0.841,-0.8473,-0.8403,-0.8326,-0.8248,-0.8552,-0.8747,-0.8739,-0.9535,-1.0211,-1.0682,-1.1425,-1.1745,-1.1584,-1.1934,-1.2066,-1.2052,-1.224,-1.2416,-1.2501,-1.2501,-1.2269,-1.1882,-1.1611,-1.1223,-1.0796,-1.0369,-1.0175,-1.0175,-1.0058,-0.998,-0.998,-0.998,-0.998,-0.998,-1.4005,-1.4256,-1.4508,-1.4508,-1.4788,-1.5017,-1.5017,-1.5017,-1.4973,-1.4885,-1.4937,-1.4953,-1.4828,-1.4625,-1.4427,-1.4161,-1.4128,-1.4093,-1.4031,-1.4022,-1.3987,-1.3908,-1.3769,-1.3673,-1.3602,-1.3207,-1.2888,-1.269,-1.203,-1.1528,-1.12,-1.139,-1.1622,-1.1817,-1.2101,-1.2296,-1.241,-1.2475,-1.2467,-1.2393,-1.228,-1.219,-1.2086,-1.202,-1.1931,-1.1874,-1.1874,-1.1833,-1.1806,-1.1806,-1.1806,-1.1806,-1.1806,-1.1817,-1.1857,-1.1792,-1.1855,-1.1857,-1.1823,-1.1904,-1.1955,-1.189,-1.2004,-1.2102,-1.2102,-1.2223,-1.2255,-1.2038,-1.1997,-1.1949,-1.1809,-1.1749,-1.1573,-1.1244,-1.1052,-1.0675,-0.9915,-0.9543,-0.9258,-0.8957,-0.8634,-0.8559,-0.891,-0.8869,-0.8874,-0.8966,-0.9323,-0.9453,-0.9331,-0.9938,-1.0425,-1.0791,-1.1381,-1.1578,-1.1329,-1.158,-1.1752,-1.1793,-1.2047,-1.2271,-1.2501,-1.2501,-1.2192,-1.165,-1.1417,-1.0952,-1.0369,-1.0097,-0.998,-0.998,-0.998,-0.998,-0.998,-0.998,-0.998,-0.998,-1.4998,-1.5034,-1.507,-1.5052,-1.5052,-1.5088,-1.5088,-1.5088,-1.5088,-1.5088,-1.5246,-1.5373,-1.5373,-1.5518,-1.5363,-1.467,-1.4591,-1.446,-1.4292,-1.4265,-1.4168,-1.3982,-1.3973,-1.3894,-1.3684,-1.3684,-1.3523,-1.329,-1.2818,-1.2423,-1.2021,-1.203,-1.2127,-1.2328,-1.2539,-1.2613,-1.2629,-1.2767,-1.2735,-1.2613,-1.2596,-1.2499,-1.232,-1.2312,-1.2167,-1.2021,-1.2021,-1.1947,-1.1839,-1.1839,-1.1839,-1.1839,-1.1839,-1.1922,-1.1981,-1.1841,-1.1914,-1.1981,-1.1857,-1.2052,-1.2264,-1.2062,-1.2159,-1.2328,-1.2337,-1.2345,-1.2288,-1.2054,-1.2021,-1.1996,-1.1839,-1.1622,-1.1435,-1.1219,-1.0822,-1.0342,-0.9862,-0.9393,-0.9031,-0.8832,-0.8652,-0.8721,-0.9191,-0.9232,-0.9356,-0.9631,-0.9979,-1.0227,-1.026,-1.0357,-1.0603,-1.0977,-1.1156,-1.1216,-1.1193,-1.1321,-1.1552,-1.1813,-1.2135,-1.2352,-1.2501,-1.2501,-1.2076,-1.1301,-1.1301,-1.0796,-0.998,-0.998,-0.998,-0.998,-0.998,-0.998,-0.998,-0.998,-0.998,-0.998,-1.5343,-1.5516,-1.565,-1.5497,-1.5718,-1.5931,-1.5931,-1.5931,-1.5931,-1.5931,-1.5964,-1.6007,-1.6007,-1.603,-1.6002,-1.5817,-1.531,-1.5013,-1.4967,-1.4827,-1.4716,-1.467,-1.467,-1.4651,-1.4605,-1.4335,-1.3846,-1.314,-1.2889,-1.2576,-1.2247,-1.2377,-1.249,-1.2539,-1.2694,-1.2742,-1.2742,-1.2783,-1.2775,-1.2726,-1.2653,-1.2572,-1.2523,-1.2353,-1.228,-1.2239,-1.2239,-1.2215,-1.2182,-1.2182,-1.2182,-1.2182,-1.2182,-1.2207,-1.2207,-1.202,-1.207,-1.2231,-1.219,-1.2239,-1.2296,-1.2247,-1.2377,-1.2572,-1.2645,-1.2678,-1.2588,-1.2273,-1.2239,-1.2142,-1.1863,-1.1622,-1.1435,-1.1219,-1.0822,-1.0298,-0.9724,-0.9367,-0.9145,-0.9029,-0.8994,-0.9109,-0.9536,-0.9578,-0.9712,-1.0034,-1.016,-1.0387,-1.0804,-1.071,-1.0664,-1.0784,-1.1297,-1.1468,-1.12,-1.143,-1.1714,-1.2043,-1.2118,-1.225,-1.2501,-1.2501,-1.2076,-1.1301,-1.1301,-1.0796,-0.998,-0.998,-0.998,-0.998,-0.998,-0.998,-0.998,-0.998,-0.998,-0.998,-1.6049,-1.6122,-1.6128,-1.6017,-1.6138,-1.6178,-1.6178,-1.6178,-1.6178,-1.6178,-1.6178,-1.6178,-1.6178,-1.6178,-1.6178,-1.6178,-1.5867,-1.5583,-1.5394,-1.5281,-1.513,-1.4908,-1.4735,-1.467,-1.467,-1.4342,-1.3864,-1.3247,-1.3137,-1.2902,-1.2516,-1.2645,-1.2686,-1.2694,-1.2759,-1.2807,-1.2807,-1.2807,-1.2807,-1.2799,-1.2726,-1.2686,-1.2678,-1.2588,-1.2499,-1.2426,-1.2426,-1.2377,-1.2304,-1.2304,-1.2304,-1.2304,-1.2304,-1.2361,-1.2402,-1.2304,-1.2345,-1.241,-1.2328,-1.2426,-1.2516,-1.2516,-1.2621,-1.2718,-1.2783,-1.2807,-1.2702,-1.2377,-1.2304,-1.2174,-1.1727,-1.15,-1.1255,-1.0935,-1.0478,-0.9999,-0.95,-0.9204,-0.9056,-0.9002,-0.9154,-0.9384,-0.9795,-0.9932,-1.0091,-1.0407,-1.0524,-1.0651,-1.0852,-1.084,-1.0852,-1.0852,-1.1257,-1.1365,-1.12,-1.1463,-1.1769,-1.2098,-1.2098,-1.2254,-1.2501,-1.2501,-1.2076,-1.1301,-1.1301,-1.0796,-0.998,-0.998,-0.998,-0.998,-0.998,-0.998,-0.998,-0.998,-1.0057,-1.0101,-1.6813,-1.6679,-1.6555,-1.6526,-1.6311,-1.6178,-1.6178,-1.6178,-1.6178,-1.6178,-1.6178,-1.6178,-1.6178,-1.6178,-1.6178,-1.6178,-1.6178,-1.6053,-1.5665,-1.5579,-1.5347,-1.4964,-1.459,-1.4408,-1.4408,-1.4071,-1.3752,-1.34,-1.34,-1.3202,-1.2807,-1.2807,-1.2807,-1.2807,-1.2807,-1.2807,-1.2807,-1.2807,-1.2807,-1.2807,-1.2807,-1.2807,-1.2807,-1.2807,-1.2743,-1.2637,-1.2637,-1.2515,-1.2385,-1.2385,-1.2385,-1.2385,-1.2385,-1.2491,-1.2637,-1.2637,-1.2637,-1.2604,-1.2426,-1.2572,-1.2807,-1.2807,-1.2807,-1.2807,-1.2807,-1.2774,-1.2637,-1.2282,-1.2178,-1.1994,-1.1481,-1.1216,-1.0917,-1.0519,-1.0054,-0.9642,-0.9307,-0.9078,-0.8967,-0.9034,-0.9293,-0.9605,-1.0023,-1.021,-1.0409,-1.0691,-1.0838,-1.0874,-1.0785,-1.0901,-1.0993,-1.1014,-1.1131,-1.122,-1.1268,-1.1491,-1.1769,-1.2098,-1.2098,-1.2254,-1.2501,-1.2501,-1.2076,-1.1301,-1.1301,-1.0796,-0.998,-0.998,-0.998,-0.998,-0.998,-0.998,-0.998,-0.998,-1.0095,-1.0204,-1.7067,-1.6897,-1.6698,-1.6509,-1.6311,-1.6178,-1.6178,-1.6178,-1.6178,-1.6178,-1.6178,-1.6178,-1.6178,-1.6178,-1.6178,-1.6178,-1.6178,-1.611,-1.5863,-1.5479,-1.5219,-1.5153,-1.4655,-1.4408,-1.4408,-1.4071,-1.3752,-1.34,-1.34,-1.3202,-1.2807,-1.2807,-1.2807,-1.2807,-1.2807,-1.2807,-1.2807,-1.2807,-1.2807,-1.2807,-1.2807,-1.2807,-1.2807,-1.2807,-1.2791,-1.2759,-1.2759,-1.2742,-1.2718,-1.2718,-1.2718,-1.2718,-1.2718,-1.2742,-1.2759,-1.2759,-1.2759,-1.2759,-1.2726,-1.2759,-1.2807,-1.2807,-1.2807,-1.2807,-1.2807,-1.2568,-1.2277,-1.1932,-1.164,-1.1337,-1.0974,-1.0649,-1.0409,-1.0328,-0.9849,-0.9466,-0.9546,-0.9328,-0.9288,-0.9609,-0.9697,-0.9863,-1.021,-1.029,-1.043,-1.0745,-1.0664,-1.0746,-1.1103,-1.0992,-1.1002,-1.1159,-1.1193,-1.1322,-1.1545,-1.1592,-1.1769,-1.2098,-1.2098,-1.2254,-1.2501,-1.2501,-1.2076,-1.1301,-1.1301,-1.0796,-0.998,-0.998,-0.998,-0.998,-0.998,-0.998,-0.998,-0.998,-1.0095,-1.0204,-1.7294,-1.6927,-1.6573,-1.636,-1.5976,-1.5668,-1.5559,-1.5541,-1.5541,-1.5541,-1.5753,-1.5895,-1.5895,-1.6072,-1.6178,-1.6178,-1.6178,-1.6176,-1.6072,-1.5744,-1.547,-1.521,-1.4618,-1.4055,-1.3555,-1.3391,-1.3227,-1.3071,-1.3071,-1.2972,-1.2807,-1.2807,-1.2807,-1.2807,-1.2807,-1.2807,-1.2807,-1.2807,-1.2807,-1.2807,-1.2807,-1.2807,-1.2807,-1.2807,-1.2807,-1.2807,-1.2807,-1.2807,-1.2807,-1.2807,-1.2807,-1.2807,-1.2807,-1.2807,-1.2807,-1.2807,-1.2807,-1.2807,-1.2807,-1.2807,-1.2774,-1.2568,-1.2536,-1.247,-1.2305,-1.214,-1.1972,-1.1696,-1.1447,-1.1188,-1.0852,-1.0599,-1.0317,-1.0055,-0.9803,-0.9596,-0.9495,-0.9502,-0.9591,-0.9765,-1.0032,-1.0236,-1.0378,-1.0466,-1.062,-1.0833,-1.0763,-1.0866,-1.1185,-1.1091,-1.1131,-1.1315,-1.1322,-1.1396,-1.1619,-1.1584,-1.1769,-1.2098,-1.2098,-1.2141,-1.2192,-1.2192,-1.1727,-1.0913,-1.0913,-1.0563,-0.998,-0.998,-0.998,-0.998,-0.998,-0.998,-0.998,-0.998,-1.0139,-1.0302,-1.7121,-1.6727,-1.631,-1.6156,-1.5666,-1.5245,-1.5096,-1.5043,-1.5017,-1.5017,-1.5257,-1.547,-1.547,-1.5753,-1.5931,-1.5931,-1.5931,-1.5931,-1.5931,-1.5782,-1.5565,-1.5226,-1.4486,-1.3703,-1.2897,-1.2864,-1.2888,-1.2929,-1.2888,-1.2888,-1.2929,-1.284,-1.2823,-1.2864,-1.2823,-1.2807,-1.2807,-1.2807,-1.2807,-1.2807,-1.2807,-1.2807,-1.2807,-1.2807,-1.2807,-1.2807,-1.2807,-1.2807,-1.2807,-1.2807,-1.2807,-1.2807,-1.2807,-1.2807,-1.2766,-1.2708,-1.2634,-1.2568,-1.2675,-1.2634,-1.251,-1.2239,-1.2173,-1.2114,-1.185,-1.1743,-1.16,-1.1431,-1.1241,-1.1034,-1.0749,-1.0536,-1.0256,-0.9856,-0.9777,-0.9705,-0.9505,-0.968,-0.9832,-0.9964,-1.0283,-1.0507,-1.0541,-1.0683,-1.0786,-1.0907,-1.0948,-1.1063,-1.124,-1.1247,-1.1322,-1.1436,-1.1443,-1.1497,-1.1619,-1.1617,-1.1803,-1.2098,-1.2026,-1.1985,-1.1882,-1.1805,-1.134,-1.0602,-1.0602,-1.0369,-0.998,-0.998,-0.998,-0.998,-0.998,-0.998,-0.998,-0.998,-1.0161,-1.0346,-1.628,-1.6083,-1.5942,-1.5925,-1.558,-1.5289,-1.5271,-1.5122,-1.5017,-1.5017,-1.5017,-1.5052,-1.5052,-1.5088,-1.5088,-1.5088,-1.5088,-1.5088,-1.5088,-1.507,-1.515,-1.5283,-1.4231,-1.3461,-1.3076,-1.3076,-1.3157,-1.337,-1.3157,-1.3165,-1.3362,-1.2961,-1.2888,-1.3068,-1.2872,-1.2807,-1.2807,-1.2807,-1.2807,-1.2807,-1.2807,-1.2807,-1.2807,-1.2807,-1.2807,-1.2807,-1.2807,-1.2807,-1.2807,-1.2807,-1.2807,-1.2807,-1.2807,-1.2807,-1.2741,-1.2437,-1.2114,-1.1942,-1.2239,-1.2114,-1.1883,-1.1843,-1.1843,-1.1843,-1.1817,-1.1512,-1.1205,-1.1073,-1.0772,-1.0522,-1.0372,-1.0183,-0.9995,-0.9815,-0.9709,-0.9639,-0.9768,-0.9778,-0.9978,-1.0392,-1.0473,-1.0548,-1.0657,-1.0806,-1.0901,-1.0914,-1.107,-1.1247,-1.1369,-1.1375,-1.1443,-1.1563,-1.1599,-1.157,-1.1584,-1.1712,-1.1898,-1.2098,-1.1863,-1.1779,-1.1882,-1.1495,-1.1068,-1.0602,-1.0602,-1.0369,-0.998,-0.998,-0.998,-0.998,-0.998,-0.998,-0.998,-0.998,-1.0101,-1.0215,-1.6203,-1.5951,-1.5666,-1.5546,-1.5092,-1.4697,-1.4625,-1.4449,-1.4332,-1.4332,-1.4546,-1.4688,-1.4688,-1.4874,-1.5017,-1.5017,-1.5017,-1.5017,-1.5017,-1.5017,-1.4894,-1.4623,-1.4087,-1.3645,-1.3296,-1.3305,-1.3337,-1.3402,-1.3337,-1.3337,-1.3402,-1.323,-1.3206,-1.3288,-1.3076,-1.2994,-1.2986,-1.2848,-1.2807,-1.2807,-1.2807,-1.2807,-1.2807,-1.2807,-1.2807,-1.2807,-1.2807,-1.2807,-1.2807,-1.2807,-1.2675,-1.2503,-1.2503,-1.2338,-1.214,-1.2041,-1.171,-1.1446,-1.1578,-1.171,-1.1743,-1.1479,-1.1413,-1.138,-1.1181,-1.0982,-1.0869,-1.0807,-1.0652,-1.0473,-1.0419,-1.029,-1.0175,-1.0114,-1.0059,-1.0046,-1.01,-1.0181,-1.0304,-1.0473,-1.0575,-1.0697,-1.0813,-1.088,-1.0988,-1.1171,-1.1274,-1.1369,-1.1525,-1.1531,-1.1558,-1.1619,-1.1584,-1.1584,-1.1584,-1.1726,-1.1911,-1.2098,-1.1838,-1.1638,-1.1495,-1.1068,-1.0641,-1.0214,-1.0214,-1.0136,-0.998,-0.998,-0.998,-0.998,-0.998,-0.998,-0.998,-0.998,-1.0095,-1.0204,-1.582,-1.5582,-1.5387,-1.5215,-1.4773,-1.4354,-1.4278,-1.4058,-1.3904,-1.3904,-1.4154,-1.4296,-1.4296,-1.451,-1.4652,-1.4652,-1.4652,-1.4652,-1.4652,-1.4652,-1.4531,-1.4195,-1.3938,-1.3699,-1.3457,-1.3457,-1.3482,-1.3573,-1.3482,-1.3482,-1.353,-1.3459,-1.3435,-1.3449,-1.3262,-1.3181,-1.3165,-1.2994,-1.2888,-1.2888,-1.2756,-1.2722,-1.2689,-1.259,-1.2556,-1.2549,-1.2493,-1.2503,-1.2503,-1.2503,-1.2338,-1.214,-1.214,-1.1909,-1.1611,-1.1611,-1.1383,-1.1126,-1.1126,-1.1361,-1.1509,-1.1143,-1.1049,-1.0982,-1.075,-1.0684,-1.0684,-1.0684,-1.0636,-1.0575,-1.0629,-1.0514,-1.0419,-1.0419,-1.0378,-1.0344,-1.0344,-1.0432,-1.0507,-1.0561,-1.0623,-1.0745,-1.0901,-1.0955,-1.1118,-1.1369,-1.1436,-1.1511,-1.1613,-1.1584,-1.1584,-1.1584,-1.1624,-1.1651,-1.1651,-1.183,-1.1905,-1.1985,-1.1714,-1.1407,-1.1068,-1.0602,-1.0253,-0.998,-0.998,-0.998,-0.998,-0.998,-0.998,-0.998,-0.998,-0.998,-0.998,-0.998,-1.0074,-1.0144,-1.5006,-1.5006,-1.5006,-1.5006,-1.4667,-1.4395,-1.4395,-1.4131,-1.3904,-1.3904,-1.3904,-1.3904,-1.3904,-1.3904,-1.3904,-1.3904,-1.3904,-1.3904,-1.3904,-1.3904,-1.4,-1.4195,-1.3819,-1.3609,-1.3609,-1.3609,-1.3698,-1.3904,-1.3698,-1.3698,-1.3896,-1.3573,-1.3474,-1.3601,-1.3457,-1.341,-1.3394,-1.3173,-1.3092,-1.3066,-1.2671,-1.2502,-1.2468,-1.2131,-1.1996,-1.1981,-1.1844,-1.1784,-1.1784,-1.1817,-1.1817,-1.1817,-1.1784,-1.1519,-1.1181,-1.1188,-1.1067,-1.0914,-1.0914,-1.1056,-1.1125,-1.0799,-1.0691,-1.0691,-1.0691,-1.0691,-1.0691,-1.0691,-1.0691,-1.0738,-1.0887,-1.0792,-1.0691,-1.0691,-1.0595,-1.0493,-1.0493,-1.0493,-1.0548,-1.0671,-1.0691,-1.0745,-1.0867,-1.1084,-1.1261,-1.1382,-1.1531,-1.1584,-1.1584,-1.1584,-1.1584,-1.1584,-1.1719,-1.1793,-1.18,-1.1986,-1.1954,-1.1682,-1.1432,-1.1068,-1.0602,-1.0175,-0.998,-0.998,-0.998,-0.998,-0.998,-0.998,-0.998,-0.998,-0.998,-0.998,-0.998,-0.998,-0.998,-0.998,-1.5006,-1.5006,-1.5006,-1.5006,-1.4773,-1.4549,-1.4411,-1.4245,-1.405,-1.392,-1.3904,-1.3904,-1.3904,-1.3904,-1.3904,-1.3904,-1.3904,-1.3904,-1.3904,-1.3904,-1.3915,-1.4,-1.3858,-1.3823,-1.3823,-1.3823,-1.3847,-1.3904,-1.3847,-1.3847,-1.3896,-1.379,-1.3774,-1.3815,-1.3609,-1.3528,-1.3512,-1.3051,-1.2877,-1.2843,-1.2433,-1.2296,-1.2296,-1.2194,-1.2125,-1.2152,-1.21,-1.2085,-1.207,-1.1959,-1.1788,-1.1553,-1.125,-1.1082,-1.1035,-1.1172,-1.1166,-1.1097,-1.1097,-1.1166,-1.1179,-1.1084,-1.0955,-1.0874,-1.1009,-1.0955,-1.0874,-1.1009,-1.1063,-1.1043,-1.109,-1.1097,-1.0961,-1.0688,-1.0529,-1.0331,-1.0069,-0.9954,-0.9943,-0.9987,-1.0042,-1.0149,-1.0329,-1.0676,-1.0889,-1.0782,-1.0796,-1.0815,-1.0815,-1.1038,-1.1234,-1.1405,-1.1663,-1.1784,-1.1735,-1.1781,-1.1789,-1.1682,-1.1085,-1.0758,-1.0602,-1.0175,-0.998,-0.998,-0.998,-0.998,-0.998,-0.998,-0.998,-0.998,-0.998,-0.998,-0.998,-0.998,-1.0074,-1.015,-1.5006,-1.5006,-1.5006,-1.5006,-1.4822,-1.4643,-1.4419,-1.4286,-1.4115,-1.3928,-1.3904,-1.3928,-1.4002,-1.3945,-1.3928,-1.4002,-1.3945,-1.3904,-1.3904,-1.3969,-1.401,-1.401,-1.4075,-1.4042,-1.3904,-1.3977,-1.3977,-1.3904,-1.3904,-1.3904,-1.3904,-1.3904,-1.3904,-1.3896,-1.3613,-1.3495,-1.3451,-1.292,-1.2677,-1.2643,-1.2226,-1.2088,-1.2088,-1.1949,-1.1879,-1.1872,-1.18,-1.1813,-1.1799,-1.1713,-1.1548,-1.1343,-1.1104,-1.1029,-1.105,-1.1172,-1.124,-1.1288,-1.1288,-1.1336,-1.1341,-1.1341,-1.1185,-1.1056,-1.1179,-1.1097,-1.1056,-1.1179,-1.12,-1.1179,-1.1066,-1.0998,-1.0833,-1.0515,-1.0332,-1.015,-0.9857,-0.9798,-0.9795,-0.9747,-0.9817,-0.9951,-1.0125,-1.0387,-1.0563,-1.0515,-1.0491,-1.0516,-1.0535,-1.0722,-1.0931,-1.1106,-1.1349,-1.1464,-1.1409,-1.1313,-1.1261,-1.1261,-1.08,-1.0525,-1.0369,-1.0097,-0.998,-0.998,-0.998,-0.998,-0.998,-0.998,-0.998,-1.0025,-1.0074,-1.009,-1.0101,-1.0144,-1.021,-1.0275,-1.5006,-1.5006,-1.5006,-1.5006,-1.4838,-1.4667,-1.4444,-1.4326,-1.4156,-1.3977,-1.3945,-1.401,-1.418,-1.405,-1.4018,-1.4188,-1.4042,-1.3945,-1.3928,-1.4099,-1.4205,-1.4168,-1.4293,-1.4221,-1.3845,-1.4079,-1.4115,-1.3945,-1.3937,-1.3928,-1.3928,-1.3868,-1.3868,-1.3833,-1.3432,-1.3253,-1.321,-1.271,-1.2474,-1.2431,-1.2044,-1.1868,-1.1832,-1.1515,-1.1409,-1.1396,-1.1288,-1.124,-1.1234,-1.122,-1.1206,-1.12,-1.1213,-1.122,-1.122,-1.1234,-1.1336,-1.1409,-1.1409,-1.1511,-1.1584,-1.1584,-1.1374,-1.1206,-1.124,-1.1192,-1.1151,-1.1164,-1.1171,-1.1072,-1.0818,-1.0665,-1.0515,-1.0225,-1.0057,-0.993,-0.9769,-0.9847,-0.9871,-0.9751,-0.9853,-0.9986,-1.0071,-1.0095,-1.022,-1.0443,-1.0432,-1.0456,-1.0504,-1.0522,-1.0626,-1.0765,-1.093,-1.0996,-1.097,-1.0738,-1.0602,-1.0602,-1.0563,-1.0369,-0.998,-0.998,-0.998,-0.998,-0.998,-0.998,-0.998,-0.998,-0.998,-0.9991,-1.0155,-1.0204,-1.0221,-1.034,-1.0394,-1.04,-1.5006,-1.5006,-1.5006,-1.5006,-1.4974,-1.4884,-1.4676,-1.4619,-1.4529,-1.4306,-1.4282,-1.4298,-1.4338,-1.4306,-1.4298,-1.4338,-1.4306,-1.4261,-1.4123,-1.4278,-1.4236,-1.3911,-1.4068,-1.3911,-1.3369,-1.4027,-1.4359,-1.4282,-1.418,-1.4115,-1.4115,-1.3646,-1.3432,-1.3396,-1.3075,-1.2896,-1.2896,-1.2437,-1.2287,-1.2216,-1.1822,-1.1679,-1.1679,-1.1572,-1.1572,-1.1565,-1.1531,-1.1518,-1.1504,-1.1382,-1.1295,-1.122,-1.1301,-1.1376,-1.1362,-1.1484,-1.1545,-1.1572,-1.1572,-1.1592,-1.1584,-1.1584,-1.1321,-1.1126,-1.1446,-1.1182,-1.0918,-1.1035,-1.0834,-1.0626,-1.0586,-1.0531,-1.0412,-1.0012,-0.9841,-0.9648,-0.9303,-0.9166,-0.9116,-0.9089,-0.9229,-0.9318,-0.9346,-0.9429,-0.9634,-0.9987,-0.9831,-0.9716,-0.9744,-1.0093,-1.0352,-1.0556,-1.0858,-1.0886,-1.0678,-1.063,-1.0602,-1.0602,-1.0291,-1.0097,-0.998,-0.998,-0.998,-0.998,-0.998,-0.998,-0.998,-0.998,-0.998,-0.9991,-1.0155,-1.0204,-1.0221,-1.034,-1.0484,-1.056,-1.5006,-1.5006,-1.5006,-1.5006,-1.5006,-1.4949,-1.4732,-1.4708,-1.4643,-1.4419,-1.4395,-1.4427,-1.4516,-1.4444,-1.4395,-1.4395,-1.4395,-1.4289,-1.4016,-1.4167,-1.4076,-1.3672,-1.3832,-1.3763,-1.3453,-1.3861,-1.4002,-1.3839,-1.3761,-1.3675,-1.3626,-1.3315,-1.3115,-1.3039,-1.2689,-1.251,-1.2474,-1.2086,-1.1907,-1.1907,-1.1691,-1.1584,-1.1584,-1.1584,-1.1584,-1.1584,-1.1584,-1.1584,-1.1606,-1.1525,-1.145,-1.1396,-1.1477,-1.1497,-1.1518,-1.1599,-1.1584,-1.1584,-1.1584,-1.1584,-1.1548,-1.1368,-1.1152,-1.1044,-1.126,-1.098,-1.0697,-1.0737,-1.0635,-1.0455,-1.0239,-1.0203,-1.0095,-0.9663,-0.954,-0.9407,-0.9144,-0.9092,-0.9065,-0.9011,-0.9109,-0.9179,-0.9179,-0.9269,-0.9401,-0.9675,-0.9595,-0.9536,-0.965,-0.9866,-1.0106,-1.0268,-1.0428,-1.0462,-1.033,-1.0291,-1.0291,-1.0291,-1.0097,-0.998,-0.998,-0.998,-0.998,-0.998,-0.998,-0.998,-0.998,-0.998,-1.0057,-1.0123,-1.0242,-1.0324,-1.0384,-1.0509,-1.059,-1.0645,-1.5006,-1.5006,-1.5006,-1.5006,-1.5006,-1.4958,-1.4773,-1.4757,-1.47,-1.4508,-1.4484,-1.4578,-1.4732,-1.4611,-1.4476,-1.4369,-1.4393,-1.4215,-1.3782,-1.3936,-1.3839,-1.346,-1.3555,-1.3583,-1.3505,-1.3505,-1.3419,-1.3304,-1.3275,-1.3185,-1.3088,-1.2956,-1.2859,-1.2726,-1.2273,-1.2086,-1.2086,-1.1727,-1.1584,-1.1584,-1.1611,-1.1604,-1.1584,-1.1647,-1.1604,-1.1584,-1.1584,-1.1584,-1.1584,-1.1584,-1.1584,-1.1584,-1.1584,-1.1584,-1.1584,-1.1512,-1.1512,-1.1476,-1.144,-1.1404,-1.1332,-1.1008,-1.0864,-1.0828,-1.0828,-1.0606,-1.0383,-1.0383,-1.0347,-1.0203,-0.9843,-0.9807,-0.9699,-0.9338,-0.9302,-0.9269,-0.9141,-0.9242,-0.9269,-0.9136,-0.9247,-0.9302,-0.9302,-0.9323,-0.9378,-0.9481,-0.9525,-0.9633,-0.9791,-0.9818,-0.9878,-0.998,-0.998,-0.998,-0.998,-0.998,-0.998,-0.998,-0.998,-0.998,-0.998,-0.998,-0.998,-0.998,-0.998,-0.998,-0.998,-0.998,-1.009,-1.0215,-1.034,-1.0495,-1.0609,-1.061,-1.0612,-1.057,-1.5006,-1.5006,-1.5006,-1.5006,-1.5006,-1.4998,-1.4974,-1.4966,-1.4958,-1.4933,-1.4933,-1.4941,-1.4966,-1.4949,-1.4716,-1.4194,-1.4281,-1.4152,-1.3582,-1.3656,-1.3553,-1.3168,-1.319,-1.3004,-1.2656,-1.2656,-1.2982,-1.3639,-1.3528,-1.3446,-1.3416,-1.2764,-1.2481,-1.2416,-1.1926,-1.1691,-1.1691,-1.1619,-1.1584,-1.1597,-1.1719,-1.1692,-1.1597,-1.1719,-1.1692,-1.1584,-1.1584,-1.1584,-1.1584,-1.1584,-1.1584,-1.1584,-1.1584,-1.1584,-1.1548,-1.1188,-1.108,-1.1008,-1.075,-1.0635,-1.0635,-1.0563,-1.0311,-1.0059,-1.0059,-1.0023,-0.9987,-0.9987,-0.9699,-0.9446,-0.9374,-0.9374,-0.9374,-0.9302,-0.9302,-0.9296,-0.928,-0.9296,-0.9296,-0.928,-0.9296,-0.9302,-0.9302,-0.94,-0.947,-0.9487,-0.9677,-0.9764,-0.9796,-0.9899,-0.9964,-0.998,-0.998,-0.998,-0.998,-0.998,-0.998,-0.998,-0.998,-0.998,-0.998,-0.998,-0.998,-0.998,-0.998,-0.998,-0.998,-0.998,-1.009,-1.0215,-1.034,-1.0495,-1.0568,-1.0278,-1.0195,-1.0112,-1.5139,-1.5122,-1.5082,-1.5023,-1.5006,-1.5006,-1.5006,-1.5006,-1.5006,-1.5006,-1.5006,-1.4891,-1.4707,-1.443,-1.4168,-1.3908,-1.3968,-1.3791,-1.3326,-1.3315,-1.3197,-1.2772,-1.2772,-1.2695,-1.2501,-1.2501,-1.2656,-1.3042,-1.2972,-1.2894,-1.2809,-1.2487,-1.2259,-1.2049,-1.1805,-1.1658,-1.159,-1.1665,-1.1698,-1.1712,-1.1898,-1.1925,-1.1877,-1.1938,-1.1925,-1.1857,-1.1732,-1.159,-1.1438,-1.1286,-1.1145,-1.1002,-1.1002,-1.1002,-1.0966,-1.0786,-1.0714,-1.0678,-1.0527,-1.0491,-1.0455,-1.0203,-1.0023,-0.9843,-0.9627,-0.9554,-0.9554,-0.9554,-0.941,-0.9302,-0.9302,-0.9302,-0.9302,-0.9302,-0.9302,-0.9302,-0.9302,-0.9302,-0.9302,-0.9302,-0.9302,-0.9302,-0.9302,-0.9416,-0.9514,-0.9622,-0.9742,-0.9829,-0.9899,-0.9953,-0.998,-0.998,-0.998,-0.998,-0.998,-0.998,-0.998,-0.998,-0.998,-0.998,-0.998,-0.998,-0.998,-0.998,-0.998,-0.998,-1.0025,-1.0095,-1.0035,-0.9947,-1.0068,-1.0019,-0.9921,-0.9763,-0.9699,-0.9699]},{"header":{"parameterUnit":"m.s-1","parameterCategory":1,"la1":30.6,"la2":28.766,"lo1":-90.7593,"lo2":-88.6598,"dy":0.0162,"dx":0.0183,"nx":116,"ny":114,"refTime":"2023-10-01T18:00:00:Z","depth":0,"parameterNumber":3,"parameterNumberName":"V-component_of_WINDS"},"data":[0.0,0.0,0.0,0.0,0.0,0.0,0.0,0.0,0.0,0.0,0.0,0.0,0.0,0.0,0.0,0.0,0.0,0.0,0.0,0.0,0.0,0.0,0.0,0.0,0.0,0.0,0.0,0.0,0.0,0.0,0.0,0.0,0.0,0.0,0.0,0.0,0.0,0.0,0.0,0.0,0.0,0.0,0.0,0.0,0.0,0.0,0.0,0.0,0.0,0.0,0.0,0.0,0.0,0.0,0.0,0.0,0.0,0.0,0.0,0.0,0.0,0.0,0.0,0.0,0.0,0.0,0.0,0.0,0.0,0.0,0.0,0.0,0.0,0.0,0.0,0.0,0.0,0.0,0.0,0.0,0.0,0.0,0.0,0.0,0.0,0.0,0.0,0.0,0.0,0.0,0.0,0.0,0.0,0.0,0.0,0.0,0.0,0.0,0.0,0.0,0.0,0.0,0.0,0.0,0.0,0.0,0.0,0.0,0.0,0.0,0.0,0.0,0.0,0.0,0.0,0.0,0.0,0.0,0.0,0.0,0.0,0.0,0.0,0.0,0.0,0.0,0.0,0.0,0.0,0.0,0.0,0.0,0.0,0.0,0.0,0.0,0.0,0.0,0.0,0.0,0.0,0.0,0.0,0.0,0.0,0.0,0.0,0.0,0.0,0.0,0.0,0.0,0.0,0.0,0.0,0.0,0.0,0.0,0.0,0.0,0.0,0.0,0.0,0.0,0.0,0.0,0.0,0.0,0.0,0.0,0.0,0.0,0.0,0.0,0.0,0.0,0.0,0.0,0.0,0.0,0.0,0.0,0.0,0.0,0.0,0.0,0.0,0.0,0.0,0.0,0.0,0.0,0.0,0.0,0.0,0.0,0.0,0.0,0.0,0.0,0.0,0.0,0.0,0.0,0.0,0.0,0.0,0.0,0.0,0.0,0.0,0.0,0.0,0.0,0.0,0.0,0.0,0.0,0.0,0.0,0.0,0.0,0.0,0.0,0.0,0.0,0.0,0.0,0.0,0.0,0.0,0.0,0.0,0.0,0.0,0.0,0.0,0.0,0.0,0.0,0.0,0.0,0.0,0.0,0.0,0.0,0.0,0.0,0.0,0.0,0.0,0.0,0.0,0.0,0.0,0.0,0.0,0.0,0.0,0.0,0.0,0.0,0.0,0.0,0.0,0.0,0.0,0.0,0.0,0.0,0.0,0.0,0.0,0.0,0.0,0.0,0.0,0.0,0.0,0.0,0.0,0.0,0.0,0.0,0.0,0.0,0.0,0.0,0.0,0.0,0.0,0.0,0.0,0.0,0.0,0.0,0.0,0.0,0.0,0.0,0.0,0.0,0.0,0.0,0.0,0.0,0.0,0.0,0.0,0.0,0.0,0.0,0.0,0.0,0.0,0.0,0.0,0.0,0.0,0.0,0.0,0.0,0.0,0.0,0.0,0.0,0.0,0.0,0.0,0.0,0.0,0.0,0.0,0.0,0.0,0.0,0.0,0.0,0.0,0.0,0.0,0.0,0.0,0.0,0.0,0.0,0.0,0.0,0.0,0.0,0.0,0.0,0.0,0.0,0.0,0.0,0.0,0.0,0.0,0.0,0.0,0.0,0.0,0.0,0.0,0.0,0.0,0.0,0.0,0.0,0.0,0.0,0.0,0.0,0.0,0.0,0.0,0.0,0.0,0.0,0.0,0.0,0.0,0.0,0.0,0.0,0.0,0.0,0.0,0.0,0.0,0.0,0.0,0.0,0.0,0.0,0.0,0.0,0.0,0.0,0.0,0.0,0.0,0.0,0.0,0.0,0.0,0.0,0.0,0.0,0.0,0.0,0.0,0.0,0.0,0.0,0.0,0.0,0.0,0.0,0.0,0.0,0.0,0.0,0.0,0.0,0.0,0.0,0.0,0.0,0.0,0.0,0.0,0.0,0.0,0.0,0.0,0.0,0.0,0.0,0.0,0.0,0.0,0.0,0.0,0.0,0.0,0.0,0.0,0.0,0.0,0.0,0.0,0.0,0.0,0.0,0.0,0.0,0.0,0.0,0.0,0.0,0.0,0.0,0.0,0.0,0.0,0.0,0.0,0.0,0.0,0.0,0.0,0.0,0.0,0.0,0.0,0.0,0.0,0.0,0.0,0.0,0.0,0.0,0.0,0.0,0.0,0.0,0.0,0.0,0.0,0.0,0.0,0.0,0.0,0.0,0.0,0.0,0.0,0.0,0.0,0.0,0.0,0.0,0.0,0.0,0.0,0.0,0.0,0.0,0.0,0.0,0.0,0.0,0.0,0.0,0.0,0.0,0.0,0.0,0.0,0.0,0.0,0.0,0.0,0.0,0.0,0.0,0.0,0.0,0.0,0.0,0.0,0.0,0.0,0.0,0.0,0.0,0.0,0.0,0.0,0.0,0.0,0.0,0.0,0.0,0.0,0.0,0.0,0.0,0.0,0.0,0.0,0.0,0.0,0.0,0.0,0.0,0.0,0.0,0.0,0.0,0.0,0.0,0.0,0.0,0.0,0.0,0.0,0.0,0.0,0.0,0.0,0.0,0.0,0.0,0.0,0.0,0.0,0.0,0.0,0.0,0.0,0.0,0.0,0.0,0.0,0.0,0.0,0.0,0.0,0.0,0.0,0.0,0.0,0.0,0.0,0.0,0.0,0.0,0.0,0.0,0.0,0.0,0.0,0.0,0.0,0.0,0.0,0.0,0.0,0.0,0.0,0.0,0.0,0.0,0.0,0.0,0.0,0.0,0.0,0.0,0.0,0.0,0.0,0.0,0.0,0.0,0.0,0.0,0.0,0.0,0.0,0.0,0.0,0.0,0.0,0.0,0.0,0.0,0.0,0.0,0.0,0.0,0.0,0.0,0.0,0.0,0.0,0.0,0.0,0.0,0.0,0.0,0.0,0.0,0.0,0.0,0.0,0.0,0.0,0.0,0.0,0.0,0.0,0.0,0.0,0.0,0.0,0.0,0.0,0.0,0.0,0.0,0.0,0.0,0.0,0.0,0.0,0.0,0.0,0.0,0.0,0.0,0.0,0.0,0.0,0.0,0.0,0.0,0.0,0.0,0.0,0.0,0.0,0.0,0.0,0.0,0.0,0.0,0.0,0.0,0.0,0.0,0.0,0.0,0.0,0.0,0.0,0.0,0.0,0.0,0.0,0.0,0.0,0.0,0.0,0.0,0.0,0.0,0.0,0.0,0.0,0.0,0.0,0.0,0.0,0.0,0.0,0.0,0.0,0.0,0.0,0.0,0.0,0.0,0.0,0.0,0.0,0.0,0.0,0.0,0.0,0.0,0.0,0.0,0.0,0.0,0.0,0.0,0.0,0.0,0.0,0.0,0.0,0.0,0.0,0.0,0.0,0.0,0.0,0.0,0.0,0.0,0.0,0.0,0.0,0.0,0.0,0.0,0.0,0.0,0.0,0.0,0.0,0.0,0.0,0.0,0.0,0.0,0.0,0.0,0.0,0.0,0.0,0.0,0.0,0.0,0.0,0.0,0.0,0.0,0.0,0.0,0.0,0.0,0.0,0.0,0.0,0.0,0.0,0.0,0.0,0.0,0.0,0.0,0.0,0.0,0.0,0.0,0.0,0.0,0.0,0.0,0.0,0.0,0.0,0.0,0.0,0.0,0.0,0.0,0.0,0.0,0.0,0.0,0.0,0.0,0.0,0.0,0.0,0.0,0.0,0.0,0.0,0.0,0.0,0.0,0.0,0.0,0.0,0.0,0.0,0.0,0.0,0.0,0.0,0.0,0.0,0.0,0.0,0.0,0.0,0.0,0.0,0.0,0.0,0.0,0.0,0.0,0.0,0.0,0.0,0.0,0.0,0.0,0.0,0.0,0.0,0.0,0.0,0.0,0.0,0.0,0.0,0.0,0.0,0.0,0.0,0.0,0.0,0.0,0.0,0.0,0.0,0.0,0.0,0.0,0.0,0.0,0.0,0.0,0.0,0.0,0.0,0.0,0.0,0.0,0.0,0.0,0.0,0.0,0.0,0.0,0.0,0.0,0.0,0.0,0.0,0.0,0.0,0.0,0.0,0.0,0.0,0.0,0.0,0.0,0.0,0.0,0.0,0.0,0.0,0.0,0.0,0.0,0.0,0.0,0.0,0.0,0.0,0.0,0.0,0.0,0.0,0.0,0.0,0.0,0.0,0.0,0.0,0.0,0.0,0.0,0.0,0.0,0.0,0.0,0.0,0.0,0.0,0.0,0.0,0.0,0.0,0.0,0.0,0.0,0.0,0.0,0.0,0.0,0.0,0.0,0.0,0.0,0.0,0.0,0.0,0.0,0.0,0.0,0.0,0.0,0.0,0.0,0.0,0.0,0.0,0.0,0.0,0.0,0.0,0.0,0.0,0.0,0.0,0.0,0.0,0.0,0.0,0.0,0.0,0.0,0.0,0.0,0.0,0.0,0.0,0.0,0.0,0.0,0.0,0.0,0.0,0.0,0.0,0.0,0.0,0.0,0.0,0.0,0.0,0.0,0.0,0.0,0.0,0.0,0.0,0.0,0.0,0.0,0.0,0.0,0.0,0.0,0.0,0.0,0.0,0.0,0.0,0.0,0.0,0.0,0.0,0.0,0.0,0.0,0.0,0.0,0.0,0.0,0.0,0.0,0.0,0.0,0.0,0.0,0.0,0.0,0.0,0.0,0.0,0.0,0.0,0.0,0.0,0.0,0.0,0.0,0.0,0.0,0.0,0.0,0.0,0.0,0.0,0.0,0.0,0.0,0.0,0.0,0.0,0.0,0.0,0.0,0.0,0.0,0.0,0.0,0.0,0.0,0.0,0.0,0.0,0.0,0.0,0.0,0.0,0.0,0.0,0.0,0.0,0.0,0.0,0.0,0.0,0.0,0.0,0.0,0.0,0.0,0.0,0.0,0.0,0.0,0.0,0.0,0.0,0.0,0.0,0.0,0.0,0.0,0.0,0.0,0.0,0.0,0.0,0.0,0.0,0.0,0.0,0.0,0.0,0.0,0.0,0.0,0.0,0.0,0.0,0.0,0.0,0.0,0.0,0.0,0.0,0.0,0.0,0.0,0.0,0.0,0.0,0.0,0.0,0.0,0.0,0.0,0.0,0.0,0.0,0.0,0.0,0.0,0.0,0.0,0.0,0.0,0.0,0.0,0.0,0.0,0.0,0.0,0.0,0.0,0.0,0.0,0.0,0.0,0.0,0.0,0.0,0.0,0.0,0.0,0.0,0.0,0.0,0.0,0.0,0.0,0.0,0.0,0.0,0.0,0.0,0.0,0.0,0.0,0.0,0.0,0.0,0.0,0.0,0.0,0.0,0.0,0.0,0.0,0.0,0.0,0.0,0.0,0.0,0.0,0.0,0.0,0.0,0.0,0.0,0.0,0.0,0.0,0.0,0.0,0.0,0.0,0.0,0.0,0.0,0.0,0.0,0.0,0.0,0.0,0.0,0.0,0.0,0.0,0.0,0.0,0.0,0.0,0.0,0.0,0.0,0.0,0.0,0.0,0.0,0.0,0.0,0.0,0.0,0.0,0.0,0.0,0.0,0.0,0.0,0.0,0.0,0.0,0.0,0.0,0.0,0.0,0.0,0.0,0.0,0.0,0.0,0.0,0.0,0.0,0.0,0.0,0.0,0.0,0.0,0.0,0.0,0.0,0.0,0.0,0.0,0.0,0.0,0.0,0.0,0.0,0.0,0.0,0.0,0.0,0.0,0.0,0.0,0.0,0.0,0.0,0.0,0.0,0.0,0.0,0.0,0.0,0.0,0.0,0.0,0.0,0.0,0.0,0.0,0.0,0.0,0.0,0.0,0.0,0.0,0.0,0.0,0.0,0.0,0.0,0.0,0.0,0.0,0.0,0.0,0.0,0.0,0.0,0.0,0.0,0.0,0.0,0.0,0.0,0.0,0.0,0.0,0.0,0.0,0.0,0.0,0.0,0.0,0.0,0.0,0.0,0.0,0.0,0.0,0.0,0.0,0.0,0.0,0.0,0.0,0.0,0.0,0.0,0.0,0.0,0.0,0.0,0.0,0.0,0.0,0.0,0.0,0.0,0.0,0.0,0.0,0.0,0.0,0.0,0.0,0.0,0.0,0.0,0.0,0.0,0.0,0.0,0.0,0.0,2.276,2.0556,0.0,0.0,0.0,0.0,0.0,0.0,0.0,0.0,0.0,0.0,0.0,0.0,0.0,0.0,0.0,0.0,0.0,0.0,0.0,0.0,0.0,0.0,0.0,0.0,0.0,0.0,0.0,0.0,0.0,0.0,0.0,0.0,0.0,0.0,0.0,0.0,0.0,1.4471,1.5699,1.7406,1.9508,1.8175,1.6939,1.5828,0.0,0.0,0.0,0.0,0.0,0.0,0.0,0.0,0.0,0.0,0.0,0.0,0.0,0.0,0.0,0.0,0.0,0.0,0.0,0.0,0.0,0.0,0.0,0.0,0.0,0.0,0.0,0.0,0.0,0.0,0.0,0.0,0.0,0.0,0.0,0.0,0.0,0.0,0.0,0.0,0.0,0.0,0.0,0.0,0.0,0.0,0.0,0.0,0.0,0.0,0.0,0.0,0.0,0.0,0.0,0.0,0.0,0.0,0.0,0.0,0.0,0.0,0.0,0.0,0.0,0.0,0.0,0.0,0.0,0.0,2.7566,2.5094,0.0,0.0,0.0,0.0,0.0,0.0,0.0,0.0,0.0,0.0,0.0,0.0,0.0,0.0,0.0,0.0,0.0,0.0,0.0,0.0,0.0,0.0,0.0,1.518,1.5047,1.4628,1.4452,1.4082,1.3439,0.0,0.0,0.0,0.0,0.0,1.1759,1.3365,1.5174,1.7032,1.9452,2.1852,2.4113,2.4418,2.3464,2.1424,1.9518,0.0,0.0,0.0,0.0,0.0,0.0,0.0,0.0,0.0,0.0,0.0,0.0,0.0,0.0,0.0,0.0,0.0,0.0,0.0,0.0,0.0,0.0,0.0,0.0,0.0,0.0,0.0,0.0,0.0,0.0,0.0,0.0,0.0,0.0,0.0,0.0,0.0,0.0,0.0,0.0,0.0,0.0,0.0,0.0,0.0,0.0,0.0,0.0,0.0,0.0,0.0,0.0,0.0,0.0,0.0,0.0,0.0,0.0,0.0,0.0,0.0,0.0,0.0,3.4644,3.5837,3.6676,3.7424,3.8106,3.8469,3.3242,3.0858,3.04,2.7307,0.0,0.0,0.0,0.0,0.0,0.0,0.0,0.0,0.0,0.0,0.0,0.0,0.0,0.0,0.0,0.0,0.0,0.0,0.0,1.517,1.5854,1.5986,1.6569,1.7938,1.7383,1.6938,1.6862,0.0,0.0,0.0,0.0,0.0,1.3477,1.5112,1.7153,1.9601,2.5034,2.8236,2.9321,3.0816,3.1354,3.0814,2.4885,2.1758,2.0837,0.0,0.0,0.0,0.0,0.0,0.0,0.0,0.0,0.0,0.0,0.0,0.0,0.0,0.0,0.0,0.0,0.0,0.0,0.0,0.0,0.0,0.0,0.0,0.0,0.0,0.0,0.0,0.0,0.0,0.0,0.0,0.0,0.0,0.0,0.0,0.0,0.0,0.0,0.0,0.0,0.0,2.4671,2.4791,0.0,0.0,0.0,0.0,0.0,0.0,0.0,0.0,0.0,0.0,0.0,0.0,0.0,3.3333,3.5916,3.6702,3.79,3.9518,4.0372,4.122,4.2105,4.2846,4.3219,4.3253,4.1609,0.0,3.4144,3.2183,0.0,0.0,0.0,0.0,0.0,0.0,0.0,0.0,0.0,0.0,0.0,0.0,0.0,0.0,0.0,0.0,0.0,0.0,0.0,0.0,0.0,1.7651,1.8718,1.9925,1.9742,1.9333,1.8888,1.7737,0.0,0.0,0.0,1.5293,1.5205,1.7752,2.1268,2.5717,2.9778,3.2451,3.3811,3.5055,3.5634,3.5495,3.209,2.911,2.6431,2.3765,0.0,0.0,0.0,0.0,0.0,0.0,0.0,0.0,0.0,0.0,0.0,0.0,0.0,0.0,0.0,0.0,0.0,0.0,0.0,0.0,0.0,0.0,0.0,0.0,0.0,0.0,0.0,0.0,0.0,0.0,0.0,0.0,0.0,0.0,0.0,0.0,0.0,0.0,0.0,2.6616,2.8486,2.8493,2.9236,2.8967,0.0,0.0,0.0,0.0,0.0,0.0,0.0,0.0,0.0,3.6884,3.778,3.9204,4.1313,4.1653,4.2431,4.3647,4.4404,4.4986,4.5387,4.6121,4.6459,4.6428,4.5913,4.4188,4.1322,3.7107,3.4665,3.3337,0.0,0.0,0.0,0.0,3.0798,3.1563,0.0,0.0,0.0,0.0,0.0,0.0,0.0,0.0,0.0,0.0,0.0,0.0,1.8092,1.9727,2.1277,2.2554,2.2486,2.2119,2.1526,2.0337,1.8577,1.6274,1.7437,1.7956,1.7563,2.1493,2.6108,3.1335,3.39,3.6035,3.774,3.8625,3.9047,3.9014,3.8248,3.5597,3.1548,2.8348,2.629,2.4876,0.0,0.0,0.0,0.0,0.0,0.0,0.0,0.0,0.0,0.0,0.0,0.0,0.0,0.0,0.0,0.0,0.0,0.0,0.0,0.0,0.0,0.0,0.0,0.0,0.0,0.0,0.0,0.0,0.0,0.0,0.0,0.0,0.0,0.0,0.0,0.0,0.0,3.022,3.2133,3.2138,3.3077,3.3078,0.0,0.0,0.0,0.0,0.0,0.0,3.7398,3.9108,4.0859,4.2529,4.3417,4.4685,4.637,4.6372,4.6768,4.7591,4.8166,4.8558,4.88,4.932,4.9577,4.953,4.8988,4.8408,4.738,4.1717,3.8858,3.7872,3.5925,3.4886,3.4533,3.4902,3.5642,3.6568,0.0,0.0,0.0,0.0,0.0,0.0,0.0,0.0,0.0,0.0,0.0,1.8131,2.0546,2.2291,2.4302,2.6755,2.6294,2.5819,2.5782,2.3479,2.1368,1.9719,1.9713,2.0149,2.0951,2.6594,3.126,3.4759,3.7314,3.9426,4.1063,4.2039,4.2438,4.2417,4.17,3.9022,3.4986,3.2477,2.9974,2.7477,2.4953,0.0,0.0,0.0,0.0,0.0,0.0,0.0,0.0,0.0,0.0,0.0,0.0,0.0,0.0,0.0,0.0,0.0,0.0,0.0,0.0,0.0,0.0,0.0,0.0,0.0,0.0,0.0,0.0,0.0,0.0,0.0,0.0,0.0,0.0,0.0,0.0,0.0,0.0,3.5724,3.7168,0.0,0.0,0.0,0.0,3.8067,3.9703,4.1061,4.1949,4.3619,4.537,4.7122,4.7957,4.9229,5.094,5.0892,5.1328,5.2178,5.2155,5.2554,5.3366,5.3289,5.3224,5.3141,5.148,5.07,5.0259,4.5729,4.3349,4.2316,3.9827,3.9234,3.9714,3.8913,3.9618,4.0983,0.0,0.0,0.0,0.0,0.0,0.0,1.4335,1.4867,1.562,1.6742,1.8509,2.0615,2.3093,2.5842,2.8255,3.0213,3.0147,2.9513,2.8464,2.607,2.3933,2.2281,2.2242,2.3716,2.6741,3.097,3.4524,3.7369,3.992,4.1771,4.2911,4.3847,4.4228,4.4211,4.3425,4.2264,4.0699,3.7218,3.4276,3.1755,2.9268,2.6217,0.0,0.0,0.0,0.0,0.0,0.0,0.0,0.0,0.0,0.0,0.0,0.0,0.0,0.0,0.0,0.0,0.0,0.0,0.0,0.0,0.0,0.0,0.0,0.0,0.0,0.0,0.0,0.0,0.0,0.0,0.0,0.0,0.0,0.0,0.0,0.0,0.0,4.0038,4.1638,0.0,4.1089,4.1749,4.2603,4.3455,4.5091,4.6415,4.7267,4.8981,5.0184,5.0836,5.1648,5.2336,5.2974,5.2944,5.3073,5.3327,5.3327,5.3455,5.3749,5.3663,5.362,5.3585,5.2899,5.255,5.2372,5.0177,4.7773,4.5312,4.3828,4.34,4.3627,4.3785,4.4233,4.4776,0.0,0.0,0.0,0.0,0.0,0.0,1.4818,1.554,1.6487,1.7568,2.0126,2.2909,2.5638,2.8946,3.1504,3.2823,3.2931,3.2142,3.0227,2.8292,2.6388,2.4437,2.519,2.7498,3.1476,3.4536,3.7364,3.9921,4.2153,4.3742,4.4639,4.5501,4.5911,4.5873,4.5392,4.4876,4.4215,4.1559,3.8692,3.5661,3.3144,3.0296,2.7282,0.0,0.0,0.0,0.0,0.0,0.0,0.0,0.0,0.0,0.0,0.0,0.0,0.0,0.0,0.0,0.0,0.0,0.0,0.0,0.0,0.0,0.0,0.0,0.0,0.0,0.0,0.0,0.0,0.0,0.0,0.0,0.0,0.0,0.0,3.9881,4.2849,4.4021,4.5429,4.6211,4.5898,4.6367,4.7186,4.8355,4.9485,5.0498,5.1355,5.2522,5.3259,5.3565,5.4106,5.4484,5.4773,5.4793,5.4734,5.4712,5.4727,5.4704,5.4682,5.4611,5.4615,5.4573,5.416,5.4008,5.3913,5.2996,5.1242,4.9022,4.7431,4.6869,4.6885,4.7079,4.7309,4.7629,0.0,0.0,0.0,0.0,0.0,0.0,1.4818,1.5578,1.6712,1.8362,2.1485,2.4824,2.8149,3.1494,3.3789,3.4626,3.4663,3.3644,3.1156,3.0227,2.8697,2.6301,2.8557,3.1454,3.4843,3.7332,3.9856,4.2376,4.4046,4.5338,4.6241,4.71,4.7473,4.7517,4.7584,4.6725,4.529,4.535,4.3053,3.9165,3.6583,3.408,3.1506,0.0,0.0,0.0,0.0,0.0,0.0,0.0,0.0,0.0,0.0,0.0,0.0,0.0,0.0,0.0,0.0,0.0,0.0,0.0,0.0,0.0,0.0,0.0,0.0,0.0,0.0,0.0,0.0,0.0,0.0,0.0,0.0,0.0,4.0066,4.2998,4.581,4.7568,4.8545,4.9367,5.0151,5.023,5.0935,5.2656,5.2773,5.3163,5.4022,5.4097,5.4485,5.5305,5.5339,5.572,5.6489,5.6515,5.6541,5.6524,5.6583,5.6564,5.6468,5.6443,5.6404,5.6308,5.5423,5.5003,5.4889,5.4037,5.3674,5.3427,5.0707,4.9603,4.9529,4.8677,4.8872,4.951,0.0,0.0,0.0,0.0,0.0,1.485,1.4823,1.6023,1.7758,2.0017,2.3216,2.6781,3.0678,3.3564,3.5522,3.6353,3.6391,3.5377,3.2888,3.1917,3.1133,3.0457,3.2833,3.52,3.7369,3.9843,4.2059,4.4052,4.5115,4.6137,4.699,4.7237,4.739,4.741,4.7517,4.7288,4.6888,4.6994,4.5709,4.335,4.0326,3.7582,3.5147,0.0,0.0,0.0,0.0,0.0,0.0,0.0,0.0,0.0,0.0,0.0,0.0,0.0,0.0,0.0,0.0,0.0,0.0,0.0,0.0,0.0,0.0,0.0,0.0,0.0,0.0,0.0,0.0,0.0,0.0,0.0,4.0917,4.3505,4.3503,4.6514,4.9324,5.1004,5.1989,5.262,5.2817,5.2908,5.3384,5.448,5.4603,5.4957,5.5856,5.5896,5.6015,5.6249,5.6249,5.6363,5.6587,5.7164,5.7428,5.7454,5.8067,5.8362,5.8342,5.766,5.7323,5.7252,5.6371,5.5992,5.5961,5.567,5.5569,5.5362,5.3224,5.2388,5.2372,5.2078,5.2098,5.2284,0.0,0.0,0.0,0.0,0.0,1.4864,1.4823,1.6209,1.8206,2.0693,2.4227,2.7945,3.1692,3.4358,3.6085,3.6541,3.6241,3.5302,3.3526,3.2925,3.2968,3.3644,3.5747,3.7867,3.9858,4.1995,4.3764,4.5156,4.6362,4.7226,4.7786,4.8153,4.8383,4.8399,4.8472,4.8327,4.8055,4.8129,4.7445,4.6157,4.4288,4.1651,3.8689,3.7504,3.5634,3.3533,3.2847,3.1146,2.9066,2.8003,0.0,0.0,0.0,0.0,0.0,0.0,0.0,0.0,0.0,0.0,0.0,0.0,0.0,0.0,0.0,0.0,0.0,0.0,0.0,0.0,0.0,0.0,0.0,0.0,4.4774,4.7392,4.8468,5.0088,5.178,5.3506,5.414,5.4578,5.4935,5.534,5.5817,5.6325,5.6692,5.709,5.7638,5.7644,5.765,5.7654,5.7654,5.7656,5.7653,5.812,5.8349,5.8338,5.888,5.9102,5.9081,5.8526,5.8274,5.8246,5.7719,5.75,5.7471,5.7037,5.6855,5.6676,0.0,0.0,0.0,0.0,5.3459,5.3456,0.0,0.0,0.0,0.0,0.0,1.4866,1.483,1.6211,1.8206,2.0693,2.4523,2.8312,3.1616,3.417,3.5634,3.5634,3.4921,3.4207,3.3564,3.3521,3.4341,3.6218,3.7763,3.9746,4.2216,4.3806,4.5125,4.606,4.7565,4.8354,4.8539,4.9403,4.9785,4.9792,4.9876,4.9527,4.8903,4.8922,4.8497,4.7838,4.7907,4.5651,4.207,4.0486,3.9346,3.8358,3.6796,3.5614,3.4472,3.2148,0.0,0.0,0.0,0.0,0.0,0.0,0.0,0.0,0.0,0.0,0.0,0.0,0.0,0.0,0.0,0.0,0.0,0.0,0.0,0.0,0.0,0.0,0.0,0.0,4.8268,5.1382,5.3752,5.3636,5.3831,5.5309,5.5547,5.5905,5.6702,5.7487,5.7957,5.7957,5.8654,5.9099,5.9099,5.9118,0.0,0.0,0.0,5.9095,5.9101,5.9218,5.9257,5.9251,5.9368,5.9401,5.9383,5.9306,5.9252,5.922,5.9092,5.8993,5.8927,5.8045,5.7629,5.7317,5.5683,5.5042,5.4957,5.4185,5.3846,5.3805,0.0,0.0,0.0,0.0,0.0,1.4891,1.4868,1.6266,1.8206,2.0693,2.4039,2.7495,3.0786,3.2775,3.3864,3.3864,3.3714,3.3832,3.4325,3.4303,3.5619,3.859,3.9689,4.142,4.3887,4.4956,4.6193,4.7755,4.8055,4.8619,4.9385,4.9551,4.9663,4.9721,4.9792,4.9759,4.9628,4.9712,4.9315,4.8593,4.8703,4.7526,4.5538,4.4585,4.3311,4.1927,4.0927,3.9209,3.7315,3.679,3.4737,3.2031,2.9997,2.832,0.0,0.0,0.0,0.0,0.0,0.0,0.0,0.0,0.0,0.0,0.0,0.0,0.0,0.0,0.0,0.0,0.0,0.0,0.0,4.8373,5.1713,5.4354,5.556,5.677,5.7405,5.7172,5.7767,5.8237,5.8437,5.8632,5.8771,5.8771,5.8969,5.9108,5.9108,5.9114,5.909,5.9109,5.911,5.908,5.9095,5.9798,6.0154,6.0156,6.0859,0.0,6.1159,6.0456,6.0135,6.0112,5.9408,5.908,5.9008,5.8092,5.7282,5.6612,5.6258,5.609,5.6003,5.5848,5.5726,5.5664,0.0,0.0,0.0,0.0,0.0,1.4906,1.4917,1.5908,1.7581,2.0051,2.295,2.5842,2.8721,3.0523,3.1541,3.1541,3.2292,3.3118,3.3944,3.5486,3.7473,3.995,4.1274,4.2892,4.4952,4.5887,4.6974,4.8183,4.8634,4.91,4.9559,4.9567,4.9604,4.9648,4.9757,4.98,4.9807,4.9931,4.9732,4.9422,4.9486,4.9034,4.8213,4.7105,4.5621,4.4152,4.3794,4.2077,3.9906,3.948,3.7697,3.5216,3.3106,3.1311,2.9442,0.0,0.0,0.0,0.0,0.0,0.0,0.0,0.0,0.0,0.0,0.0,0.0,0.0,0.0,4.0616,4.4029,0.0,4.8842,5.1865,5.4156,5.5982,5.7261,5.8537,5.9048,5.8308,5.8593,5.8877,5.891,5.9327,5.9615,5.9615,6.0055,6.0356,6.0356,6.0336,6.0355,6.0332,6.0333,6.0384,6.0407,6.0837,6.1041,6.1052,6.1482,6.1718,6.1677,6.1248,6.1048,6.1034,6.0605,6.0397,6.0291,5.8941,5.7905,5.7065,5.6611,5.6407,5.6344,5.6344,5.6323,5.6295,0.0,0.0,0.0,0.0,0.0,1.4917,1.4891,1.5586,1.6883,1.9043,2.1485,2.3851,2.6022,2.7711,2.8805,2.8955,3.0607,3.2142,3.3338,3.6423,3.9002,4.0829,4.2384,4.4001,4.5791,4.6585,4.75,4.8438,4.9152,4.949,4.949,4.9567,4.9559,4.9604,4.9699,4.9757,4.9771,4.9862,4.9899,4.9946,4.9973,5.0018,4.993,4.8606,4.7176,4.5821,4.5381,4.3858,4.1868,4.0908,3.9444,3.7664,3.5271,3.348,3.1772,2.9241,2.8027,0.0,0.0,0.0,0.0,0.0,0.0,0.0,0.0,3.6397,3.8062,4.1314,4.2708,4.4299,4.7555,4.9417,5.147,5.4572,5.597,5.7175,5.869,5.9663,5.9971,5.9353,5.9294,5.9325,5.9344,6.0017,6.0415,6.0421,6.1136,6.1593,6.1593,6.1597,6.158,6.1584,6.1588,6.1644,6.1672,6.1675,6.1688,6.1705,6.1706,6.1713,6.1718,6.1718,6.1718,6.1712,6.171,6.1584,6.1334,5.9941,5.8759,5.7743,5.7017,5.6626,5.6417,5.6402,5.6394,5.6389,0.0,0.0,0.0,0.0,0.0,0.0,1.4883,1.5565,1.6442,1.7458,1.9732,2.1669,2.2717,2.4291,2.5571,2.6334,2.8584,3.0941,3.3263,3.6397,3.922,4.1584,4.2663,4.4242,4.6546,4.6862,4.7755,4.934,4.9452,4.949,4.949,4.9498,4.9505,4.9505,4.9604,4.9611,4.9619,4.9757,4.9821,4.9841,4.9933,4.9992,4.9929,4.9099,4.8287,4.7242,4.5043,4.3608,4.2547,4.0944,3.9342,3.7672,3.5857,3.4706,3.3521,3.0976,3.0171,2.9903,2.9016,2.9865,3.1411,3.3186,3.4884,3.6771,0.0,4.117,4.3107,4.5762,4.6962,4.8359,5.1065,5.23,5.3535,5.5465,5.713,5.8496,5.9515,6.0374,6.091,6.0928,6.0975,6.1019,6.1026,6.1176,6.1288,6.1282,6.1436,6.1492,6.1492,6.1526,6.1556,6.1616,6.1595,6.1617,6.1602,6.1655,6.1709,6.1683,6.1695,6.1704,6.1711,6.1711,6.1716,6.1718,6.1713,6.1279,6.0535,6.0321,5.9296,5.7771,5.7705,5.718,5.6466,5.6409,5.641,5.6389,0.0,0.0,0.0,0.0,0.0,0.0,0.0,1.5175,1.5687,1.6512,1.7966,1.9226,2.0073,2.1563,2.3096,2.4418,2.6814,2.9514,3.2443,3.5685,3.8596,4.1033,4.2452,4.4331,4.6772,4.6952,4.783,4.949,4.949,4.949,4.949,4.949,4.949,4.949,4.9582,4.9589,4.9597,4.9699,4.9764,4.9807,4.9869,4.9621,4.9105,4.7877,4.6601,4.5338,4.4383,4.2896,0.0,4.0036,3.888,3.7713,3.6477,3.5228,3.399,3.2923,3.1888,3.1278,3.1941,3.3695,3.5676,3.6912,3.8863,4.1079,4.3119,4.4897,4.671,4.8793,4.9873,5.1112,5.3156,5.3812,5.4627,5.6368,5.7636,5.8726,5.9605,6.006,6.0326,6.0369,6.0454,6.0709,6.124,6.1322,6.1352,6.1331,6.1386,6.1457,6.1457,6.1487,6.1509,6.1559,6.1549,6.1575,6.1599,6.1619,6.1638,6.1655,6.1671,6.1684,6.1695,6.17,6.1711,6.1718,6.1718,6.1482,6.1128,6.0612,5.9983,5.9278,5.875,5.8348,5.7874,5.6858,5.6443,5.6474,0.0,0.0,0.0,0.0,0.0,0.0,0.0,0.0,0.0,0.0,1.6526,1.7341,1.8184,1.9296,2.0675,2.2325,2.476,2.7682,3.1208,3.4721,3.7803,4.0212,4.2187,4.4142,4.6188,4.648,4.735,4.8814,4.8814,4.8927,4.9152,4.9152,4.9265,4.949,4.9559,4.9589,4.9552,4.9408,4.9353,4.9365,4.9181,4.8668,4.7819,4.6215,4.4391,4.2753,4.2642,4.1304,3.94,3.8116,3.7297,3.6688,3.5806,3.474,3.3754,3.373,3.3199,3.2934,3.4445,3.6894,3.9262,4.0377,4.2409,4.467,4.6596,4.7944,4.933,5.1068,5.192,5.281,5.4255,5.4525,5.5113,5.6868,5.7639,5.8333,5.9207,5.9359,5.9389,5.9403,5.9679,6.0126,6.0812,6.1138,6.1295,6.1318,6.1335,6.1373,6.1418,6.1453,6.1469,6.1469,6.1501,6.1528,6.1585,6.1578,6.1601,6.1619,6.1643,6.1658,6.167,6.1687,6.1702,6.1714,6.1717,6.1718,6.164,6.1013,6.062,6.0346,5.9708,5.9311,5.8958,5.769,5.7046,5.6834,0.0,0.0,0.0,0.0,0.0,0.0,0.0,0.0,0.0,0.0,0.0,1.6489,1.7346,1.7495,1.8165,1.9759,2.2192,2.5373,2.9481,3.3644,3.6989,3.932,4.1903,4.3673,4.4472,4.5324,4.6186,4.7079,4.7079,4.75,4.8258,4.8258,4.8701,4.949,4.949,4.949,4.946,4.8679,4.8339,4.8279,4.7634,4.6901,4.6,4.4397,4.2263,4.0012,3.9323,3.8489,3.7396,3.4957,3.4156,3.3999,3.3164,3.2886,3.2833,3.2823,3.397,3.5385,3.6263,3.8946,4.1897,4.3622,4.5319,4.7241,4.9766,5.038,5.0922,5.2576,5.2965,5.3256,5.4243,5.4408,5.4962,5.6709,5.7027,5.7352,5.8219,5.834,5.8366,5.8417,5.9239,5.9814,5.9858,6.0672,6.1229,6.1314,6.1283,6.1341,6.1416,6.1415,6.1399,6.1399,6.1469,6.1484,6.1484,6.1583,6.161,6.161,6.1617,6.1597,6.1598,6.1668,6.1688,6.1699,6.1707,6.1709,6.171,6.1679,6.1172,6.039,6.0386,5.9834,5.9092,5.9053,5.8485,5.7657,0.0,0.0,0.0,0.0,0.0,0.0,0.0,0.0,0.0,0.0,0.0,0.0,0.0,0.0,0.0,0.0,2.1255,2.3985,2.7065,3.0645,3.3708,3.6094,3.8106,4.0322,4.2766,4.3086,4.3926,4.5352,4.5878,4.6298,4.6561,4.7124,4.7575,4.783,4.783,4.783,4.78,4.6928,4.6633,4.6577,4.5309,4.4285,4.3352,4.1183,3.8828,3.6387,0.0,3.404,3.4035,3.2061,3.1768,3.2157,3.1894,3.1787,3.2027,3.3122,3.5442,3.7926,3.9408,4.1853,4.4454,4.6217,4.7517,4.8731,5.015,5.096,5.1502,5.2083,5.2198,5.2472,5.3294,5.3031,5.3251,5.4995,5.5731,5.6401,5.7313,5.7461,5.7718,5.8279,5.8634,5.9094,5.9673,6.0606,6.1199,6.1229,6.1263,6.1299,6.1337,6.1313,6.1335,6.1394,6.1434,6.1411,6.1411,6.1492,6.1523,6.1546,6.1593,6.1582,6.1597,6.1609,6.1666,6.1687,6.169,6.1699,6.1709,6.1713,6.1519,6.1246,6.125,6.1093,6.0741,6.019,5.9791,5.9311,0.0,0.0,0.0,0.0,0.0,0.0,0.0,0.0,0.0,0.0,0.0,0.0,0.0,0.0,0.0,0.0,0.0,2.206,2.4539,2.7826,3.0753,3.3207,3.5184,3.7353,3.9783,4.0103,4.0922,4.2274,4.2799,4.3369,4.397,4.4526,4.4939,4.524,4.5547,4.5503,4.5165,4.4601,4.4261,4.3939,4.2347,4.102,3.98,3.7704,3.5121,0.0,3.0245,2.9638,2.9829,2.9353,2.9737,3.0457,3.0761,3.1671,3.2927,3.4289,3.7062,4.0073,4.1785,4.4157,4.6484,4.7903,4.8908,4.9789,5.0675,5.108,5.1173,5.0873,5.0604,5.0528,5.1086,5.1015,5.1541,5.3591,5.4611,5.5599,5.6791,5.7033,5.7373,5.8215,5.8615,5.9032,5.961,6.0534,6.1123,6.1159,6.1247,6.141,6.1721,6.1725,6.1896,6.2287,6.2274,6.2295,6.2312,6.2069,6.1798,6.1492,6.1525,6.1595,6.1584,6.1584,6.1602,6.1666,6.1671,6.1682,6.1697,6.1703,6.1705,6.1707,6.1715,6.1717,6.164,6.1054,6.0857,6.0583,0.0,0.0,0.0,0.0,0.0,0.0,0.0,0.0,0.0,0.0,0.0,0.0,0.0,0.0,0.0,0.0,0.0,0.0,2.2009,2.5224,2.8131,3.0578,3.3022,3.4728,3.5561,3.6387,3.7185,3.8,3.8037,3.8901,4.0478,4.0516,4.0997,4.1779,4.2618,4.2506,4.1742,4.1704,4.1223,4.0334,3.8716,3.7111,3.5495,3.3899,3.1293,2.8301,2.6645,2.5587,2.5184,2.6896,2.8134,2.9082,3.0034,3.258,3.5388,3.6283,3.8869,4.1808,4.352,4.577,4.7875,4.875,4.9567,5.034,5.1185,5.0732,4.9895,4.9066,4.8181,4.7581,4.7689,4.8394,4.9795,5.2368,5.3624,5.4858,5.6587,5.6945,5.7324,5.8236,5.9095,5.9628,5.9711,6.053,6.1111,6.1215,6.1228,6.1625,6.253,6.2568,6.2977,6.3875,6.3879,6.3938,6.3983,6.316,6.2396,6.1643,6.1645,6.1671,6.1714,6.1714,6.1729,6.1673,6.1729,6.1735,6.17,6.1688,6.1697,6.1697,6.1705,6.1709,6.1709,6.1715,6.1716,6.1366,0.0,0.0,0.0,0.0,0.0,0.0,0.0,0.0,0.0,0.0,0.0,0.0,0.0,0.0,0.0,0.0,0.0,0.0,2.0375,2.2495,2.4482,2.6283,2.819,2.9877,3.1308,3.2128,3.2989,3.3845,3.4373,3.5184,3.628,3.6885,3.7587,3.8344,3.8569,3.8569,3.8306,3.7699,3.6948,3.6058,3.4427,3.2806,3.1205,2.9578,2.7675,2.5743,2.4709,2.4169,2.4121,2.5298,2.7858,3.0961,3.301,3.5135,3.7222,3.9336,4.1423,4.3602,4.5928,4.7504,4.8694,4.9575,4.9524,4.9288,4.9565,4.8521,4.7253,4.6418,4.5086,4.4246,4.4873,4.5184,4.6395,4.9636,5.1459,5.3273,5.5615,5.6555,5.7555,5.9011,5.9407,6.0035,6.1349,6.167,6.21,6.2745,6.23,6.2433,6.3334,6.3377,6.3511,6.3826,6.383,6.3851,6.3938,6.3733,6.358,6.3366,6.3352,6.3384,6.3453,6.3453,6.3129,6.2584,6.259,6.2212,6.1644,6.1664,6.171,6.1713,6.1695,6.1701,6.1702,6.1709,6.1711,6.1517,0.0,0.0,0.0,0.0,0.0,0.0,0.0,0.0,0.0,0.0,0.0,0.0,0.0,0.0,0.0,0.0,0.0,0.0,0.0,1.9874,2.1557,2.3138,2.4441,2.5937,2.7623,2.806,2.873,2.9589,2.9972,3.0636,3.1464,3.1929,3.237,3.2826,3.3583,3.3691,3.3332,3.3219,3.2683,0.0,0.0,2.8721,2.7474,2.6205,2.4719,2.3217,2.2767,2.3503,2.4989,2.6957,2.9948,3.3202,3.5325,3.7637,3.9949,4.1762,4.3739,4.5716,4.7543,4.8656,4.9383,4.9878,4.9417,4.8764,4.8414,4.6774,4.4903,4.3339,4.1723,4.0702,4.116,4.2168,4.4027,4.7471,5.0128,5.2789,5.5723,5.6938,5.8175,5.9858,6.0396,6.1018,6.2018,6.2432,6.3001,6.3916,6.3295,6.3268,6.4179,6.4242,6.4473,6.4868,6.4906,6.4748,6.4466,6.4512,6.4355,6.3997,6.4017,6.4007,6.4076,6.4076,6.3829,6.3441,6.3414,6.2964,6.2169,6.2226,6.2,6.1652,6.1676,6.1683,6.1686,6.17,6.1705,6.1627,0.0,0.0,0.0,0.0,0.0,0.0,0.0,0.0,0.0,0.0,1.4122,0.0,0.0,0.0,0.0,0.0,0.0,0.0,0.0,0.0,1.9125,2.0649,2.149,2.2603,2.4056,2.4245,2.4676,2.5461,2.5571,2.6012,2.6829,2.6825,2.6859,2.7009,2.8491,2.8705,2.8064,2.875,2.854,2.7636,2.6226,2.5141,2.4213,0.0,2.2341,2.1056,2.1292,2.3414,2.6601,2.9883,3.2888,3.5571,3.7427,4.0187,4.2914,4.4024,4.5887,4.7788,4.8749,4.9469,4.9886,4.9886,4.9174,4.8194,4.7213,4.5057,4.2514,3.9974,3.8228,3.7197,3.7197,3.9294,4.2144,4.5616,4.9078,5.2585,5.6125,5.7527,5.8892,6.0725,6.1621,6.2166,6.2403,6.3051,6.3877,6.479,6.4282,6.4231,6.502,6.5105,6.5509,6.6254,6.6303,6.6001,6.5342,6.535,6.5002,6.4334,6.4334,6.4315,6.4357,6.4357,6.4295,6.4246,6.4276,6.3794,6.3074,6.3062,6.2645,6.1946,6.1885,6.1852,6.1855,6.1726,6.1694,6.1696,0.0,0.0,0.0,0.0,0.0,0.0,0.0,0.0,0.0,0.0,1.5337,1.3949,0.0,0.0,0.0,0.0,0.0,0.0,0.0,0.0,0.0,1.8193,1.9011,1.9566,1.9865,2.1161,2.1901,2.205,2.2732,2.3462,2.4241,2.4251,2.4617,2.5261,2.5525,2.5563,2.5442,2.5593,2.5171,2.441,2.4112,2.3102,2.1724,2.1645,0.0,0.0,2.1708,2.3887,2.6601,2.9963,3.3671,3.7419,4.0428,4.2731,4.4751,4.7077,4.8043,4.8737,5.0313,5.0334,4.9886,4.9886,4.8269,4.6278,4.477,4.1982,3.8968,3.6472,3.5217,3.456,3.4572,3.6625,3.9699,4.3782,4.7362,5.1047,5.5151,5.7115,5.9018,6.1498,6.1933,6.2566,6.4045,6.4282,6.4749,6.5647,6.5605,6.5654,6.5864,6.5914,6.5984,6.62,6.6284,6.6239,6.6098,6.6139,6.6109,6.5995,6.5995,6.6039,6.615,6.615,6.5742,6.5073,6.5141,6.4688,6.392,6.3932,6.3871,6.3678,6.2959,6.2693,6.2616,6.1935,6.1706,6.1709,0.0,0.0,0.0,0.0,0.0,0.0,0.0,1.6989,1.7608,1.8454,1.747,1.6323,1.5355,1.561,1.5675,0.0,0.0,0.0,0.0,0.0,0.0,1.6951,1.7312,1.7714,1.8157,1.889,1.9257,1.9257,0.0,2.07,2.1111,2.1543,2.1947,2.2325,2.2726,2.2936,2.292,2.292,2.268,2.2245,2.1837,2.1205,2.0465,2.0521,0.0,0.0,2.1796,2.3706,2.5948,2.9245,3.2853,3.6626,4.0387,4.3309,4.5706,4.7404,4.8559,4.9404,5.0275,5.0227,4.9817,4.9393,4.7725,4.5533,4.3022,3.984,3.6625,3.3695,3.2112,3.1394,3.1828,3.4012,3.7177,4.1375,4.5304,4.928,5.3563,5.6,5.8182,6.0322,6.1819,6.2964,6.3802,6.4724,6.5436,6.5859,6.5935,6.5964,6.6047,6.6112,6.616,6.6185,6.621,6.6279,6.6307,6.6331,6.6367,6.6411,6.6394,6.6427,6.6505,6.6527,6.6327,6.5972,6.6027,6.5537,6.4738,6.4782,6.4566,6.4104,6.3711,6.3294,6.2906,6.2966,6.2699,6.239,0.0,0.0,0.0,0.0,0.0,0.0,0.0,1.7782,1.8754,1.9643,1.9911,1.9357,1.7541,1.6854,1.6251,0.0,0.0,0.0,0.0,0.0,0.0,0.0,0.0,0.0,1.7051,0.0,0.0,1.751,1.8381,0.0,0.0,0.0,0.0,0.0,2.0646,2.0925,2.094,2.0931,2.0913,0.0,0.0,1.9916,1.993,0.0,0.0,0.0,0.0,2.3163,2.5005,2.7939,3.1158,3.4588,3.8452,4.2316,4.5655,4.671,4.8211,4.9594,4.9828,4.9886,4.9703,4.89,4.7157,4.48,4.1427,3.794,3.4491,3.1303,2.9539,2.8798,2.9657,3.1817,3.4881,3.9312,4.3209,4.7242,5.1735,5.4534,5.6932,5.9026,6.1422,6.3041,6.3451,6.4923,6.5885,6.5897,6.5916,6.5927,6.5984,6.6107,6.617,6.617,6.618,6.6244,6.6288,6.6288,6.6317,6.6367,6.6398,6.6385,6.6402,6.6439,6.6516,6.6595,6.6602,6.6195,6.5563,6.5639,6.5264,6.4646,6.4503,6.4051,6.3505,6.3998,6.3772,6.3269,0.0,0.0,0.0,0.0,0.0,0.0,0.0,1.9184,2.0586,2.1437,2.2205,2.2,2.0318,1.8024,1.6514,0.0,0.0,0.0,0.0,0.0,0.0,0.0,0.0,0.0,0.0,0.0,0.0,1.7596,1.8418,0.0,0.0,0.0,0.0,0.0,0.0,2.0129,2.0124,2.0096,0.0,0.0,0.0,0.0,0.0,0.0,0.0,0.0,0.0,2.2322,2.398,2.5827,2.8625,3.1807,3.4453,3.9127,4.3961,4.5611,4.7339,4.8875,4.9676,4.9886,4.9703,4.89,4.6285,4.3057,3.9689,3.5704,3.2023,2.9442,2.823,2.7898,2.8778,3.0422,3.3287,3.8315,4.138,4.4857,4.983,5.274,5.5556,5.8802,6.0813,6.2559,6.4219,6.5262,6.5833,6.5897,6.596,6.5996,6.6008,6.6085,6.6107,6.6107,6.616,6.619,6.6195,6.6195,6.622,6.6312,6.6317,6.6324,6.6402,6.6406,6.6435,6.6516,6.6553,6.6532,6.65,6.6567,6.6516,6.6363,6.5613,6.5234,6.508,6.4445,6.4142,6.4107,0.0,0.0,0.0,0.0,0.0,0.0,1.7703,1.9379,2.1016,2.2415,2.3268,2.3341,2.2171,1.9741,1.7735,1.6659,0.0,0.0,0.0,0.0,0.0,0.0,0.0,0.0,0.0,0.0,1.6543,1.6881,1.8212,0.0,0.0,0.0,0.0,0.0,0.0,1.9987,1.9985,2.0013,0.0,0.0,0.0,0.0,0.0,0.0,0.0,0.0,0.0,0.0,2.2401,2.4056,2.6114,2.8483,3.0979,3.4391,3.8427,4.3177,4.5772,4.7293,4.816,4.8408,4.8066,4.674,4.4649,4.192,3.8059,3.4339,3.0962,2.8506,2.6905,2.6253,2.7145,2.8723,3.1211,3.5276,3.8501,4.2106,4.6653,4.9901,5.2893,5.5791,5.8553,6.0934,6.2719,6.4139,6.5184,6.5795,6.5904,6.5941,6.5941,6.5978,6.6058,6.6096,6.6123,6.6149,6.6185,6.6185,6.6195,6.6259,6.6293,6.6345,6.6407,6.6394,6.6427,6.6508,6.6524,6.6531,6.6538,6.6591,6.6624,6.6606,6.6288,6.5878,6.5426,6.5631,6.5363,6.5017,0.0,0.0,0.0,0.0,0.0,1.6282,1.772,1.9395,2.103,2.251,2.3445,2.3638,2.2815,2.0591,1.8594,1.7125,1.5942,0.0,0.0,0.0,0.0,0.0,0.0,0.0,0.0,0.0,1.6552,1.6769,1.8229,1.9069,0.0,0.0,2.0114,2.0143,0.0,0.0,0.0,0.0,0.0,0.0,0.0,0.0,0.0,0.0,0.0,0.0,0.0,0.0,0.0,0.0,0.0,2.6076,2.8076,3.0631,3.4036,4.0006,4.3125,4.4852,4.5697,4.6278,4.6241,4.4573,4.2716,4.029,3.6353,3.2861,2.9825,2.7562,2.5991,2.5287,2.6132,2.7522,2.9628,3.3004,3.6201,3.9737,4.3983,4.7455,5.0583,5.3378,5.6716,5.9586,6.1603,6.358,6.506,6.5748,6.584,6.5878,6.5897,6.5946,6.5984,6.6085,6.608,6.6118,6.616,6.6175,6.6185,6.6185,6.6264,6.6312,6.6363,6.6407,6.6449,6.6489,6.6501,6.6508,6.6512,6.6553,6.6584,6.6611,6.6645,6.6324,6.5842,6.6465,6.6315,6.5855,0.0,0.0,0.0,0.0,0.0,0.0,1.7868,1.9426,2.0828,2.1686,2.2581,2.2772,2.1902,2.0265,1.8855,1.7976,1.6282,0.0,0.0,0.0,0.0,0.0,0.0,0.0,0.0,0.0,1.6879,1.7682,1.8581,1.9412,2.0174,2.0212,2.0199,2.0213,0.0,0.0,0.0,0.0,0.0,0.0,0.0,0.0,2.0014,0.0,0.0,0.0,0.0,0.0,0.0,0.0,0.0,0.0,0.0,2.8435,3.1965,3.6144,3.9213,4.1421,4.2217,4.3657,4.4535,4.2824,4.0561,3.7874,3.4491,3.1113,2.8267,2.6573,2.5553,2.5263,2.6129,2.701,2.8727,3.2153,3.4856,3.8009,4.2221,4.5692,4.9054,5.2429,5.583,5.8952,6.1558,6.411,6.5635,6.5787,6.5793,6.5826,6.5897,6.5904,6.5935,6.6002,6.608,6.6096,6.6102,6.616,6.6185,6.6185,6.6185,6.6254,6.6307,6.6358,6.6407,6.6406,6.6489,6.6508,6.6512,6.6553,6.6606,6.6613,6.6611,6.6645,6.6672,6.671,6.6688,6.667,0.0,0.0,0.0,0.0,0.0,0.0,0.0,1.806,1.9307,2.0712,2.1138,2.1214,2.0941,1.9419,1.8013,1.7151,1.6041,0.0,0.0,0.0,0.0,0.0,0.0,0.0,0.0,1.6957,1.8059,1.9465,2.0357,2.1194,2.1972,2.1378,2.1086,2.1062,2.0456,2.0209,0.0,0.0,0.0,0.0,0.0,2.002,2.0008,0.0,0.0,0.0,0.0,0.0,0.0,0.0,0.0,0.0,0.0,0.0,0.0,3.0553,3.4813,3.8779,3.9651,4.0257,4.0371,3.9267,3.7528,3.5367,3.2634,3.0276,2.8229,2.6535,2.5553,2.5063,2.5377,2.6616,2.8335,3.0556,3.3546,3.7096,4.1304,4.4819,4.8372,5.2314,5.7313,6.0988,6.2431,6.4377,6.5544,6.5604,6.5701,6.5807,6.5826,6.5872,6.5935,6.6002,6.6005,6.6057,6.6096,6.6118,6.6149,6.6185,6.6185,6.6254,6.6307,6.6322,6.6372,6.6402,6.6418,6.6442,6.6508,6.6524,6.6542,6.6609,6.6581,6.6607,6.6639,6.6639,6.666,6.6686,0.0,0.0,0.0,0.0,0.0,0.0,0.0,1.7168,1.7987,1.9393,1.9547,1.9546,1.9546,1.8336,1.7282,1.6734,1.5903,0.0,0.0,0.0,0.0,0.0,0.0,0.0,1.6566,1.7403,1.8624,2.0308,2.1505,2.2497,2.3285,2.2722,2.2316,2.1949,2.1062,2.0497,0.0,0.0,0.0,0.0,2.0093,2.0081,2.003,0.0,0.0,0.0,0.0,0.0,0.0,0.0,0.0,0.0,0.0,0.0,0.0,0.0,3.0776,3.4453,3.5936,3.6315,3.6201,3.5666,3.4263,3.244,3.0284,2.873,2.7365,2.6046,2.5363,2.5098,2.5401,2.6592,2.8234,3.0228,3.3412,3.7007,4.096,4.4666,4.8907,5.4104,5.8803,6.2089,6.3274,6.4656,6.5465,6.5494,6.5646,6.576,6.5793,6.5859,6.5923,6.5966,6.599,6.6011,6.6063,6.6085,6.6128,6.6185,6.6185,6.6205,6.6279,6.6298,6.634,6.6355,6.6389,6.6418,0.0,6.6501,6.6524,6.6546,6.6546,6.657,6.6604,6.6604,6.6627,6.6657,0.0,0.0,0.0,0.0,0.0,0.0,0.0,1.6591,1.6904,1.7803,1.7842,1.7801,1.7835,1.7055,1.6507,1.6423,0.0,0.0,0.0,0.0,0.0,0.0,0.0,0.0,1.6653,1.7424,1.8688,2.0482,2.2181,2.3445,2.4272,2.4212,2.3771,2.2947,2.1947,2.1022,2.0211,0.0,0.0,0.0,2.0103,2.0091,0.0,0.0,0.0,0.0,0.0,0.0,0.0,0.0,0.0,0.0,0.0,0.0,0.0,0.0,0.0,0.0,0.0,3.2061,3.2137,3.2137,3.092,2.9332,2.7756,2.677,0.0,2.5174,2.506,2.5325,2.6046,2.7023,2.8502,3.0978,3.4264,3.7701,4.1251,4.5611,5.0806,5.7307,6.021,6.2357,6.4045,6.4924,6.5444,6.5487,6.5552,6.5667,6.578,6.5852,6.5897,6.5904,6.5966,6.5982,6.6001,6.6063,6.6123,6.618,6.6185,6.6185,6.6185,6.6279,6.6303,6.6312,6.6364,6.6398,6.6406,6.645,6.6508,6.6508,6.6508,6.6531,6.6602,6.6602,6.6588,6.6624,0.0,0.0,0.0,0.0,0.0,0.0,0.0,0.0,0.0,0.0,1.6439,1.6008,1.6006,1.5224,1.4443,0.0,0.0,0.0,0.0,0.0,0.0,0.0,0.0,0.0,1.756,1.779,1.9325,2.2278,2.3359,2.4662,2.6069,2.5393,2.4988,2.4696,2.2491,2.1022,2.0211,2.0143,0.0,0.0,2.0086,2.0081,0.0,0.0,0.0,0.0,2.0017,2.0408,0.0,0.0,0.0,0.0,0.0,0.0,0.0,0.0,2.5553,2.6118,2.7331,0.0,2.9556,2.9556,2.8806,2.779,0.0,2.6349,2.597,2.5174,2.5477,2.597,2.616,2.7971,3.0049,3.1922,3.5079,3.8956,4.3607,5.0137,5.5782,5.9324,6.1442,6.3006,6.4084,6.4924,6.5421,6.5405,6.5479,6.5552,6.5622,6.578,6.5846,6.5897,6.5916,6.596,6.5982,6.6001,6.6058,6.6118,6.6165,6.6185,6.6185,6.6239,6.6269,6.6312,6.6372,6.6416,6.6406,6.645,6.6508,6.6508,6.6508,6.6512,6.6524,6.6524,6.6549,6.6584,0.0,0.0,0.0,0.0,0.0,0.0,0.0,0.0,0.0,0.0,0.0,1.4643,1.429,1.3821,0.0,0.0,0.0,0.0,0.0,0.0,0.0,0.0,0.0,1.6166,1.7874,1.8259,2.0103,2.3482,2.4755,2.6212,2.7891,2.7368,2.673,2.5818,2.2835,2.1024,2.019,2.0148,2.0093,2.0093,2.0093,0.0,0.0,0.0,0.0,0.0,1.999,2.053,0.0,2.1677,2.2362,2.3199,0.0,0.0,0.0,0.0,2.4984,2.5174,2.597,2.6876,2.7669,2.8048,2.7828,2.7263,2.6387,2.6197,2.6084,2.5629,2.5894,2.6577,2.7748,2.9356,3.1349,3.3843,3.7096,4.1455,4.7673,5.3129,5.7551,6.0515,6.2047,6.3351,6.4611,6.5146,6.5413,6.5413,6.545,6.5516,6.5552,6.5694,6.5813,6.5852,6.5885,6.5935,6.6002,6.5993,6.604,6.6058,6.6091,6.6118,6.6144,6.6144,6.618,6.6274,6.6326,6.6363,6.6346,6.6432,6.6461,6.6439,6.6439,6.645,6.6508,6.6508,6.6524,6.6542,0.0,0.0,0.0,0.0,0.0,0.0,0.0,0.0,0.0,0.0,0.0,0.0,0.0,0.0,0.0,0.0,0.0,0.0,0.0,0.0,0.0,0.0,1.5607,1.6327,1.7875,1.8838,2.0913,2.4215,2.5874,2.7602,2.932,2.9221,2.8116,2.6083,2.3054,2.1137,2.021,2.0116,2.0093,2.0093,2.0093,0.0,0.0,0.0,0.0,0.0,0.0,0.0,0.0,2.2249,2.3123,2.4033,2.4757,0.0,0.0,0.0,0.0,0.0,2.597,2.6387,2.6728,2.7339,2.7494,2.7301,2.658,2.6387,2.6425,2.6577,2.6804,2.771,3.0128,3.153,3.3367,3.6521,4.0284,4.5206,5.1977,5.5161,5.7982,6.1248,6.2346,6.349,6.5238,6.5406,6.5413,6.5413,6.5443,6.5487,6.5501,6.5653,6.5767,6.5793,6.5852,6.5916,6.5984,6.5996,6.5988,6.5996,6.6001,6.6036,6.6085,6.6096,6.6128,6.6175,6.6279,6.6307,6.6312,6.6363,6.6403,6.6394,6.6394,6.6422,6.6497,6.6497,6.6501,6.6512,0.0,0.0,0.0,0.0,0.0,0.0,0.0,0.0,0.0,0.0,0.0,0.0,0.0,0.0,0.0,0.0,0.0,0.0,0.0,0.0,0.0,1.6381,1.6497,1.6946,1.7875,1.9416,2.1493,2.4215,2.5874,2.7602,2.932,2.9221,2.7492,2.4439,2.3115,2.1631,2.021,2.0116,2.0093,2.0093,2.0093,0.0,0.0,0.0,0.0,0.0,0.0,0.0,0.0,2.2441,2.3502,2.4833,2.4946,0.0,0.0,0.0,0.0,0.0,2.597,2.7252,2.8195,2.7642,2.7494,2.7452,2.7339,2.7301,2.7486,2.8195,2.9446,3.1,3.2785,3.5557,3.8178,4.0144,4.564,5.084,5.4078,5.68,5.9399,6.2029,6.2612,6.3467,6.5153,6.5368,6.5413,6.5413,6.5429,6.5428,6.5494,6.5523,6.5625,6.5787,6.5807,6.5846,6.5916,6.5972,6.6008,6.6014,6.5984,6.6013,6.6024,6.6074,6.6102,6.6118,6.6264,6.6307,6.6312,6.6363,6.6385,6.6394,6.6394,6.6416,6.6414,6.6414,6.6439,6.6508,0.0,0.0,0.0,0.0,0.0,0.0,0.0,0.0,0.0,0.0,0.0,0.0,0.0,0.0,0.0,0.0,0.0,0.0,0.0,0.0,1.4444,1.6613,1.7579,1.8414,1.9225,2.0928,2.3276,2.6267,2.7965,2.9453,3.0613,2.9186,2.7149,2.4697,2.3355,2.1796,2.021,2.0173,2.0145,2.0093,0.0,0.0,0.0,0.0,0.0,0.0,0.0,0.0,0.0,0.0,2.3313,2.4378,2.4833,0.0,0.0,0.0,0.0,0.0,2.6542,2.7782,2.8836,2.9374,2.9833,3.0136,3.0136,3.0136,3.0402,3.1227,3.2364,3.3847,3.6012,3.84,4.1313,4.5255,4.9652,5.3404,5.5906,5.8067,6.0156,6.2254,6.3021,6.3908,6.5167,6.536,6.5413,6.5413,6.5413,6.539,6.5435,6.5472,6.5544,6.5688,6.5773,6.5826,6.5904,6.5935,6.5947,6.5947,6.5933,6.597,6.6005,6.6024,6.6339,6.6797,6.692,6.7227,6.7652,6.7682,6.7435,6.7038,6.7038,6.6794,6.6411,6.6394,6.6431,6.6508,0.0,0.0,0.0,0.0,0.0,0.0,0.0,0.0,0.0,0.0,0.0,0.0,0.0,0.0,0.0,0.0,0.0,0.0,0.0,1.3903,1.518,1.6923,1.8583,1.9881,2.0695,2.2787,2.533,2.8281,3.0017,3.1074,3.1449,2.9038,2.6851,2.4962,2.3436,2.1803,2.021,2.0179,2.0152,2.0093,0.0,0.0,0.0,0.0,0.0,0.0,0.0,0.0,0.0,0.0,0.0,0.0,0.0,0.0,0.0,2.4946,2.4984,2.5367,2.7035,2.8237,2.9438,3.1286,3.2233,3.2725,3.291,3.3123,3.3606,3.486,3.5783,3.7124,3.9667,4.1984,4.5179,5.0265,5.3025,5.5375,5.7649,5.9249,6.0828,6.2555,6.3405,6.4255,6.5174,6.5337,6.5391,6.5413,6.5413,6.5413,6.5413,6.5435,6.5501,6.5573,6.5688,6.58,6.5878,6.5891,6.5904,6.5904,6.5904,6.5929,6.5984,6.5999,6.6487,6.7399,6.7453,6.7988,6.881,6.881,6.845,6.7871,6.7677,6.7092,6.6372,6.6373,6.6418,6.6493,0.0,0.0,0.0,0.0,0.0,0.0,0.0,0.0,0.0,0.0,0.0,0.0,0.0,0.0,0.0,0.0,0.0,0.0,0.0,1.4828,1.6066,1.7733,1.9467,2.0767,2.1591,2.4842,2.742,2.9207,3.0905,3.1344,3.0559,2.873,2.6587,2.4125,2.3151,2.1784,2.021,2.0119,2.0093,2.0093,2.0093,0.0,0.0,0.0,0.0,0.0,0.0,0.0,0.0,0.0,0.0,0.0,0.0,0.0,2.3957,2.4757,2.4984,2.5367,2.7035,2.8616,3.0415,3.2835,3.3474,3.3696,3.4476,3.5181,3.6422,3.8797,4.003,4.1405,4.3913,4.7711,5.1388,5.4086,5.5981,5.7725,5.9476,6.0462,6.1637,6.3334,6.3694,6.4166,6.5131,6.5288,6.5329,6.5406,6.5413,6.5413,6.5413,6.5383,6.542,6.5501,6.5573,6.5688,6.58,6.5865,6.5904,6.5904,6.5904,6.5904,6.591,6.5978,6.6468,6.7303,6.7399,6.795,6.881,6.881,6.8777,6.8622,6.7815,6.7038,6.6317,6.6367,6.6411,6.6406,0.0,0.0,0.0,0.0,0.0,0.0,0.0,0.0,0.0,0.0,0.0,0.0,0.0,0.0,0.0,0.0,0.0,0.0,0.0,1.5412,1.6726,1.785,2.005,2.2125,2.4032,2.6394,2.8661,3.0866,3.1994,3.1807,3.0386,2.8684,2.6549,2.405,2.3167,2.1798,2.021,2.0175,2.0148,2.0093,2.0093,2.0093,0.0,0.0,0.0,0.0,0.0,0.0,0.0,0.0,2.1412,2.1945,2.3275,2.3692,2.3882,2.4757,2.5363,2.6008,2.7187,2.9434,3.1781,3.3242,3.5488,3.7558,3.8459,3.9273,4.0569,4.3058,4.4291,4.5722,4.831,5.1374,5.4003,5.5489,5.7126,5.8794,6.0424,6.1363,6.234,6.3477,6.417,6.4702,6.504,6.521,6.5298,6.5337,6.5383,6.5413,6.5413,6.5413,6.5413,6.5494,6.5523,6.5632,6.5793,6.582,6.5859,6.5904,6.5904,6.5904,6.5904,6.5972,6.6746,6.8055,6.8154,6.9016,7.0314,7.0347,7.0054,6.9396,6.8042,6.6994,6.6307,6.6331,6.6367,6.6407,0.0,0.0,0.0,0.0,0.0,0.0,0.0,0.0,0.0,0.0,0.0,0.0,0.0,0.0,0.0,0.0,0.0,0.0,1.4485,1.611,1.7307,1.7882,2.0355,2.2742,2.5039,2.678,2.9046,3.1792,3.2091,3.1474,2.9987,2.8294,2.6272,2.4034,2.3434,2.2374,2.1004,2.0976,2.0764,2.0518,2.0518,2.0363,0.0,0.0,0.0,0.0,0.0,0.0,0.0,0.0,2.0805,2.1109,2.2779,2.3313,2.354,2.4681,2.5553,2.6421,2.754,3.0087,3.2774,3.4361,3.7574,4.0841,4.2523,4.3119,4.4023,4.6509,4.7987,4.9552,5.1907,5.395,5.5678,5.6815,5.815,5.9666,6.1288,6.2008,6.2795,6.3894,6.4562,6.4993,6.4989,6.5161,6.5296,6.5282,6.5368,6.5413,6.5413,6.5413,6.5405,6.5457,6.5487,6.5597,6.5753,6.578,6.5826,6.5904,6.5904,6.5904,6.5904,6.6217,6.714,6.8519,6.8874,6.9847,7.1178,7.1219,7.059,6.9491,6.8341,6.725,6.6284,6.6284,6.6317,6.6363,0.0,0.0,0.0,0.0,0.0,0.0,0.0,0.0,0.0,0.0,0.0,0.0,0.0,0.0,0.0,0.0,0.0,0.0,1.5336,1.6961,1.7882,1.7908,2.0341,2.246,2.4151,2.5918,2.8453,3.1792,3.0894,3.0047,2.9139,2.7408,2.568,2.3995,2.4021,2.3539,2.2701,2.2633,2.2166,2.1407,2.1407,2.0905,2.0093,0.0,0.0,0.0,0.0,0.0,0.0,0.0,2.001,2.0275,2.1983,2.2517,2.282,2.4529,2.5591,2.6562,2.8204,3.0502,3.3204,3.6405,3.9694,4.2998,4.6268,4.6336,4.6448,4.9039,5.0975,5.2772,5.4511,5.5587,5.6777,5.8415,5.9401,6.0492,6.2151,6.2416,6.3023,6.4699,6.4888,6.4924,6.4981,6.512,6.524,6.5282,6.5368,6.5413,6.5413,6.5413,6.5413,6.5413,6.5457,6.553,6.5594,6.5715,6.5826,6.5897,6.5904,6.5904,6.5936,6.675,6.7635,6.8545,6.9425,7.0304,7.11,7.11,7.0133,6.869,6.875,6.7727,6.6185,6.6185,6.622,6.6307,0.0,0.0,0.0,0.0,0.0,0.0,0.0,0.0,0.0,0.0,0.0,0.0,0.0,0.0,0.0,0.0,0.0,0.0,1.5363,1.6955,1.7917,1.7893,2.0335,2.2495,2.4173,2.6461,2.8405,2.9967,2.9705,2.8826,2.7367,2.7407,2.6543,2.4922,2.5529,2.4927,2.3536,2.3507,2.3002,2.224,2.224,2.1746,2.102,0.0,0.0,0.0,0.0,0.0,0.0,0.0,0.0,0.0,2.1983,2.2517,2.2934,2.5174,2.6835,2.8297,2.991,3.3001,3.6276,3.8383,4.1763,4.52,4.7357,4.8138,4.9242,5.2387,5.4401,5.5731,5.6303,5.7129,5.7934,5.8462,5.9757,6.1098,6.2256,6.2909,6.3667,6.4766,6.4888,6.4897,6.4924,6.5019,6.5111,6.524,6.5282,6.5352,6.5406,6.5413,6.5413,6.5413,6.5436,6.545,6.553,6.5639,6.5715,6.5826,6.6455,6.675,6.675,6.6981,6.7911,6.9354,6.9669,7.0279,7.0998,7.047,6.9637,6.8646,6.805,6.7155,6.6185,6.6185,6.6195,6.6254,0.0,0.0,0.0,0.0,0.0,0.0,0.0,0.0,0.0,0.0,1.2061,1.2409,0.0,0.0,0.0,0.0,0.0,0.0,1.5397,1.6983,1.7904,1.7886,2.0011,2.1816,2.3141,2.5002,2.621,2.6651,2.768,2.7803,2.7099,2.7231,2.6902,2.6266,2.6765,2.6209,2.4897,2.488,2.4224,2.3116,2.3116,2.2431,2.1407,0.0,0.0,0.0,0.0,0.0,0.0,0.0,0.0,0.0,2.1566,2.2211,2.2934,2.5098,2.7138,2.9194,3.1433,3.4826,3.8322,4.0911,4.4141,4.7387,5.0053,5.1067,5.221,5.4898,5.6286,5.712,5.7464,5.7997,5.853,5.89,6.0105,6.1321,6.2243,6.3072,6.3932,6.4804,6.4888,6.4888,6.4888,6.4967,6.5069,6.5207,6.5242,6.5321,6.5406,6.5413,6.5413,6.5413,6.5413,6.5604,6.5992,6.6064,6.6333,6.6792,6.7365,6.7782,6.8129,6.8129,6.8706,6.9706,7.0099,7.0497,7.0888,7.0157,6.9408,6.8573,6.7713,6.6907,6.6185,6.6185,6.6185,6.619,0.0,0.0,0.0,0.0,0.0,0.0,0.0,0.0,0.0,0.0,1.2912,1.322,0.0,0.0,0.0,0.0,0.0,0.0,0.0,1.7006,1.7923,1.7999,1.9603,2.0855,2.1598,2.2466,2.2869,2.2804,2.5196,2.6785,2.7569,2.6905,2.7024,2.7816,2.7889,2.7418,2.652,2.652,2.5562,2.4031,2.4031,2.3002,2.1514,2.1448,0.0,0.0,0.0,0.0,0.0,0.0,0.0,0.0,2.0957,2.1794,2.2858,2.4605,2.6869,2.9523,3.2822,3.6152,3.9672,4.3728,4.6749,4.9798,5.3733,5.4672,5.516,5.6699,5.7108,5.7433,5.8148,5.8397,5.8713,5.9485,6.0423,6.1353,6.2164,6.3105,6.3999,6.4795,6.488,6.4888,6.4888,6.4967,6.5053,6.5153,6.5226,6.5305,6.5398,6.5406,6.5406,6.5413,6.549,6.5948,6.6781,6.6945,6.7446,6.8276,6.8428,6.893,6.9706,6.9706,6.9744,6.986,7.0591,7.0898,7.0828,7.008,6.9379,6.8636,6.7729,6.7017,6.6417,6.634,6.6379,6.6456,0.0,0.0,0.0,0.0,0.0,0.0,0.0,0.0,0.0,0.0,0.0,0.0,0.0,0.0,0.0,0.0,0.0,0.0,0.0,1.7314,1.8191,1.8802,2.0432,2.1406,2.1617,2.2404,2.2799,2.2797,2.3981,2.5011,2.5844,2.6942,2.7908,2.8744,2.9368,2.8816,2.7434,2.7434,2.6444,2.4921,2.4921,2.3872,2.2321,2.2315,2.1368,0.0,0.0,0.0,0.0,0.0,0.0,0.0,2.0957,2.1794,2.2934,2.525,2.7718,3.0502,3.4391,3.7858,4.1356,4.5442,4.979,5.3658,5.5873,5.6849,5.7404,5.7779,5.837,5.8867,5.9027,5.9073,5.9185,5.9492,6.0799,6.1863,6.2095,6.347,6.4516,6.4705,6.4844,6.4888,6.4888,6.4906,6.4958,6.5053,6.5078,6.5153,6.5305,6.5313,6.5344,6.5413,6.6063,6.6529,6.6736,6.7536,6.8038,6.8244,6.903,6.9513,6.9706,6.9706,7.0052,7.0667,7.0821,7.0898,7.0821,7.0065,6.9682,6.9485,6.7915,6.7713,6.8153,6.7462,6.7655,6.823,0.0,0.0,0.0,0.0,0.0,0.0,0.0,0.0,0.0,0.0,0.0,0.0,0.0,0.0,0.0,0.0,0.0,0.0,0.0,0.0,1.841,1.9624,2.0492,2.0969,2.0977,2.139,2.1786,2.2164,2.2985,2.4239,2.5918,2.7145,2.8387,2.9601,3.0004,2.9268,2.7698,2.7698,2.6699,2.5121,2.4742,2.377,2.2558,2.2125,2.1149,2.0014,2.0001,0.0,0.0,0.0,0.0,0.0,0.0,0.0,2.282,2.4526,2.7328,3.0791,3.4881,3.8676,4.2729,4.8033,5.2494,5.5836,5.6708,5.7826,5.8689,5.8689,5.9027,5.929,5.929,5.929,5.9309,5.9392,6.05,6.1525,6.1995,6.3219,6.4245,6.4631,6.4752,6.4835,6.488,6.4888,6.4924,6.4981,6.4989,6.5086,6.5226,6.5266,6.5496,6.5894,6.6422,6.6865,6.7286,6.7875,6.8356,6.8739,6.9277,6.9771,7.0228,7.0269,7.0514,7.0898,7.0898,7.0898,7.0821,7.0014,6.9765,6.9706,6.8426,6.8264,6.8696,6.8258,6.8424,6.881,0.0,0.0,0.0,0.0,0.0,0.0,0.0,0.0,0.0,0.0,0.0,0.0,0.0,0.0,0.0,0.0,0.0,0.0,0.0,0.0,0.0,2.025,2.0284,2.0304,2.0304,2.0298,2.0696,2.15,2.2427,2.42,2.6706,2.7392,2.86,3.0188,3.0188,2.9268,2.7692,2.7692,2.6677,2.504,2.4398,2.3504,2.2486,2.1776,2.0888,2.0007,2.0018,2.001,2.001,2.001,0.0,0.0,0.0,0.0,2.2476,2.3427,2.6412,3.0367,3.4461,3.9084,4.4189,5.0174,5.4183,5.6737,5.6858,5.8126,5.929,5.929,5.929,5.929,5.929,5.929,5.929,5.929,6.0078,6.0923,6.1667,6.2692,6.3624,6.4377,6.4631,6.4752,6.488,6.4888,6.4915,6.5001,6.4963,6.5044,6.5144,6.5226,6.5579,6.6289,6.6551,6.7018,6.7676,6.7952,6.8411,6.9092,6.929,6.9908,7.0794,7.085,7.0885,7.0898,7.0898,7.0898,7.086,7.0167,6.9938,6.9926,6.9134,6.893,6.9121,6.901,6.9076,6.9236,0.0,0.0,0.0,0.0,0.0,0.0,0.0,0.0,0.0,0.0,1.5384,1.5417,0.0,0.0,0.0,0.0,0.0,0.0,1.7682,0.0,0.0,2.0289,2.0309,2.0289,2.0304,2.0235,2.0625,2.1514,2.3015,2.5055,2.7552,2.7666,2.8583,3.0188,3.0188,2.9254,2.7621,2.7621,2.6648,2.5086,2.4974,2.3966,2.2492,2.2375,2.1368,2.0015,2.001,2.001,2.001,2.001,2.001,0.0,0.0,0.0,2.1677,2.3234,2.5558,2.855,3.2722,3.9431,4.6125,4.9911,5.3357,5.5977,5.6737,5.8126,5.929,5.929,5.929,5.929,5.929,5.929,5.929,5.929,6.0051,6.0661,6.0774,6.2222,6.3295,6.3549,6.4245,6.4752,6.488,6.4888,6.4888,6.4906,6.4906,6.495,6.5006,6.5136,6.5294,6.5472,6.6284,6.6743,6.6865,6.7684,6.8143,6.8258,6.9022,6.9908,7.0794,7.0801,7.0843,7.0898,7.0898,7.0898,7.0898,7.0783,7.0785,7.0774,6.9932,7.0129,7.0782,7.0048,7.0275,7.0982,0.0,0.0,0.0,0.0,0.0,0.0,0.0,0.0,0.0,0.0,0.0,1.5405,0.0,0.0,0.0,1.5297,1.6101,1.7173,1.8477,1.9698,2.0336,2.0311,2.029,2.0307,2.0285,2.0223,2.0845,2.2151,2.3317,2.5435,2.8392,2.8889,2.9765,3.0911,3.0911,2.9671,2.7614,2.7614,2.6593,2.5016,2.4559,2.3895,2.3104,2.2687,2.2033,2.1339,2.0843,2.0654,2.0616,2.0161,2.001,2.001,2.001,0.0,0.0,0.0,2.4341,2.7922,3.3905,3.9839,4.5141,4.8484,5.178,5.4597,5.5864,5.745,5.8764,5.9215,5.929,5.929,5.929,5.929,5.929,5.929,5.9628,6.0041,6.052,6.1243,6.2137,6.3144,6.37,6.417,6.4723,6.4853,6.4888,6.4888,6.4888,6.4906,6.4941,6.5095,6.5414,6.5904,6.6413,6.6705,6.6705,6.7095,6.7539,6.7998,6.887,6.9797,7.0729,7.0729,7.0794,7.0898,7.0898,7.0898,7.0898,7.0898,7.0919,7.0907,7.06,7.0754,7.1116,7.0765,7.0893,7.1297,0.0,0.0,0.0,0.0,0.0,0.0,0.0,0.0,0.0,0.0,0.0,0.0,0.0,0.0,0.0,0.0,1.6628,1.7854,1.935,1.9989,2.0318,2.0297,2.0315,2.0292,2.0308,2.0217,2.1035,2.2683,2.3735,2.5932,2.9236,3.0341,3.1293,3.2134,3.1675,3.0282,2.8228,2.7798,2.6843,2.5563,2.4758,2.4511,2.4605,2.3999,2.3616,2.3313,2.2476,2.2021,2.1715,2.0919,2.0502,2.0313,2.0313,2.0578,0.0,0.0,0.0,2.7838,3.4379,3.902,4.2881,4.6373,4.9798,5.2727,5.455,5.6277,5.7779,5.8802,5.899,5.9065,5.9253,5.929,5.929,5.929,5.929,5.9515,6.0191,6.0445,6.1093,6.2401,6.2843,6.335,6.4026,6.4381,6.4576,6.4576,6.4766,6.4888,6.4888,6.5107,6.5474,6.6083,6.6283,6.6369,6.6369,6.6369,6.6789,6.7599,6.847,6.9406,7.037,7.06,7.0758,7.0898,7.0898,7.0898,7.0898,7.0898,7.0898,7.0905,7.0959,7.1018,7.1081,7.1154,7.1219,7.1275,0.0,0.0,0.0,0.0,0.0,0.0,0.0,0.0,0.0,0.0,0.0,0.0,1.5299,1.6031,1.6524,1.6539,1.8041,1.9348,2.0266,2.0294,2.0318,2.0297,2.0315,0.0,2.0308,2.0217,2.1035,2.2683,2.4342,2.6844,3.0188,3.1824,3.3047,3.378,3.221,3.0935,2.9875,2.8277,2.7508,2.7306,2.6401,2.658,2.7301,2.7263,2.6732,2.5894,2.5098,2.4261,2.3465,2.2631,2.1832,2.1146,2.1146,2.0654,2.0199,0.0,0.0,0.0,3.242,3.6004,3.9533,4.3663,4.7192,5.0316,5.2765,5.4559,5.6194,5.7817,5.8155,5.838,5.9178,5.929,5.929,5.929,5.929,5.9328,5.9365,6.0079,6.068,6.0829,6.1599,6.2227,6.2391,6.316,6.3667,6.3667,6.4425,6.4888,6.4888,6.5107,6.5215,6.5245,6.5405,6.5452,6.5452,6.5452,6.591,6.6789,6.7591,6.8487,6.9519,7.0332,7.0758,7.0898,7.0898,7.0898,7.0898,7.0898,7.0898,7.0898,7.0905,7.0946,7.1018,7.1081,7.1154,7.1219,0.0,0.0,0.0,0.0,0.0,0.0,0.0,0.0,0.0,0.0,0.0,0.0,0.0,1.7211,1.7355,1.7384,1.842,1.9454,2.0294,2.0316,2.0297,2.0316,2.0294,2.0316,2.0308,2.0217,2.077,2.1924,2.3582,2.5815,2.8618,3.03,3.1824,3.3123,3.2546,3.1466,3.0028,2.8841,2.8037,2.7534,2.7721,2.8313,2.9147,2.9677,2.9677,2.9298,2.8461,2.729,2.6011,2.5174,2.3957,2.2703,2.2211,2.1453,2.0911,2.1661,2.3325,2.5808,2.9908,3.3043,3.6154,4.0328,4.3857,4.7079,5.0128,5.2494,5.4521,5.6165,5.6953,5.76,5.838,5.8952,5.929,5.929,5.929,5.929,5.929,5.9553,5.9975,6.0576,6.1035,6.1558,6.2122,6.2557,6.2833,6.2833,6.3591,6.4084,6.4084,6.4803,6.5207,6.5207,6.5329,6.5413,6.5413,6.5413,6.5834,6.6705,6.7034,6.7959,6.9404,6.9762,7.0263,7.0898,7.0898,7.0898,7.0898,7.0898,7.0898,7.0898,7.0898,7.0939,7.1011,7.1075,7.1148,7.1219,0.0,0.0,0.0,0.0,0.0,0.0,0.0,0.0,1.7048,1.7034,0.0,0.0,0.0,0.0,1.8346,1.8653,1.9185,1.9716,2.0287,2.0301,2.0318,2.0304,2.0283,2.0308,2.0308,2.0217,2.0619,2.1507,2.3125,2.505,2.7319,2.8962,3.0678,3.2279,3.1973,3.1393,3.0497,2.9302,2.8801,2.8802,2.9314,3.0389,3.172,3.2558,3.2899,3.2747,3.1909,3.0739,2.942,2.8241,2.6759,2.5205,2.4109,2.2779,2.1703,2.2164,2.3119,2.4753,2.8292,3.0898,3.3489,3.7405,4.0628,4.3745,4.7042,4.9753,5.2126,5.4334,5.546,5.6399,5.7488,5.8126,5.8652,5.9215,5.929,5.929,5.929,5.929,5.9515,6.0079,6.0329,6.0672,6.12,6.167,6.1961,6.1961,6.2985,6.3591,6.3591,6.4613,6.5232,6.525,6.536,6.5413,6.5413,6.5413,6.5681,6.6254,6.6643,6.7407,6.856,6.9215,6.9868,7.0514,7.0783,7.0898,7.0898,7.0898,7.0898,7.0898,7.0898,7.0939,7.1011,7.1075,7.1148,7.1219,0.0,0.0,0.0,0.0,0.0,0.0,0.0,0.0,1.7989,1.8027,0.0,0.0,0.0,0.0,0.0,2.0342,2.037,2.0324,2.0286,2.0287,2.0304,2.0302,2.0281,2.0308,2.0308,2.0217,2.0617,2.1468,2.3049,2.467,2.6329,2.8001,2.972,3.1293,3.0494,3.0609,3.1324,2.958,2.9802,3.1301,3.1299,3.2743,3.5059,3.5974,3.6315,3.6239,3.5401,3.4567,3.3581,3.1947,3.0238,2.8532,2.6763,2.4526,2.2502,2.2391,2.3537,2.5322,0.0,0.0,0.0,3.4953,3.763,4.034,4.3625,4.6298,4.9047,5.236,5.3704,5.4784,5.6445,5.6774,5.7338,5.8915,5.9215,5.9215,5.9215,5.9253,5.9253,5.9253,5.9463,5.9607,5.9607,6.0505,6.1069,6.1069,6.2576,6.3553,6.3553,6.4613,6.525,6.5406,6.5413,6.5413,6.5413,6.5413,6.5413,6.5413,6.6337,6.6801,6.695,6.8677,6.9561,6.9744,7.0552,7.0898,7.0898,7.0898,7.0898,7.0898,7.0898,7.0939,7.1011,7.1075,7.1148,7.1219,0.0,0.0,0.0,0.0,0.0,1.7802,1.8648,1.9303,1.9916,0.0,0.0,0.0,2.1477,2.1694,2.1679,2.1315,2.1232,2.0955,2.0322,2.0309,2.0296,2.0317,2.0263,2.0217,2.0217,2.0195,2.0325,2.0567,2.1587,2.264,2.3689,2.5412,2.6787,2.7816,2.8236,2.8844,2.9636,2.9725,3.0335,3.1415,3.2551,3.4491,3.6884,3.8314,3.9261,3.9792,3.9526,3.8546,3.7154,3.605,3.4188,3.161,2.7483,2.4908,2.3493,2.4018,2.4468,2.5329,2.7809,0.0,0.0,0.0,0.0,0.0,4.0334,4.3332,4.6141,4.8288,5.0316,5.2051,5.3095,5.4259,5.5423,5.6465,5.715,5.7563,5.7563,5.8089,5.8417,5.8417,5.9115,5.9607,5.9607,5.9975,6.0235,6.0235,6.122,6.2084,6.2682,6.4309,6.525,6.5406,6.5413,6.5413,6.5413,6.5413,6.5413,6.5413,6.5777,6.6277,6.6957,6.8157,6.907,6.9744,7.0552,7.0898,7.0898,7.0898,7.0898,7.0898,7.0898,7.0939,7.1011,7.1075,7.1148,7.1219,0.0,0.0,0.0,1.8807,1.9225,1.9761,2.0573,2.1102,2.1632,0.0,0.0,0.0,2.3916,2.3634,2.3197,2.2684,2.1984,2.1398,2.0883,2.0487,2.0283,2.0308,2.0257,2.0211,2.0211,2.0216,2.019,2.0213,2.1003,2.1641,2.2128,2.3466,2.4765,2.5912,2.6444,2.7507,2.8945,2.9755,3.0974,3.2518,3.4448,3.6765,3.9153,4.0853,4.2028,4.2748,4.2748,4.2109,4.1091,3.9873,3.7144,3.3505,2.953,2.7365,2.6293,2.6412,2.6685,2.7333,2.9103,2.9642,3.0146,3.1755,0.0,0.0,3.7625,4.0641,4.3472,4.5169,4.7439,4.9415,5.0203,5.1442,5.2606,5.3424,5.3996,5.4906,5.6671,5.73,5.7609,5.7654,5.851,5.9105,5.9139,5.9614,5.9893,5.9893,6.0652,6.1654,6.2931,6.441,6.5234,6.536,6.5398,6.5413,6.5413,6.5413,6.5413,6.5413,6.553,6.5869,6.6413,6.7793,6.866,6.9199,7.0398,7.0898,7.0898,7.0898,7.0898,7.0898,7.0898,7.0959,7.105,7.1087,7.116,7.1247,0.0,0.0,1.9531,2.0497,2.1415,2.2257,2.3038,2.328,2.3333,0.0,2.4079,2.4833,2.5602,2.4986,2.4444,2.4249,2.2889,2.1881,2.1611,2.086,2.0385,2.0306,2.0215,2.0205,2.0203,2.0195,2.0209,2.0209,2.0917,2.1251,2.1251,2.209,2.3351,2.4924,2.4997,2.6444,2.8831,2.971,3.1575,3.4149,3.6463,3.8963,4.1535,4.3208,4.4459,4.5293,4.5217,4.5255,4.5028,4.3165,3.9375,3.5022,3.2553,3.1113,3.0154,2.9401,2.9696,3.0477,3.1193,3.0807,3.0542,3.1954,3.2854,0.0,3.5344,3.8128,4.0797,4.2378,4.4626,4.6538,4.7259,4.8273,4.9205,4.9918,5.0257,5.1834,5.5919,5.6567,5.6677,5.6868,5.7687,5.8316,5.8353,5.9238,5.978,5.978,6.0576,6.1868,6.3546,6.4549,6.5134,6.5282,6.5368,6.5413,6.5413,6.5413,6.5413,6.5413,6.5523,6.5632,6.5793,6.7587,6.8462,6.8622,7.0206,7.0898,7.0898,7.0898,7.0898,7.0898,7.0898,7.0985,7.11,7.11,7.1184,7.1297,0.0,2.0031,2.0644,2.2156,2.313,2.3993,2.4774,2.5522,2.6195,2.685,2.7075,2.7219,2.7395,2.7277,2.6576,2.5207,2.4776,2.3699,2.1664,2.135,2.0957,2.0253,2.0195,2.021,2.019,2.0157,2.01,2.01,2.0289,2.0363,2.0363,2.1249,2.2166,2.3157,2.3842,2.5559,2.8035,2.944,3.1879,3.499,3.6729,3.9304,4.2369,4.4042,4.6051,4.7877,4.7157,4.7346,4.7498,4.4459,4.1421,3.8498,3.6007,3.4188,3.2932,3.2738,3.2783,3.2897,3.3077,3.2982,3.2775,3.2383,3.2411,0.0,3.376,3.5522,3.724,3.8209,4.0426,4.2228,4.2379,4.4187,4.568,4.5768,4.746,4.9965,5.3449,5.4514,5.5241,5.5965,5.6907,5.7505,5.753,5.8367,5.8946,5.8946,6.0273,6.1595,6.271,6.3636,6.4524,6.5282,6.5368,6.5413,6.5413,6.5413,6.5413,6.5413,6.5472,6.5935,6.6681,6.7815,6.8729,6.9513,7.0475,7.0898,7.0898,7.0898,7.0898,7.0898,7.0898,7.0985,7.11,7.11,7.1184,7.1297,2.08,2.1365,2.2165,2.3867,2.4882,2.5706,2.6517,2.7034,2.7598,2.8446,2.9264,2.9893,3.0346,2.9997,2.9219,2.7896,2.6643,2.5231,2.35,2.2222,2.1327,2.0858,2.0442,2.0188,2.0213,2.0145,2.0093,2.0093,2.0093,2.0093,2.0131,2.0981,2.1825,2.2658,2.396,2.5944,2.8417,3.0037,3.2623,3.586,3.7857,4.0663,4.3815,4.552,4.7719,4.9879,4.9462,4.9311,4.8862,4.5937,4.3549,4.1421,3.9342,3.7821,3.6722,3.6315,3.6187,3.6048,3.5594,3.52,3.4694,3.3819,3.3285,0.0,0.0,3.3894,3.4932,3.5299,3.7047,3.8527,3.8527,4.0192,4.1732,4.2102,4.391,4.6125,4.8618,5.1072,5.2827,5.3281,5.4569,5.5608,5.6064,5.6906,5.7619,5.8036,5.9552,6.0706,6.1172,6.2935,6.4127,6.4578,6.5123,6.5413,6.5413,6.5413,6.5413,6.5413,6.5457,6.5997,6.6919,6.7878,6.8799,6.9744,7.0552,7.0898,7.0898,7.0898,7.0898,7.0898,7.0898,7.0985,7.11,7.11,7.1184,7.1369,2.1712,2.2464,2.3447,2.5105,2.6244,2.7154,2.78,2.832,2.8956,2.98,3.1174,3.2368,3.3056,3.2627,3.1894,3.0855,2.8809,2.7058,2.5864,2.3542,2.2146,2.1952,2.115,2.0594,2.0436,2.0375,2.0284,2.0093,2.0093,2.0093,2.0131,2.0981,2.1939,2.2925,2.465,2.6902,2.9525,3.1165,3.3794,3.702,3.9428,4.2229,4.5066,4.6771,4.9083,5.1464,5.1616,5.1023,4.983,4.7669,4.5817,4.416,4.2485,4.1347,4.0507,3.9672,3.9445,3.925,3.8367,3.7528,3.6656,3.5628,3.4529,3.3468,0.0,0.0,0.0,3.3138,3.43,3.5311,3.5311,3.6567,3.7775,3.8437,3.9946,4.1492,4.2831,4.6273,4.9106,5.0318,5.1706,5.2945,5.3852,5.4882,5.5868,5.6853,5.8339,5.9325,5.9666,6.1923,6.3426,6.3875,6.4726,6.5222,6.5413,6.5413,6.5413,6.5413,6.5443,6.6059,6.7187,6.7941,6.8862,6.9975,7.0629,7.0898,7.0898,7.0898,7.0898,7.0898,7.0898,7.0985,7.11,7.11,7.1184,7.1407,2.2451,2.2825,2.3427,2.5123,2.6718,2.7778,2.7893,2.9833,3.1574,3.2353,3.3258,3.3852,3.3931,3.4496,3.4224,3.2652,3.1551,2.9982,2.7679,2.5795,2.4443,2.3659,2.2855,2.2043,2.1297,2.1254,2.0864,2.0093,2.0093,2.0093,2.0131,2.0981,2.2243,2.384,2.5523,2.8083,3.1328,3.2928,3.5543,3.8809,4.1244,4.3293,4.5066,4.6771,4.9424,5.2374,5.3131,5.2423,5.0967,4.9935,4.8504,4.6847,4.52,4.4096,4.3254,4.2324,4.208,4.1873,4.1021,4.0133,3.911,3.7528,3.5405,3.3468,3.2591,0.0,3.1484,3.1484,0.0,3.2796,3.2796,0.0,0.0,3.4291,3.5718,3.6825,3.6987,3.9339,4.2975,4.8153,4.9067,4.9576,5.0379,5.1888,5.3473,5.5072,5.6095,5.7278,5.8756,5.9992,6.1637,6.3845,6.4192,6.4695,6.5375,6.5413,6.5413,6.5413,6.5421,6.6352,6.8069,6.816,6.9159,7.0783,7.086,7.0898,7.0898,7.0898,7.0898,7.0898,7.0898,7.0985,7.11,7.11,7.1184,7.1407,2.1889,2.2532,2.3366,2.5101,2.6774,2.8063,2.8524,3.0766,3.2846,3.4114,3.5009,3.5868,3.6878,3.7295,3.7023,3.5794,3.4937,3.338,3.0886,2.8613,2.7027,2.6135,2.4364,2.3244,2.2852,2.1901,2.1213,2.0864,2.0363,2.0093,2.0131,2.1476,2.2737,2.4031,2.7205,3.0227,3.3089,3.5212,3.7744,4.0534,4.2503,4.4557,4.66,4.8231,5.0637,5.3215,5.3606,5.33,5.2468,5.0684,4.9619,4.8775,4.7094,4.6332,4.5875,4.5009,4.4389,4.3846,4.2981,4.1798,4.0359,3.8654,3.6307,3.4115,3.2749,3.1396,3.0579,3.1113,0.0,0.0,0.0,0.0,0.0,0.0,3.2858,3.3795,3.3271,3.4547,3.7466,4.2804,4.4833,4.6323,4.7611,4.9279,5.0751,5.1895,5.3707,5.5489,5.7164,5.9117,6.0875,6.2382,6.3581,6.4351,6.4695,6.5184,6.5413,6.5413,6.5413,6.6383,6.8184,6.8184,6.9191,7.0898,7.0898,7.0898,7.0898,7.0898,7.0898,7.0905,7.0946,7.1018,7.11,7.11,7.1184,7.1485,2.1434,2.2234,2.3264,2.477,2.6592,2.8376,2.9867,3.1882,3.3807,3.5415,3.6767,3.8006,3.9285,4.0046,4.0008,3.8894,3.8274,3.6874,3.4305,3.1764,2.999,2.9104,2.6638,2.5174,2.4947,2.3313,2.2322,2.209,2.1206,2.0781,2.0819,2.2273,2.3687,2.51,2.8886,3.2214,3.5194,3.7678,4.0177,4.2619,4.4538,4.6897,4.9334,5.052,5.2077,5.3752,5.4029,5.3988,5.356,5.1776,5.0862,5.0271,4.8785,4.8175,4.7832,4.7014,4.6317,4.5696,4.5081,4.3705,4.1992,4.0279,3.7776,3.5276,3.3599,3.1859,3.081,3.1455,3.1075,0.0,0.0,0.0,3.0861,2.9745,0.0,3.1113,3.0284,3.0886,3.3142,3.7877,4.0528,4.264,4.4308,4.5792,4.7157,4.8445,5.0903,5.3191,5.5064,5.7718,5.9741,6.1081,6.2863,6.3969,6.4198,6.4993,6.5413,6.5413,6.5413,6.6383,6.8184,6.8184,6.9191,7.0898,7.0898,7.0898,7.0898,7.0898,7.0898,7.0905,7.0972,7.1043,7.1106,7.1124,7.1356,7.1872,2.1504,2.2199,2.3088,2.3975,2.6174,2.8904,3.2175,3.3478,3.4656,3.6261,3.8627,4.0212,4.0272,4.2407,4.3171,4.1538,4.1347,4.0243,3.7716,3.5237,3.3437,3.2585,3.0098,2.8379,2.7584,2.595,2.465,2.384,2.2963,2.2505,2.2543,2.3457,2.5177,2.7698,3.03,3.3738,3.7755,4.0315,4.2837,4.5387,4.784,5.0748,5.3587,5.3585,5.3631,5.379,5.4667,5.451,5.3888,5.3892,5.2851,5.1417,5.0506,4.9671,4.8858,4.7911,4.7627,4.7615,4.7492,4.6256,4.4575,4.29,3.9974,3.7086,3.5397,3.3722,3.2504,3.2542,3.2542,3.2264,3.1458,3.1298,3.075,2.9033,2.8794,0.0,0.0,2.8313,3.0351,3.4562,3.6576,3.8243,3.9938,4.0923,4.2445,4.4876,4.7422,4.9958,5.2486,5.5116,5.7699,6.0241,6.2046,6.335,6.4198,6.4993,6.5413,6.5413,6.5413,6.6383,6.8184,6.8184,6.9191,7.0898,7.0898,7.0898,7.0898,7.0898,7.0898,7.0905,7.0972,7.1043,7.1112,7.1178,7.1783,7.2684,2.2367,2.3043,2.3688,2.3974,2.6104,2.9104,3.301,3.4806,3.6475,3.8732,4.0716,4.2393,4.3487,4.4814,4.5425,4.4857,4.4819,4.3749,4.1227,3.9742,3.8099,3.6107,3.4117,3.2432,3.1057,2.8803,2.6972,2.5562,2.4145,2.3155,2.262,2.4077,2.5794,2.7851,3.1522,3.5496,3.958,4.2101,4.4972,4.8028,5.0479,5.2412,5.384,5.3777,5.409,5.4591,5.4936,5.4936,5.4699,5.4237,5.3703,5.311,5.2231,5.1779,5.1505,5.1176,5.0712,5.0165,4.9543,4.8163,4.6364,4.4074,4.1426,3.8742,3.6483,3.4636,3.3392,3.3384,3.2965,3.2657,3.2906,3.2069,3.0726,2.9057,2.8283,2.7433,0.0,2.6535,2.7559,2.8961,3.161,3.396,3.5623,3.7068,3.9153,4.2217,4.5293,4.863,5.2303,5.4964,5.7318,5.9371,6.1702,6.3037,6.335,6.4726,6.5413,6.5413,6.5413,6.6383,6.8184,6.8184,6.9191,7.0898,7.0898,7.0898,7.0898,7.0898,7.0925,7.0972,7.1043,7.1112,7.1172,7.1195,7.1783,7.28,2.364,2.4308,2.4796,2.4472,2.6759,2.9873,3.3433,3.5682,3.7853,4.0387,4.2717,4.4666,4.6042,4.7455,4.8176,4.7876,4.7837,4.6915,4.4699,4.3482,4.1996,4.0043,3.8052,3.6371,3.4953,3.2164,2.9876,2.8198,2.6514,2.525,2.4454,2.5565,2.7131,2.9192,3.2519,3.6337,4.0497,4.3286,4.6271,4.9333,5.2106,5.3632,5.4307,5.4293,5.4593,5.5014,5.5082,5.515,5.5127,5.469,5.4371,5.3989,5.3454,5.304,5.2811,5.2811,5.2422,5.1888,5.1353,4.9977,4.8214,4.6304,4.3652,4.096,3.8707,3.6896,3.5577,3.5263,3.4768,3.4382,3.4289,3.3142,3.1458,2.9182,2.8099,2.6941,0.0,2.5473,2.5812,2.576,2.8211,3.0435,3.1796,3.3695,3.6121,3.9191,4.2791,4.6702,5.0975,5.3646,5.6151,5.8537,6.1106,6.2579,6.2884,6.4573,6.5413,6.5413,6.5413,6.6383,6.8184,6.8184,6.9191,7.0898,7.0898,7.0898,7.0898,7.0898,7.0939,7.1011,7.1075,7.1142,7.1213,7.123,7.1998,7.3303,2.5324,2.6076,2.6489,2.5702,2.8252,3.1252,3.3784,3.6341,3.8863,4.1423,4.4628,4.703,4.7908,5.0162,5.1347,5.0512,5.0436,4.9742,4.8099,4.65,4.5201,4.4236,4.1944,4.0229,3.9202,3.5959,3.3356,3.1519,2.9792,2.8497,2.7622,2.7736,2.9035,3.1446,3.3246,3.6375,4.053,4.3859,4.6844,4.9551,5.2837,5.4548,5.5082,5.5157,5.5095,5.5021,5.5136,5.5197,5.5242,5.5377,5.4868,5.4142,5.4142,5.3607,5.2925,5.2925,5.2925,5.2925,5.2887,5.1697,5.0283,4.9371,4.6691,4.382,4.2068,4.0387,3.8935,3.806,3.7831,3.7245,3.5611,3.4564,3.287,2.9482,2.8169,2.7058,2.5463,2.5235,2.5184,2.5075,2.6488,2.7752,2.8495,3.0768,3.3274,3.5898,3.9949,4.4177,4.854,5.1205,5.4197,5.7734,6.0293,6.2013,6.2884,6.4573,6.5413,6.5413,6.5413,6.6383,6.8184,6.8184,6.9191,7.0898,7.0898,7.0898,7.0898,7.0898,7.0939,7.1011,7.1075,7.1148,7.1219,7.1352,7.2491,7.4115,2.706,2.8759,3.0348,3.0692,3.2034,3.3865,3.6379,3.9431,4.2374,4.4895,4.7608,4.9666,5.0544,5.1735,5.2384,5.2193,5.2161,5.1735,5.0697,5.0201,4.9054,4.6915,4.6222,4.4584,4.1877,3.9126,3.626,3.3322,3.0987,2.8771,2.6746,2.8001,2.8952,2.9716,3.3314,3.6884,4.0468,4.3791,4.7735,5.1898,5.3993,5.4929,5.5035,5.512,5.5085,5.5021,5.5136,5.5261,5.5339,5.5396,5.5244,5.5059,5.5059,5.49,5.4709,5.4709,5.4709,5.46,5.3951,5.3454,5.2614,5.0512,4.8869,4.7193,4.4862,4.3023,4.1571,4.0697,3.9546,3.8319,3.7245,3.5866,3.3978,3.1199,2.8959,2.7452,2.7034,2.6958,2.6722,2.6055,2.6333,2.6681,2.6842,2.8536,3.0962,3.4112,3.82,4.2432,4.6795,5.0596,5.3937,5.6855,5.995,6.2013,6.2884,6.4573,6.5413,6.5413,6.5413,6.6383,6.8184,6.8184,6.9191,7.0898,7.0898,7.0898,7.0898,7.0898,7.0939,7.1011,7.1075,7.1172,7.143,7.2756,7.3535,7.4038,2.9365,3.1682,3.3925,3.4766,3.6528,3.8056,3.8744,4.1724,4.4781,4.7302,4.9824,5.1735,5.2607,5.3454,5.3951,5.3951,5.3569,5.3187,5.2728,5.2346,5.1467,5.0054,4.9284,4.7679,4.5043,4.2144,3.882,3.5076,3.294,3.0376,2.7507,2.8844,2.9456,2.9608,3.3127,3.6532,3.9986,4.5148,4.939,5.276,5.4434,5.5071,0.0,5.5085,5.5071,5.5021,5.5136,5.5255,5.5326,5.539,5.5396,5.5396,5.5396,5.5396,5.5396,5.5396,5.5396,5.5282,5.4791,5.4409,5.376,5.2308,5.1085,4.9633,4.7461,4.5927,4.4628,4.341,4.2106,4.0802,3.9589,3.7674,3.522,3.1958,2.9917,2.8606,2.8218,2.8179,2.7829,2.6971,2.6577,2.6322,2.6246,2.7721,2.9791,3.2437,3.6491,4.0723,4.5077,4.8925,5.259,5.5976,5.9338,6.1669,6.2884,6.4573,6.5413,6.5413,6.5796,6.6766,6.823,6.8568,6.9529,7.0898,7.0898,7.0898,7.0898,7.0898,7.0939,7.1011,7.1112,7.1207,7.1485,7.2839,7.3342,7.3458,3.2248,3.4842,3.7287,3.8209,4.1074,4.2908,4.1796,4.3978,4.6697,4.9257,5.1664,5.346,5.4333,5.5212,5.567,5.5549,5.4868,5.4371,5.4295,5.3569,5.3072,5.2964,5.1582,4.9971,4.8176,4.4857,4.1108,3.7016,3.4961,3.2248,2.8914,2.9685,2.9959,2.9997,3.2741,3.6099,4.0152,4.7108,5.1052,5.2733,5.44,5.5042,5.4992,5.5064,5.505,5.5021,5.513,5.5183,5.5242,5.5339,5.5396,5.5396,5.5396,5.5396,5.5396,5.5396,5.5396,5.5396,5.5396,5.4868,5.4256,5.4142,5.2996,5.1499,4.9945,4.8907,4.7832,4.6276,4.5201,4.3935,4.2144,3.9589,3.6489,3.2745,3.1408,3.0605,2.9831,2.964,2.9213,2.8235,2.7395,0.0,2.6345,2.7565,2.9094,3.0846,3.4726,3.8879,4.317,4.6843,5.0796,5.5091,5.8574,6.1218,6.2884,6.4573,6.5452,6.5566,6.6338,6.7309,6.8376,6.9112,6.9959,7.0898,7.0898,7.0898,7.0898,7.0898,7.0939,7.1018,7.1142,7.123,7.1363,7.2142,7.2413,7.2568,3.6226,3.8243,4.0115,4.1648,4.4093,4.6457,4.8258,4.8493,4.9333,5.1817,5.3798,5.525,5.6059,5.6931,5.716,5.6441,5.625,5.5861,5.5212,5.5021,5.4639,5.3913,5.3607,5.2308,4.9901,4.6577,4.3138,3.9613,3.584,3.2248,2.8911,2.9067,2.8765,2.8309,3.2203,3.7652,4.4218,4.8232,5.0906,5.2568,5.4275,5.4912,5.4905,5.4919,5.4956,5.5014,5.5106,5.5143,5.5242,5.5339,5.5396,5.5396,5.5396,5.5396,5.5396,5.5396,5.5396,5.5396,5.5396,5.5282,5.5014,5.4295,5.3874,5.3416,5.239,5.1505,5.0659,4.9633,4.8214,4.6413,4.4011,4.0348,3.7254,3.5836,3.4881,3.4269,3.4117,3.3547,3.2554,3.1018,3.0004,2.8651,2.6581,2.657,2.7418,2.9095,3.2475,3.6315,4.0615,4.5344,4.9874,5.418,5.8275,6.1218,6.2884,6.4573,6.5757,6.6483,6.6667,6.7629,6.9212,6.9393,7.0008,7.0898,7.0898,7.0898,7.0898,7.0898,7.0939,7.1011,7.1087,7.116,7.123,7.143,7.1523,7.164,4.0005,4.2068,4.3897,4.5158,4.7837,5.0321,5.2002,5.2696,5.3422,5.4607,5.5899,5.6855,5.7237,5.7657,5.7734,5.732,5.7275,5.6938,5.6091,5.6014,5.5632,5.483,5.4333,5.311,5.1003,4.8099,4.4546,4.0306,3.6944,3.3314,2.957,2.957,2.9379,2.9226,3.4217,3.9396,4.4563,4.8313,5.0865,5.2563,5.4231,5.4905,5.4941,5.4941,5.4992,5.5071,5.5109,5.5163,5.5242,5.5339,5.5396,5.5396,5.5396,5.5396,5.5396,5.5396,5.5396,5.5396,5.5396,5.5396,5.5282,5.4868,5.4785,5.4562,5.3683,5.3187,5.2652,5.1773,5.0621,4.8749,4.5316,4.2297,3.9928,3.8701,3.8128,3.7517,3.6604,3.6146,3.5156,3.3054,3.1588,3.0126,2.8525,2.7169,2.7067,2.8727,3.1542,3.503,3.9356,4.3937,4.8611,5.3263,5.7129,6.0332,6.2884,6.4153,6.5413,6.6705,6.7217,6.8142,6.9404,6.9944,7.0445,7.0898,7.0898,7.0898,7.0898,7.0898,7.0939,7.1011,7.1075,7.1142,7.1213,7.1275,7.1297,7.1369,4.394,4.6003,4.7832,4.8711,5.1353,5.3683,5.4753,5.6167,5.7091,5.6899,5.7619,5.8154,5.8154,5.8307,5.8345,5.8154,5.8154,5.7772,5.6938,5.6861,5.6511,5.5708,5.4982,5.3836,5.2187,4.9627,4.6036,4.1375,3.8434,3.4957,3.0991,3.0647,3.0824,3.1714,3.6953,4.1266,4.4764,4.8561,5.1164,5.284,5.4327,5.4971,5.5028,5.5028,5.5071,5.5109,5.517,5.5242,5.5255,5.5345,5.5396,5.5396,5.5396,5.5396,5.5396,5.5396,5.5396,5.5396,5.5396,5.5396,5.5396,5.5396,5.5396,5.5205,5.4524,5.4371,5.4142,5.3263,5.2308,5.0468,4.6773,4.4895,4.3324,4.1643,4.1223,4.0611,3.924,3.8591,3.7406,3.5042,3.328,3.1671,3.0341,2.8392,2.7692,2.8807,3.0867,3.4012,3.8472,4.2717,4.7341,5.239,5.6014,5.9415,6.2579,6.3854,6.5314,6.7003,6.7936,6.8823,6.9702,7.0472,7.0843,7.0898,7.0898,7.0898,7.0898,7.0912,7.0952,7.1011,7.1093,7.116,7.1213,7.1275,7.1297,7.1297,4.8187,4.9901,5.1385,5.2193,5.3913,5.5708,5.7313,5.83,5.8606,5.7886,5.8491,5.8988,5.8988,5.9682,5.9842,5.9064,5.8988,5.8644,5.7848,5.7772,5.7396,5.6517,5.6403,5.5594,5.3913,5.1391,4.8334,4.4824,4.0769,3.7024,3.3589,3.2019,3.2882,3.5878,3.9394,4.3257,4.7307,5.0024,5.2185,5.3843,5.4718,5.5099,5.5106,5.5106,5.5116,5.5183,5.519,5.5268,5.539,5.5396,5.5396,5.5396,5.5396,5.5396,5.5396,5.5396,5.5396,5.5396,5.5396,5.5396,5.5396,5.5396,5.5396,5.5396,5.5282,5.5282,5.5021,5.4142,5.2722,5.1003,4.9104,4.7952,4.6762,4.5092,4.4164,4.3586,4.3433,4.149,3.9389,3.7564,3.5878,3.3624,3.0494,2.9997,2.957,2.8949,2.9834,3.2592,3.7564,4.1834,4.6457,5.1538,5.5747,5.9147,6.1707,6.4076,6.6185,6.7982,6.8861,6.9778,7.0664,7.0819,7.0891,7.0898,7.0898,7.0898,7.0905,7.0965,7.0998,7.1018,7.1148,7.1201,7.1213,7.1275,7.1297,7.1297,5.1964,5.3874,5.5479,5.5785,5.7657,5.9338,6.0026,6.0821,6.1089,6.0217,5.9988,5.9873,5.9873,6.0186,6.0262,5.9911,5.9873,5.9529,5.8682,5.8606,5.8268,5.7428,5.6861,5.6052,5.4906,5.2378,4.9666,4.6806,4.31,4.0081,3.775,3.5993,3.6947,4.0281,4.3112,4.613,4.9195,5.1236,5.2771,5.3978,5.4777,5.5109,5.515,5.515,5.5228,5.5326,5.5326,5.5339,5.5396,5.5396,5.5396,5.5396,5.5396,5.5396,5.5396,5.5396,5.5396,5.5396,5.5396,5.5396,5.5396,5.5396,5.5396,5.5396,5.5396,5.5396,5.5282,5.4938,5.3945,5.2728,5.155,5.0627,4.9513,4.7843,4.7302,4.6538,4.501,4.3477,4.1719,3.9503,3.7326,3.5263,3.3394,3.1828,3.0984,3.1167,3.1022,3.2898,3.7449,4.1266,4.5845,5.1423,5.4709,5.8097,6.1708,6.3193,6.5379,6.8141,6.8565,6.9459,7.0794,7.0864,7.0898,7.0898,7.0946,7.0959,7.0965,7.103,7.1062,7.1068,7.1172,7.1207,7.1213,7.1275,7.1297,7.1297,5.5899,5.7581,5.8994,5.8994,6.0637,6.1975,6.1975,6.2502,6.2693,6.2044,6.1234,6.0654,6.0415,6.0415,6.0415,6.0415,6.0415,6.0148,5.9522,5.9484,5.9109,5.8307,5.7657,5.6855,5.5785,5.3754,5.1461,4.894,4.5807,4.34,4.1757,4.0487,4.1418,4.4282,4.6815,4.916,5.1351,5.3021,5.4101,5.4731,5.5296,5.5444,5.5255,5.5255,5.5326,5.5396,5.5396,5.5396,5.5396,5.5396,5.5396,5.5396,5.5396,5.5396,5.5396,5.5396,5.5396,5.5396,5.5396,5.5396,5.5396,5.5396,5.5396,5.5396,5.5396,5.5396,5.5396,5.5396,5.49,5.4218,5.3339,5.2728,5.1811,5.0092,4.9639,4.8645,4.6347,4.4852,4.3166,4.0917,3.8625,3.6791,3.5683,3.3964,3.3043,3.3425,3.3314,3.477,3.8285,4.1686,4.6129,5.1797,5.4441,5.773,6.1784,6.2894,6.5036,6.822,6.85,6.9418,7.0822,7.0878,7.0912,7.0932,7.0979,7.1011,7.1037,7.1106,7.113,7.1136,7.1207,7.1236,7.1236,7.128,7.1297,7.1297,6.0148,6.0981,6.1554,6.1554,6.2273,6.2884,6.2884,6.2884,6.2884,6.2884,6.2062,6.1208,6.0485,6.0415,6.0415,6.0415,6.0415,6.0415,6.0377,6.0377,5.9988,5.9102,5.9064,5.83,5.6632,5.5785,5.4097,5.1538,4.8978,4.6877,4.5244,4.5148,4.5993,4.7741,5.024,5.2317,5.4052,5.5724,5.6489,5.6549,5.6594,5.6129,5.5396,5.5396,5.5396,5.5396,5.5396,5.5396,5.5396,5.5396,5.5396,5.5396,5.5396,5.5396,5.5396,5.5396,5.5396,5.5396,5.5396,5.5396,5.5396,5.5396,5.5396,5.5396,5.5396,5.5396,5.5396,5.5396,5.5396,5.5135,5.4256,5.4065,5.3531,5.1843,5.085,4.9704,4.8023,4.5573,4.3362,4.1691,4.0005,3.8319,3.6634,3.6443,3.6099,3.5224,3.668,3.84,4.0153,4.3443,4.7608,5.2721,5.5356,5.8375,6.1857,6.3537,6.5688,6.8297,6.9097,6.9977,7.0898,7.0898,7.0939,7.0998,7.1005,7.1037,7.1106,7.1178,7.1207,7.1213,7.1269,7.1291,7.1291,7.1297,7.1297,7.1297,6.2051,6.2733,6.323,6.323,6.3909,6.4488,6.4488,6.4488,6.4251,6.3672,6.3305,6.281,6.1995,6.0898,6.0212,6.0212,6.0212,6.0212,6.0212,6.0212,6.0059,5.9785,5.9259,5.8725,5.8192,5.6823,5.547,5.4059,5.2131,5.0359,4.8716,4.9845,5.0985,5.2163,5.4098,5.5586,5.6675,5.7248,5.7484,5.7434,5.6823,5.6441,5.6167,5.5594,5.5396,5.5396,5.5396,5.5396,5.5396,5.5396,5.5396,5.5396,5.5396,5.5396,5.5396,5.5396,5.5396,5.5396,5.5396,5.5396,5.5396,5.5396,5.5823,5.6205,5.6205,5.6664,5.6931,5.632,5.6205,5.5976,5.5135,5.4982,5.4409,5.269,5.2193,5.1021,4.8264,4.6668,4.5138,4.346,4.1781,4.0543,3.9971,3.9427,3.8964,3.8701,4.0234,4.1151,4.1113,4.4857,4.8826,5.2797,5.6473,5.9556,6.1934,6.3617,6.5499,6.7487,6.8326,6.9525,7.0898,7.0898,7.0939,7.1005,7.105,7.1112,7.1178,7.1241,7.1269,7.1269,7.1286,7.1297,7.1297,7.1297,7.1297,7.1297,6.3833,6.4138,6.4442,6.4442,6.4859,6.5207,6.5207,6.5207,6.5017,6.4476,6.4063,6.3658,6.3126,6.1809,6.0972,6.1035,6.1043,6.089,6.0624,6.0586,6.0434,6.0091,5.9642,5.9223,5.8919,5.7927,5.6958,5.6082,5.4828,5.3658,5.269,5.3728,5.4677,5.5594,5.6931,5.7848,5.8383,5.8689,5.8651,5.8307,5.7772,5.7351,5.7014,5.6549,5.6129,5.5861,5.5861,5.567,5.5396,5.5396,5.5396,5.5396,5.5396,5.5594,5.5785,5.5479,5.5626,5.5785,5.5473,5.5855,5.6243,5.5938,5.6473,5.7091,5.7091,5.7504,5.7657,5.6785,5.6594,5.6365,5.5556,5.5129,5.4448,5.304,5.2561,5.1323,4.8329,4.7169,4.6151,4.4777,4.3407,4.2665,4.2953,4.2522,4.2202,4.2183,4.3744,4.4715,4.486,4.7646,5.0816,5.425,5.7876,6.0623,6.2457,6.3841,6.5398,6.7096,6.8321,6.959,7.0898,7.0898,7.0952,7.1043,7.1081,7.1154,7.1241,7.128,7.1297,7.1297,7.1297,7.1297,7.1297,7.1297,7.1297,7.1297,6.5452,6.5283,6.5275,6.5199,6.5199,6.5191,6.5191,6.5191,6.5191,6.5191,6.4432,6.3879,6.3879,6.312,6.2635,6.2761,6.2579,6.2168,6.1446,6.1331,6.0913,6.0114,6.0076,5.9733,5.898,5.898,5.8576,5.7708,5.6934,5.6622,5.6708,5.6747,5.7205,5.8001,5.8835,5.9179,5.9255,6.0064,5.9911,5.9179,5.9102,5.8644,5.7963,5.7925,5.7396,5.6708,5.6708,5.6205,5.5549,5.5549,5.5549,5.5549,5.5549,5.6091,5.6517,5.5708,5.6052,5.6517,5.5785,5.6702,5.7695,5.6899,5.7358,5.8001,5.8039,5.8077,5.781,5.6861,5.6708,5.6434,5.5549,5.4677,5.3798,5.2925,5.2171,5.0833,4.834,4.7359,4.6594,4.5836,4.5036,4.4863,4.5686,4.5758,4.5732,4.5675,4.7199,4.8903,5.0571,5.1627,5.361,5.6801,5.947,6.1644,6.3275,6.4205,6.5513,6.7212,6.8821,7.0052,7.0898,7.0898,7.0972,7.11,7.11,7.1178,7.1297,7.1297,7.1297,7.1297,7.1297,7.1297,7.1297,7.1297,7.1297,7.1297,6.6294,6.6054,6.5821,6.5175,6.5001,6.495,6.495,6.495,6.495,6.495,6.4781,6.4649,6.4649,6.4442,6.4329,6.4334,6.2568,6.1354,6.1164,6.0595,6.014,5.995,5.995,5.9874,5.9684,5.9709,5.9384,5.8664,5.7839,5.7468,5.7619,5.823,5.8606,5.8835,5.972,6.0109,6.0109,6.03,6.0262,6.0033,5.937,5.8988,5.8758,5.8116,5.7772,5.7581,5.7581,5.7466,5.7313,5.7313,5.7313,5.7313,5.7313,5.7428,5.7428,5.6549,5.6938,5.7542,5.7351,5.7581,5.7848,5.7619,5.823,5.8988,5.9651,5.9804,5.9383,5.7893,5.7581,5.7122,5.5664,5.4677,5.3798,5.2925,5.2171,5.1042,4.9165,4.8757,4.86,4.8423,4.8231,4.8408,4.9201,4.9273,4.9247,4.9182,5.079,5.2219,5.3251,5.542,5.7019,5.7831,6.0954,6.2829,6.3314,6.482,6.6436,6.8084,6.8507,6.9475,7.0898,7.0898,7.0972,7.11,7.11,7.1178,7.1297,7.1297,7.1297,7.1297,7.1297,7.1297,7.1297,7.1297,7.1297,7.1297,6.7011,6.6511,6.6068,6.5612,6.518,6.4888,6.4888,6.4888,6.4888,6.4888,6.4888,6.4888,6.4888,6.4888,6.4888,6.4888,6.3638,6.2501,6.1743,6.1288,6.0681,5.9931,5.9934,5.995,5.995,6.0029,5.9901,5.96,5.9104,5.8956,5.9039,5.9491,5.9682,5.972,6.0186,6.0415,6.0415,6.0415,6.0415,6.0377,5.9873,5.9682,5.9644,5.9224,5.8803,5.8459,5.8459,5.823,5.7886,5.7886,5.7886,5.7886,5.7886,5.8154,5.8345,5.7886,5.8077,5.8383,5.8001,5.8459,5.9039,5.9039,5.9376,5.9835,6.03,6.0415,5.9918,5.823,5.7886,5.7275,5.5174,5.4104,5.3237,5.2426,5.1643,5.0703,4.9447,4.9662,4.9927,4.9937,5.0624,5.1416,5.2214,5.2626,5.2834,5.2772,5.3984,5.5113,5.5989,5.7781,5.8732,5.8732,6.1676,6.3245,6.3314,6.5013,6.6744,6.8391,6.8391,6.9276,7.0898,7.0898,7.0972,7.11,7.11,7.1178,7.1297,7.1297,7.1297,7.1297,7.1297,7.1297,7.1297,7.1297,7.1562,7.1872,6.7749,6.6897,6.6244,6.613,6.5419,6.4888,6.4888,6.4888,6.4888,6.4888,6.4888,6.4888,6.4888,6.4888,6.4888,6.4888,6.4888,6.4235,6.2682,6.234,6.1553,6.0159,6.005,6.0013,6.0013,6.0053,6.0167,6.0286,6.0286,6.033,6.0415,6.0415,6.0415,6.0415,6.0415,6.0415,6.0415,6.0415,6.0415,6.0415,6.0415,6.0415,6.0415,6.0415,5.995,5.9293,5.9293,5.888,5.8268,5.8268,5.8268,5.8268,5.8268,5.8765,5.9293,5.9293,5.9293,5.914,5.8459,5.9307,6.0415,6.0415,6.0415,6.0415,6.0415,6.0422,5.9932,5.825,5.7913,5.7193,5.4747,5.3485,5.263,5.1993,5.113,5.0335,4.9762,5.036,5.1015,5.1399,5.2702,5.3956,5.4913,5.5594,5.5994,5.598,5.6748,5.7616,5.8546,5.9359,5.9858,5.9973,6.2136,6.3429,6.3698,6.5166,6.6744,6.8391,6.8391,6.9276,7.0898,7.0898,7.0972,7.11,7.11,7.1178,7.1297,7.1297,7.1297,7.1297,7.1297,7.1297,7.1297,7.1297,7.1833,7.2607,6.8612,6.7769,6.6973,6.6215,6.5419,6.4888,6.4888,6.4888,6.4888,6.4888,6.4888,6.4888,6.4888,6.4888,6.4888,6.4888,6.4888,6.4463,6.3477,6.2084,6.1182,6.0917,6.0315,6.0013,6.0013,6.0053,6.0167,6.0286,6.0286,6.033,6.0415,6.0415,6.0415,6.0415,6.0415,6.0415,6.0415,6.0415,6.0415,6.0415,6.0415,6.0415,6.0415,6.0415,6.0339,6.0186,6.0186,6.0109,5.9995,5.9995,5.9995,5.9995,5.9995,6.0109,6.0186,6.0186,6.0186,6.0186,6.0033,6.0186,6.0415,6.0415,6.0415,6.0415,6.0415,6.0425,6.0007,5.8323,5.8023,5.7486,5.5647,5.3999,5.2931,5.2828,5.1568,5.0765,5.1347,5.1585,5.2505,5.467,5.517,5.5934,5.7538,5.7802,5.7856,5.7799,5.8608,5.9427,6.0275,6.1168,6.2,6.2686,6.3077,6.4006,6.5474,6.5743,6.6744,6.8391,6.8391,6.9276,7.0898,7.0898,7.0972,7.11,7.11,7.1178,7.1297,7.1297,7.1297,7.1297,7.1297,7.1297,7.1297,7.1297,7.1833,7.2607,6.9361,6.8687,6.7889,6.7016,6.6225,6.5576,6.512,6.5044,6.5044,6.5044,6.4993,6.4958,6.4958,6.4915,6.4888,6.4888,6.4888,6.4728,6.4311,6.3145,6.2046,6.1144,6.0887,6.0578,6.0212,6.0248,6.0285,6.0359,6.0359,6.038,6.0415,6.0415,6.0415,6.0415,6.0415,6.0415,6.0415,6.0415,6.0415,6.0415,6.0415,6.0415,6.0415,6.0415,6.0415,6.0415,6.0415,6.0415,6.0415,6.0415,6.0415,6.0415,6.0415,6.0415,6.0415,6.0415,6.0415,6.0415,6.0415,6.0415,6.0422,6.0425,6.0432,6.0446,6.048,6.0513,6.0188,5.8968,5.838,5.7555,5.583,5.4526,5.3546,5.3119,5.2411,5.2092,5.2508,5.3379,5.4395,5.5555,5.6896,5.805,5.8858,5.9358,5.9846,6.0284,6.0654,6.1231,6.2047,6.25,6.3128,6.3968,6.4006,6.4628,6.5897,6.5904,6.6744,6.8391,6.8391,6.9296,7.0952,7.0952,7.103,7.116,7.116,7.1213,7.1297,7.1297,7.1297,7.1297,7.1297,7.1297,7.1297,7.1297,7.2142,7.3303,6.9967,6.9339,6.8595,6.7949,6.7021,6.6197,6.555,6.5321,6.5207,6.5207,6.5111,6.5061,6.5061,6.4993,6.495,6.495,6.495,6.495,6.495,6.4343,6.331,6.1784,6.152,6.1179,6.0676,6.0683,6.0797,6.0988,6.0797,6.0797,6.0988,6.0568,6.0492,6.0683,6.0492,6.0415,6.0415,6.0415,6.0415,6.0415,6.0415,6.0415,6.0415,6.0415,6.0415,6.0415,6.0415,6.0415,6.0415,6.0415,6.0415,6.0415,6.0415,6.0415,6.0384,6.0436,6.0412,6.0425,6.0443,6.0412,6.0477,6.0493,6.0506,6.0558,6.061,6.0591,6.038,5.9498,5.8858,5.7943,5.6447,5.5493,5.4671,5.3832,5.3568,5.3502,5.3736,5.4895,5.5939,5.6511,5.8319,5.9588,5.9781,6.0589,6.1364,6.2056,6.2287,6.2743,6.3545,6.3583,6.4006,6.4859,6.4897,6.5205,6.5897,6.6096,6.6936,6.8391,6.8642,6.9521,7.1005,7.1018,7.1093,7.1207,7.1207,7.1241,7.1297,7.1297,7.1297,7.1297,7.1297,7.1297,7.1297,7.1297,7.2297,7.3612,7.0167,6.9491,6.8882,6.8806,6.7483,6.6387,6.6311,6.5664,6.5207,6.5207,6.5207,6.5199,6.5199,6.5191,6.5191,6.5191,6.5191,6.5191,6.5191,6.5115,6.4655,6.366,6.2261,6.1513,6.1516,6.1516,6.1898,6.2732,6.1898,6.1936,6.2693,6.1141,6.0797,6.1478,6.0721,6.0415,6.0415,6.0415,6.0415,6.0415,6.0415,6.0415,6.0415,6.0415,6.0415,6.0415,6.0415,6.0415,6.0415,6.0415,6.0415,6.0415,6.0415,6.0415,6.0429,6.0453,6.0558,6.0552,6.0493,6.0558,6.0604,6.0572,6.0572,6.0572,6.0617,6.0635,6.0455,5.9565,5.9382,5.911,5.8264,5.7385,5.6505,5.5665,5.489,5.4664,5.5395,5.5631,5.6588,5.8934,5.9396,5.9819,6.0633,6.1479,6.2018,6.2095,6.2781,6.3583,6.4474,6.4512,6.4897,6.5788,6.5782,6.5827,6.5904,6.6635,6.7475,6.8391,6.9265,7.0151,7.1005,7.1068,7.1136,7.1207,7.1207,7.1241,7.1297,7.1297,7.1297,7.1297,7.1297,7.1297,7.1297,7.1297,7.1872,7.2684,7.0185,6.9962,6.9586,6.9053,6.8074,6.7161,6.6656,6.5855,6.5321,6.5321,6.5274,6.5242,6.5242,6.524,6.5207,6.5207,6.5207,6.5207,6.5207,6.5207,6.4835,6.3975,6.2895,6.2352,6.2388,6.2426,6.2579,6.2884,6.2579,6.2579,6.2884,6.2242,6.2128,6.235,6.1516,6.1134,6.1096,6.0606,6.0415,6.0415,6.0415,6.0415,6.0415,6.0415,6.0415,6.0415,6.0415,6.0415,6.0415,6.0415,6.0443,6.0439,6.0439,6.0473,6.0513,6.0533,6.0597,6.0648,6.0623,6.0597,6.0591,6.0642,6.0654,6.066,6.0697,6.0734,6.0675,6.0329,5.984,5.9396,5.9088,5.8357,5.7703,5.7357,5.7049,5.6973,5.728,5.7742,5.8434,5.9396,5.9973,6.0666,6.1518,6.1903,6.2518,6.3557,6.3935,6.4474,6.5359,6.5397,6.5551,6.5897,6.5904,6.5904,6.5904,6.6712,6.7552,6.8391,6.9348,7.0253,7.1068,7.1136,7.1201,7.1264,7.1264,7.1275,7.1297,7.1297,7.1297,7.1297,7.1297,7.1297,7.1297,7.1297,7.1833,7.2607,7.0272,7.0286,7.0129,6.9526,6.8583,6.7714,6.7171,6.6139,6.5413,6.5413,6.536,6.5329,6.5329,6.5282,6.525,6.525,6.525,6.525,6.525,6.525,6.4877,6.4031,6.3528,6.326,6.3312,6.3312,6.3427,6.3687,6.3427,6.3427,6.3656,6.3152,6.3037,6.3274,6.2395,6.2013,6.1936,6.1134,6.0797,6.0797,6.0825,6.0832,6.0839,6.086,6.0867,6.0828,6.0561,6.0439,6.0439,6.0439,6.0473,6.0513,6.0513,6.0559,6.0617,6.0617,6.0859,6.1144,6.1144,6.13,6.1352,6.0863,6.0722,6.0734,6.0775,6.0787,6.0787,6.0787,6.0319,5.9973,6.0281,5.9627,5.9088,5.9088,5.8858,5.8665,5.8665,5.9165,5.9588,5.9896,6.0441,6.1133,6.2018,6.2326,6.3051,6.4474,6.4859,6.5282,6.5859,6.5904,6.5904,6.5904,6.6134,6.6288,6.6288,6.709,6.7949,6.8847,6.9765,7.0529,7.1136,7.1207,7.1258,7.1297,7.1297,7.1297,7.1297,7.1297,7.1297,7.1297,7.1297,7.1297,7.1297,7.1297,7.1678,7.2181,7.0411,7.0411,7.0411,7.0411,6.9005,6.7905,6.7905,6.6483,6.5413,6.5413,6.5413,6.5413,6.5413,6.5413,6.5413,6.5413,6.5413,6.5413,6.5413,6.5413,6.4993,6.4031,6.4153,6.4198,6.4198,6.4198,6.4619,6.5413,6.4619,6.4619,6.5375,6.3687,6.3388,6.416,6.3312,6.2923,6.2846,6.1975,6.1593,6.1638,6.176,6.1795,6.1802,6.1869,6.1895,6.1818,6.093,6.0623,6.0623,6.0617,6.0617,6.0617,6.0623,6.0674,6.0697,6.0736,6.1393,6.2095,6.2095,6.2704,6.2891,6.1243,6.0825,6.0825,6.0825,6.0825,6.0825,6.0825,6.0825,6.1095,6.1941,6.1402,6.0825,6.0825,6.0089,5.9511,5.9511,5.9511,5.9819,6.071,6.0825,6.1133,6.2024,6.2858,6.366,6.4551,6.5397,6.5904,6.5904,6.5904,6.5904,6.5904,6.6673,6.7096,6.7135,6.7975,6.8892,6.981,7.0683,7.1136,7.1207,7.1269,7.1297,7.1297,7.1297,7.1297,7.1297,7.1297,7.1297,7.1297,7.1297,7.1297,7.1297,7.1297,7.1297,7.1297,7.0411,7.0411,7.0411,7.0411,6.9502,6.8631,6.7981,6.7018,6.6101,6.549,6.5413,6.5413,6.5413,6.5413,6.5413,6.5413,6.5413,6.5413,6.5413,6.5413,6.5291,6.4993,6.5024,6.5031,6.5031,6.5031,6.5146,6.5413,6.5146,6.5146,6.5375,6.4879,6.4802,6.4993,6.4198,6.3816,6.374,6.2918,6.2595,6.2602,6.2685,6.2712,6.2712,6.2732,6.2745,6.27,6.2432,6.2355,6.2278,6.1703,6.1537,6.1582,6.1638,6.1668,6.1796,6.2366,6.2725,6.2935,6.2935,6.3121,6.3198,6.266,6.2127,6.1864,6.2435,6.2127,6.1864,6.2435,6.2545,6.2627,6.2897,6.2737,6.2563,6.261,6.1884,6.1323,6.1406,6.0911,6.0635,6.0905,6.145,6.2106,6.2987,6.38,6.4636,6.5525,6.5839,6.5955,6.5955,6.5958,6.6242,6.6807,6.7,6.7693,6.897,6.9239,6.9515,6.981,7.0738,7.1184,7.1207,7.1269,7.1297,7.1297,7.1297,7.1297,7.1297,7.1297,7.1297,7.1297,7.1297,7.1297,7.1297,7.1297,7.1678,7.222,7.0411,7.0411,7.0411,7.0411,6.9731,6.889,6.802,6.7209,6.6407,6.5528,6.5413,6.5528,6.5872,6.5605,6.5528,6.5872,6.5605,6.5413,6.5413,6.5719,6.591,6.591,6.6216,6.6063,6.5413,6.5757,6.5757,6.5413,6.5413,6.5413,6.5413,6.5413,6.5413,6.5375,6.4916,6.4701,6.467,6.3862,6.3552,6.3559,6.3641,6.3667,6.3667,6.3693,6.3706,6.3668,6.3284,6.3162,6.3086,6.2625,6.2497,6.2534,6.2577,6.2551,6.2666,6.316,6.3545,6.3814,6.3814,6.4083,6.432,6.432,6.3435,6.2704,6.3198,6.2935,6.2704,6.3198,6.3314,6.3397,6.3773,6.3587,6.3457,6.3906,6.3224,6.2541,6.2232,6.2083,6.1846,6.1537,6.2199,6.3048,6.393,6.4442,6.5086,6.5924,6.6007,6.6162,6.6514,6.6524,6.6886,6.7728,6.8044,6.8738,6.9816,7.0188,7.0354,7.0354,7.094,7.1219,7.1241,7.128,7.1297,7.1297,7.1297,7.1297,7.1297,7.1297,7.1297,7.133,7.1678,7.1794,7.1872,7.2181,7.2645,7.3109,7.0411,7.0411,7.0411,7.0411,6.9807,6.9005,6.8134,6.74,6.6598,6.5757,6.5605,6.591,6.6713,6.6101,6.5948,6.6751,6.6063,6.5605,6.5528,6.633,6.6827,6.6835,6.7607,6.7263,6.5665,6.6415,6.6407,6.5605,6.5566,6.5528,6.5528,6.5421,6.5421,6.5429,6.5472,6.5509,6.5477,6.482,6.4548,6.4516,6.459,6.4622,6.4629,6.4686,6.4705,6.4628,6.3814,6.3545,6.3506,6.3429,6.3352,6.3314,6.3391,6.3429,6.3429,6.3506,6.4083,6.4705,6.4705,6.5282,6.5904,6.5904,6.4711,6.3551,6.3545,6.3474,6.3441,6.3518,6.3557,6.3812,6.4648,6.4159,6.3906,6.4784,6.4178,6.3367,6.2562,6.3064,6.3218,6.2446,6.3102,6.3951,6.4729,6.4883,6.522,6.5936,6.6096,6.6487,6.7271,6.7386,6.7805,6.8693,6.9497,6.9922,7.0005,7.0792,7.1207,7.1207,7.1213,7.1241,7.1297,7.1297,7.1297,7.1297,7.1297,7.1297,7.1297,7.1297,7.1297,7.1374,7.2258,7.2607,7.2723,7.3574,7.396,7.3999,7.0411,7.0411,7.0411,7.0411,7.0258,6.9838,6.9043,6.8776,6.8356,6.7485,6.737,6.7446,6.7637,6.7485,6.7446,6.7637,6.7485,6.7095,6.6445,6.7171,6.7699,6.7806,6.8572,6.8564,6.7597,6.7623,6.7553,6.737,6.6713,6.6407,6.6407,6.5787,6.5472,6.5479,6.5544,6.558,6.558,6.5509,6.5498,6.5511,6.5583,6.5609,6.5609,6.5628,6.5628,6.559,6.5397,6.532,6.5243,6.4551,6.3852,6.3429,6.4089,6.4314,6.4436,6.5128,6.5474,6.5628,6.5628,6.5743,6.5904,6.5904,6.5672,6.5388,6.5333,6.4863,6.4591,6.5285,6.5398,6.5471,6.5676,6.5566,6.5506,6.5766,6.512,6.4556,6.441,6.3956,6.3608,6.3414,6.4144,6.4763,6.4956,6.5536,6.594,6.6085,6.678,6.7271,6.7464,6.8044,6.8756,6.9594,6.9785,7.0216,7.0919,7.1124,7.1207,7.1207,7.1253,7.128,7.1297,7.1297,7.1297,7.1297,7.1297,7.1297,7.1297,7.1297,7.1297,7.1374,7.2258,7.2607,7.2723,7.3574,7.4303,7.4844,7.0411,7.0411,7.0411,7.0411,7.0411,7.0143,6.9311,6.9196,6.889,6.802,6.7905,6.8058,6.8478,6.8134,6.7905,6.7905,6.7905,6.7768,6.7386,6.8112,6.861,6.8731,6.9536,6.9788,6.9411,6.9291,6.8824,6.802,6.7638,6.7217,6.6788,6.6373,6.5935,6.5552,6.566,6.5694,6.5701,6.5813,6.5846,6.5846,6.5885,6.5904,6.5904,6.5904,6.5904,6.5904,6.5904,6.5904,6.582,6.5359,6.4936,6.4628,6.5089,6.5205,6.532,6.5782,6.5904,6.5904,6.5904,6.5904,6.591,6.5941,6.5978,6.5996,6.596,6.5611,6.546,6.5928,6.5984,6.6013,6.6047,6.6052,6.6069,6.6134,6.5796,6.5381,6.5064,6.4952,6.4759,6.4372,6.5069,6.5571,6.5571,6.5953,6.6369,6.6724,6.7209,6.7849,6.8661,6.9104,6.9701,7.0546,7.0562,7.0793,7.1247,7.1253,7.1253,7.1253,7.128,7.1297,7.1297,7.1297,7.1297,7.1297,7.1297,7.1297,7.1297,7.1297,7.1562,7.2026,7.2877,7.3458,7.3883,7.4773,7.5353,7.574,7.0411,7.0411,7.0411,7.0411,7.0411,7.0181,6.9502,6.9425,6.9158,6.844,6.8325,6.8585,6.9311,6.8738,6.8287,6.815,6.8265,6.8342,6.8311,6.9077,6.9574,6.9649,7.0346,7.0699,7.0714,7.0714,7.0054,6.8644,6.8491,6.8031,6.7333,6.7041,6.6542,6.5852,6.5818,6.5813,6.5813,6.5878,6.5904,6.5904,6.6058,6.6019,6.5904,6.6051,6.6019,6.5904,6.5904,6.5904,6.5904,6.5904,6.5904,6.5904,6.5904,6.5904,6.5904,6.5916,6.5916,6.5923,6.5929,6.5935,6.5947,6.6002,6.6026,6.6032,6.6032,6.6029,6.6024,6.6024,6.603,6.6052,6.6107,6.6112,6.6128,6.618,6.6185,6.5953,6.5301,6.576,6.5953,6.5262,6.5799,6.6185,6.6185,6.634,6.6727,6.7462,6.7771,6.8545,6.9943,7.0136,7.0562,7.1297,7.1297,7.1297,7.1297,7.1297,7.1297,7.1297,7.1297,7.1297,7.1297,7.1297,7.1297,7.1297,7.1297,7.1297,7.1297,7.1297,7.1794,7.2684,7.3574,7.438,7.5193,7.61,7.6415,7.6421,7.0411,7.0411,7.0411,7.0411,7.0411,7.0372,7.0258,7.022,7.0181,7.0067,7.0067,7.0105,7.022,7.0143,6.9793,6.9184,6.9804,6.995,6.9267,7.0048,7.0546,7.0619,7.0734,7.0808,7.0871,7.0871,7.0693,7.037,6.9596,6.9174,6.9021,6.7634,6.6932,6.6785,6.616,6.5885,6.5885,6.5897,6.5904,6.5981,6.6673,6.6519,6.5981,6.6673,6.6519,6.5904,6.5904,6.5904,6.5904,6.5904,6.5904,6.5904,6.5904,6.5904,6.591,6.5972,6.599,6.6002,6.6005,6.5984,6.5984,6.5996,6.6036,6.6074,6.6074,6.608,6.6085,6.6085,6.6128,6.6165,6.6175,6.6175,6.6175,6.6185,6.6185,6.6147,6.6031,6.6147,6.6147,6.6031,6.6147,6.6185,6.6185,6.6882,6.7384,6.7501,6.8854,6.9749,6.9982,7.0717,7.1181,7.1297,7.1297,7.1297,7.1297,7.1297,7.1297,7.1297,7.1297,7.1297,7.1297,7.1297,7.1297,7.1297,7.1297,7.1297,7.1297,7.1297,7.1794,7.2684,7.3574,7.438,7.5198,7.6145,7.6472,7.6483,7.1221,7.1145,7.0954,7.0487,7.0411,7.0411,7.0411,7.0411,7.0411,7.0411,7.0411,7.0435,7.0514,7.0531,7.0425,7.0118,7.0425,7.0539,7.0191,7.0551,7.0772,7.085,7.085,7.0864,7.0898,7.0898,7.0871,7.0801,7.0417,6.9994,6.9533,6.8837,6.8005,6.7051,6.6737,6.6327,6.5942,6.6365,6.6558,6.6635,6.7475,6.7628,6.7359,6.7705,6.7628,6.7244,6.675,6.6577,6.6563,6.6114,6.594,6.5964,6.5964,6.5964,6.597,6.5999,6.6011,6.6017,6.6001,6.6007,6.6013,6.6052,6.608,6.6107,6.6139,6.6149,6.6149,6.6149,6.617,6.6185,6.6185,6.6185,6.6185,6.6185,6.6185,6.6185,6.6185,6.6185,6.6185,6.6185,6.6185,6.6185,6.6185,6.6998,6.7694,6.8192,6.9319,7.0214,7.0717,7.1103,7.1297,7.1297,7.1297,7.1297,7.1297,7.1297,7.1297,7.1297,7.1297,7.1297,7.1297,7.1297,7.1297,7.1297,7.1297,7.1297,7.133,7.1833,7.2551,7.3391,7.4282,7.5155,7.5996,7.641,7.6576,7.6576]}]]